[[{"header":{"parameterUnit":"m.s-1","parameterCategory":1,"la1":31.0,"la2":29.5877,"lo1":-88.7671,"lo2":-86.6584,"dy":0.0162,"dx":0.0185,"nx":115,"ny":88,"refTime":"2026-05-02T12:00:00:Z","depth":0,"parameterNumber":2,"parameterNumberName":"U-component_of_WINDS"},"data":[0.0,0.0,0.0,0.0,0.0,0.0,0.0,0.0,0.0,0.0,0.0,0.0,0.0,0.0,0.0,0.0,0.0,0.0,0.0,0.0,0.0,0.0,0.0,0.0,0.0,0.0,0.0,0.0,0.0,0.0,0.0,0.0,0.0,0.0,0.0,0.0,0.0,0.0,0.0,0.0,0.0,0.0,0.0,0.0,0.0,0.0,0.0,0.0,0.0,0.0,0.0,0.0,0.0,0.0,0.0,0.0,0.0,0.0,0.0,0.0,0.0,0.0,0.0,0.0,0.0,0.0,0.0,0.0,0.0,0.0,0.0,0.0,0.0,0.0,0.0,0.0,0.0,0.0,0.0,0.0,0.0,0.0,0.0,0.0,0.0,0.0,0.0,0.0,0.0,0.0,0.0,0.0,0.0,0.0,0.0,0.0,0.0,0.0,0.0,0.0,0.0,0.0,0.0,0.0,0.0,0.0,0.0,0.0,0.0,0.0,0.0,0.0,0.0,0.0,0.0,0.0,0.0,0.0,0.0,0.0,0.0,0.0,0.0,0.0,0.0,0.0,0.0,0.0,0.0,0.0,0.0,0.0,0.0,0.0,0.0,0.0,0.0,0.0,0.0,0.0,0.0,0.0,0.0,0.0,0.0,0.0,0.0,0.0,0.0,0.0,0.0,0.0,0.0,0.0,0.0,0.0,0.0,0.0,0.0,0.0,0.0,0.0,0.0,0.0,0.0,0.0,0.0,0.0,0.0,0.0,0.0,0.0,0.0,0.0,0.0,0.0,0.0,0.0,0.0,0.0,0.0,0.0,0.0,0.0,0.0,0.0,0.0,0.0,0.0,0.0,0.0,0.0,0.0,0.0,0.0,0.0,0.0,0.0,0.0,0.0,0.0,0.0,0.0,0.0,0.0,0.0,0.0,0.0,0.0,0.0,0.0,0.0,0.0,0.0,0.0,0.0,0.0,0.0,0.0,0.0,0.0,0.0,0.0,0.0,0.0,0.0,0.0,0.0,0.0,0.0,0.0,0.0,0.0,0.0,0.0,0.0,0.0,0.0,0.0,0.0,0.0,0.0,0.0,0.0,0.0,0.0,0.0,0.0,0.0,0.0,0.0,0.0,0.0,0.0,0.0,0.0,0.0,0.0,0.0,0.0,0.0,0.0,0.0,0.0,0.0,0.0,0.0,0.0,0.0,0.0,0.0,0.0,0.0,0.0,0.0,0.0,0.0,0.0,0.0,0.0,0.0,0.0,0.0,0.0,0.0,0.0,0.0,0.0,0.0,0.0,0.0,0.0,0.0,0.0,0.0,0.0,0.0,0.0,0.0,0.0,0.0,0.0,0.0,0.0,0.0,0.0,0.0,0.0,0.0,0.0,0.0,0.0,0.0,0.0,0.0,0.0,0.0,0.0,0.0,0.0,0.0,0.0,0.0,0.0,0.0,0.0,0.0,0.0,0.0,0.0,0.0,0.0,0.0,0.0,0.0,0.0,0.0,0.0,0.0,0.0,0.0,0.0,0.0,0.0,0.0,0.0,0.0,0.0,0.0,0.0,0.0,0.0,0.0,0.0,0.0,0.0,0.0,0.0,0.0,0.0,0.0,0.0,0.0,0.0,0.0,0.0,0.0,0.0,0.0,0.0,0.0,0.0,0.0,0.0,0.0,0.0,0.0,0.0,0.0,0.0,0.0,0.0,0.0,0.0,0.0,0.0,0.0,0.0,0.0,0.0,0.0,0.0,0.0,0.0,0.0,0.0,0.0,0.0,0.0,0.0,0.0,0.0,0.0,0.0,0.0,0.0,0.0,0.0,0.0,0.0,0.0,0.0,0.0,0.0,0.0,0.0,0.0,0.0,0.0,0.0,0.0,0.0,0.0,0.0,0.0,0.0,0.0,0.0,0.0,0.0,0.0,0.0,0.0,0.0,0.0,0.0,0.0,0.0,0.0,0.0,0.0,0.0,0.0,0.0,0.0,0.0,0.0,0.0,0.0,0.0,0.0,0.0,0.0,0.0,0.0,0.0,0.0,0.0,0.0,0.0,0.0,0.0,0.0,0.0,0.0,0.0,0.0,0.0,0.0,0.0,0.0,0.0,0.0,0.0,0.0,0.0,0.0,0.0,0.0,0.0,0.0,0.0,0.0,0.0,0.0,0.0,0.0,0.0,0.0,0.0,0.0,0.0,0.0,0.0,0.0,0.0,0.0,0.0,0.0,0.0,0.0,0.0,0.0,0.0,0.0,0.0,0.0,0.0,0.0,0.0,0.0,0.0,0.0,0.0,0.0,0.0,0.0,0.0,0.0,0.0,0.0,0.0,0.0,0.0,0.0,0.0,0.0,0.0,0.0,0.0,0.0,0.0,0.0,0.0,0.0,0.0,0.0,0.0,0.0,0.0,0.0,0.0,0.0,0.0,0.0,0.0,0.0,0.0,0.0,0.0,0.0,0.0,0.0,0.0,0.0,0.0,0.0,0.0,0.0,0.0,0.0,0.0,0.0,0.0,0.0,0.0,0.0,0.0,0.0,0.0,0.0,0.0,0.0,0.0,0.0,0.0,0.0,0.0,0.0,0.0,0.0,0.0,0.0,0.0,0.0,0.0,0.0,0.0,0.0,0.0,0.0,0.0,0.0,0.0,0.0,0.0,0.0,0.0,0.0,0.0,0.0,0.0,0.0,0.0,0.0,0.0,0.0,0.0,0.0,0.0,0.0,0.0,0.0,0.0,0.0,0.0,0.0,0.0,0.0,0.0,0.0,0.0,0.0,0.0,0.0,0.0,0.0,0.0,0.0,0.0,0.0,0.0,0.0,0.0,0.0,0.0,0.0,0.0,0.0,0.0,0.0,0.0,0.0,0.0,0.0,0.0,0.0,0.0,0.0,0.0,0.0,0.0,0.0,0.0,0.0,0.0,0.0,0.0,0.0,0.0,0.0,0.0,0.0,0.0,0.0,0.0,0.0,0.0,0.0,0.0,0.0,0.0,0.0,0.0,0.0,0.0,0.0,0.0,0.0,0.0,0.0,0.0,0.0,0.0,0.0,0.0,0.0,0.0,0.0,0.0,0.0,0.0,0.0,0.0,0.0,0.0,0.0,0.0,0.0,0.0,0.0,0.0,0.0,0.0,0.0,0.0,0.0,0.0,0.0,0.0,0.0,0.0,0.0,0.0,0.0,0.0,0.0,0.0,0.0,0.0,0.0,0.0,0.0,0.0,0.0,0.0,0.0,0.0,0.0,0.0,0.0,0.0,0.0,0.0,0.0,0.0,0.0,0.0,0.0,0.0,0.0,0.0,0.0,0.0,0.0,0.0,0.0,0.0,0.0,0.0,0.0,0.0,0.0,0.0,0.0,0.0,0.0,0.0,0.0,0.0,0.0,0.0,0.0,0.0,0.0,0.0,0.0,0.0,0.0,0.0,0.0,0.0,0.0,0.0,0.0,0.0,0.0,0.0,0.0,0.0,0.0,0.0,0.0,0.0,0.0,0.0,0.0,0.0,0.0,0.0,0.0,0.0,0.0,0.0,0.0,0.0,0.0,0.0,0.0,0.0,0.0,0.0,0.0,0.0,0.0,0.0,0.0,0.0,0.0,0.0,0.0,0.0,0.0,0.0,0.0,0.0,0.0,0.0,0.0,0.0,0.0,0.0,0.0,0.0,0.0,0.0,0.0,0.0,0.0,0.0,0.0,0.0,0.0,0.0,0.0,0.0,0.0,0.0,0.0,0.0,0.0,0.0,0.0,0.0,0.0,0.0,0.0,0.0,0.0,0.0,0.0,0.0,0.0,0.0,0.0,0.0,0.0,0.0,0.0,0.0,0.0,0.0,0.0,0.0,0.0,0.0,0.0,0.0,0.0,0.0,0.0,0.0,0.0,0.0,0.0,0.0,0.0,0.0,0.0,0.0,0.0,0.0,0.0,0.0,0.0,0.0,0.0,0.0,0.0,0.0,0.0,0.0,0.0,0.0,0.0,0.0,0.0,0.0,0.0,0.0,0.0,0.0,0.0,0.0,0.0,0.0,0.0,0.0,0.0,0.0,0.0,0.0,0.0,0.0,0.0,0.0,0.0,0.0,0.0,0.0,0.0,0.0,0.0,0.0,0.0,0.0,0.0,0.0,0.0,0.0,0.0,0.0,0.0,0.0,0.0,0.0,0.0,0.0,0.0,0.0,0.0,0.0,0.0,0.0,0.0,0.0,0.0,0.0,0.0,0.0,0.0,0.0,0.0,0.0,0.0,0.0,0.0,0.0,0.0,0.0,0.0,0.0,0.0,0.0,0.0,0.0,2.4086,0.0,0.0,0.0,0.0,0.0,0.0,0.0,0.0,0.0,0.0,0.0,0.0,0.0,0.0,0.0,0.0,0.0,0.0,0.0,0.0,0.0,0.0,0.0,0.0,0.0,0.0,0.0,0.0,0.0,0.0,0.0,0.0,0.0,0.0,0.0,0.0,0.0,0.0,0.0,0.0,0.0,0.0,0.0,0.0,0.0,0.0,0.0,0.0,0.0,0.0,0.0,0.0,0.0,0.0,0.0,0.0,0.0,0.0,0.0,0.0,0.0,0.0,0.0,0.0,0.0,0.0,0.0,0.0,0.0,0.0,0.0,0.0,0.0,0.0,0.0,0.0,0.0,0.0,0.0,0.0,0.0,0.0,0.0,0.0,0.0,0.0,0.0,0.0,0.0,0.0,0.0,0.0,0.0,0.0,0.0,0.0,0.0,0.0,0.0,0.0,0.0,0.0,0.0,0.0,0.0,0.0,0.0,0.0,0.0,0.0,2.5351,2.5351,2.5466,2.5321,2.4996,0.0,0.0,0.0,0.0,0.0,0.0,0.0,0.0,0.0,0.0,0.0,0.0,0.0,0.0,0.0,0.0,0.0,0.0,0.0,0.0,0.0,0.0,0.0,0.0,0.0,0.0,0.0,0.0,0.0,0.0,0.0,0.0,0.0,0.0,0.0,0.0,0.0,0.0,0.0,0.0,0.0,0.0,0.0,0.0,0.0,0.0,0.0,0.0,0.0,0.0,0.0,0.0,0.0,0.0,0.0,0.0,0.0,0.0,0.0,0.0,0.0,0.0,0.0,0.0,0.0,0.0,0.0,0.0,0.0,0.0,0.0,0.0,0.0,0.0,0.0,0.0,0.0,0.0,0.0,0.0,0.0,0.0,0.0,0.0,0.0,0.0,0.0,0.0,0.0,0.0,0.0,0.0,0.0,0.0,0.0,0.0,0.0,0.0,0.0,0.0,0.0,0.0,0.0,0.0,0.0,0.0,0.0,0.0,0.0,0.0,0.0,0.0,2.6178,2.6172,2.6219,0.0,0.0,0.0,0.0,0.0,0.0,0.0,0.0,0.0,0.0,0.0,0.0,0.0,0.0,0.0,0.0,0.0,0.0,0.0,0.0,0.0,0.0,0.0,0.0,0.0,0.0,0.0,0.0,0.0,0.0,0.0,0.0,0.0,0.0,0.0,0.0,0.0,0.0,0.0,0.0,0.0,0.0,0.0,0.0,0.0,0.0,0.0,0.0,0.0,0.0,0.0,0.0,0.0,0.0,0.0,0.0,0.0,0.0,0.0,0.0,0.0,0.0,0.0,0.0,0.0,0.0,0.0,0.0,0.0,0.0,0.0,0.0,0.0,0.0,0.0,0.0,0.0,0.0,0.0,0.0,0.0,0.0,0.0,0.0,0.0,0.0,0.0,0.0,0.0,0.0,0.0,0.0,0.0,0.0,0.0,0.0,0.0,0.0,0.0,0.0,0.0,0.0,0.0,0.0,0.0,0.0,0.0,0.0,0.0,0.0,2.6456,2.8741,2.8194,0.0,2.8043,0.0,0.0,0.0,0.0,0.0,0.0,0.0,0.0,0.0,0.0,0.0,0.0,0.0,0.0,0.0,0.0,0.0,0.0,0.0,0.0,0.0,0.0,0.0,0.0,0.0,0.0,0.0,0.0,0.0,0.0,0.0,0.0,0.0,0.0,0.0,0.0,0.0,0.0,0.0,0.0,0.0,0.0,0.0,0.0,0.0,0.0,0.0,0.0,0.0,0.0,0.0,0.0,0.0,0.0,0.0,0.0,0.0,0.0,0.0,0.0,0.0,0.0,0.0,0.0,0.0,0.0,0.0,0.0,0.0,0.0,0.0,0.0,0.0,0.0,0.0,0.0,0.0,0.0,0.0,0.0,0.0,0.0,0.0,0.0,0.0,0.0,0.0,0.0,0.0,0.0,0.0,0.0,0.0,0.0,0.0,0.0,0.0,0.0,0.0,0.0,0.0,0.0,0.0,0.0,0.0,0.0,0.0,0.0,0.0,0.0,0.0,2.928,2.909,2.8782,0.0,0.0,0.0,0.0,0.0,0.0,0.0,0.0,0.0,0.0,0.0,0.0,0.0,0.0,0.0,0.0,0.0,0.0,0.0,0.0,0.0,0.0,0.0,0.0,0.0,0.0,0.0,0.0,0.0,0.0,0.0,0.0,0.0,0.0,0.0,0.0,0.0,0.0,0.0,0.0,0.0,0.0,0.0,0.0,0.0,0.0,0.0,0.0,0.0,0.0,0.0,0.0,0.0,0.0,0.0,0.0,0.0,0.0,0.0,0.0,0.0,0.0,0.0,0.0,0.0,0.0,0.0,0.0,0.0,0.0,0.0,0.0,0.0,0.0,0.0,0.0,0.0,0.0,0.0,0.0,0.0,0.0,0.0,0.0,0.0,0.0,0.0,0.0,0.0,0.0,0.0,0.0,0.0,0.0,0.0,0.0,0.0,0.0,0.0,0.0,0.0,0.0,0.0,0.0,0.0,0.0,0.0,0.0,0.0,0.0,2.8579,0.0,3.0031,3.0007,2.9414,2.832,0.0,0.0,0.0,0.0,0.0,0.0,0.0,0.0,0.0,0.0,0.0,0.0,0.0,0.0,0.0,0.0,0.0,0.0,0.0,0.0,0.0,0.0,0.0,0.0,0.0,0.0,0.0,0.0,0.0,0.0,0.0,0.0,0.0,0.0,0.0,0.0,0.0,0.0,0.0,0.0,0.0,0.0,0.0,0.0,0.0,0.0,0.0,0.0,0.0,0.0,0.0,0.0,0.0,0.0,0.0,0.0,0.0,0.0,0.0,0.0,0.0,0.0,0.0,0.0,0.0,0.0,0.0,0.0,0.0,0.0,0.0,0.0,0.0,0.0,0.0,0.0,0.0,0.0,0.0,0.0,0.0,0.0,0.0,0.0,0.0,0.0,0.0,0.0,0.0,0.0,0.0,0.0,0.0,0.0,0.0,0.0,0.0,0.0,0.0,0.0,0.0,0.0,0.0,0.0,0.0,0.0,0.0,0.0,0.0,3.0265,2.9969,3.1743,3.12,3.0039,0.0,0.0,0.0,0.0,0.0,0.0,0.0,0.0,0.0,0.0,0.0,0.0,0.0,0.0,0.0,0.0,0.0,0.0,0.0,0.0,0.0,0.0,0.0,0.0,0.0,0.0,0.0,0.0,0.0,0.0,0.0,0.0,0.0,0.0,0.0,0.0,0.0,0.0,0.0,0.0,0.0,0.0,0.0,0.0,0.0,0.0,0.0,0.0,0.0,0.0,0.0,0.0,0.0,0.0,0.0,0.0,0.0,0.0,0.0,0.0,0.0,0.0,0.0,0.0,0.0,0.0,0.0,0.0,0.0,0.0,0.0,0.0,0.0,0.0,0.0,0.0,0.0,0.0,0.0,0.0,0.0,0.0,0.0,0.0,0.0,0.0,0.0,0.0,0.0,0.0,0.0,0.0,0.0,0.0,0.0,0.0,0.0,0.0,0.0,0.0,0.0,0.0,0.0,0.0,0.0,0.0,0.0,0.0,0.0,2.7952,2.8849,3.0953,3.4153,3.1621,3.0039,0.0,0.0,0.0,0.0,0.0,0.0,0.0,0.0,0.0,0.0,0.0,0.0,0.0,0.0,0.0,0.0,0.0,0.0,0.0,0.0,0.0,0.0,0.0,0.0,0.0,0.0,0.0,0.0,0.0,0.0,0.0,0.0,0.0,0.0,0.0,0.0,0.0,0.0,0.0,0.0,0.0,0.0,0.0,0.0,0.0,0.0,0.0,0.0,0.0,0.0,0.0,0.0,0.0,0.0,0.0,0.0,0.0,0.0,0.0,0.0,0.0,0.0,0.0,0.0,0.0,0.0,0.0,0.0,0.0,0.0,0.0,0.0,0.0,0.0,0.0,0.0,0.0,0.0,0.0,0.0,0.0,0.0,0.0,0.0,0.0,0.0,0.0,0.0,0.0,0.0,0.0,0.0,0.0,0.0,0.0,0.0,0.0,0.0,0.0,0.0,0.0,0.0,0.0,0.0,0.0,0.0,0.0,0.0,0.0,2.7834,0.0,3.2891,0.0,3.2065,3.0039,0.0,0.0,0.0,0.0,0.0,0.0,0.0,0.0,0.0,0.0,0.0,0.0,0.0,0.0,0.0,0.0,0.0,0.0,0.0,0.0,0.0,0.0,0.0,0.0,0.0,0.0,0.0,0.0,0.0,0.0,0.0,0.0,0.0,0.0,0.0,0.0,0.0,0.0,0.0,0.0,0.0,0.0,0.0,0.0,0.0,0.0,0.0,0.0,0.0,0.0,0.0,0.0,0.0,0.0,0.0,0.0,0.0,0.0,0.0,0.0,0.0,0.0,0.0,0.0,0.0,0.0,0.0,0.0,0.0,0.0,0.0,0.0,0.0,0.0,0.0,0.0,0.0,0.0,0.0,0.0,0.0,0.0,0.0,0.0,0.0,0.0,0.0,0.0,0.0,0.0,0.0,0.0,0.0,0.0,0.0,0.0,0.0,0.0,0.0,0.0,0.0,0.0,0.0,0.0,0.0,0.0,0.0,0.0,0.0,3.2771,3.5387,3.5643,3.3478,3.2566,3.0156,0.0,0.0,0.0,0.0,0.0,0.0,0.0,0.0,0.0,0.0,0.0,0.0,0.0,0.0,0.0,0.0,0.0,0.0,0.0,0.0,0.0,0.0,0.0,0.0,0.0,0.0,0.0,0.0,0.0,0.0,0.0,0.0,0.0,0.0,0.0,0.0,0.0,0.0,0.0,0.0,0.0,0.0,0.0,0.0,0.0,0.0,0.0,0.0,0.0,0.0,0.0,0.0,0.0,0.0,0.0,0.0,0.0,0.0,0.0,0.0,0.0,0.0,0.0,0.0,0.0,0.0,0.0,0.0,0.0,0.0,0.0,0.0,0.0,0.0,0.0,0.0,0.0,0.0,0.0,0.0,0.0,0.0,0.0,0.0,0.0,0.0,0.0,0.0,0.0,0.0,0.0,0.0,0.0,0.0,0.0,0.0,0.0,0.0,0.0,0.0,0.0,0.0,0.0,0.0,0.0,0.0,0.0,0.0,0.0,3.0539,3.3652,3.5839,3.6682,3.2643,3.0586,0.0,0.0,0.0,0.0,0.0,0.0,0.0,0.0,0.0,0.0,0.0,0.0,0.0,0.0,0.0,0.0,0.0,0.0,0.0,0.0,0.0,0.0,0.0,0.0,0.0,0.0,0.0,0.0,0.0,0.0,0.0,0.0,0.0,0.0,0.0,0.0,0.0,0.0,0.0,0.0,0.0,0.0,0.0,0.0,0.0,0.0,0.0,0.0,0.0,0.0,0.0,0.0,0.0,0.0,0.0,0.0,0.0,0.0,0.0,0.0,0.0,0.0,0.0,0.0,0.0,0.0,0.0,0.0,0.0,0.0,0.0,0.0,0.0,0.0,0.0,0.0,0.0,0.0,0.0,0.0,0.0,0.0,0.0,0.0,0.0,0.0,0.0,0.0,0.0,0.0,0.0,0.0,0.0,0.0,0.0,0.0,0.0,0.0,0.0,0.0,0.0,0.0,0.0,0.0,0.0,0.0,0.0,0.0,0.0,3.4323,3.696,3.8778,3.9513,3.4947,3.2305,3.1914,0.0,0.0,0.0,0.0,0.0,0.0,0.0,0.0,0.0,0.0,0.0,0.0,0.0,0.0,0.0,0.0,0.0,0.0,0.0,0.0,0.0,0.0,0.0,0.0,0.0,0.0,0.0,0.0,0.0,0.0,0.0,0.0,0.0,0.0,0.0,0.0,0.0,0.0,0.0,0.0,0.0,0.0,0.0,0.0,0.0,0.0,0.0,0.0,0.0,0.0,0.0,0.0,0.0,0.0,0.0,0.0,0.0,0.0,0.0,0.0,0.0,0.0,0.0,0.0,0.0,0.0,0.0,0.0,0.0,0.0,0.0,0.0,0.0,0.0,0.0,0.0,0.0,0.0,0.0,0.0,0.0,0.0,0.0,0.0,0.0,0.0,0.0,0.0,0.0,0.0,0.0,0.0,0.0,0.0,0.0,0.0,0.0,0.0,0.0,0.0,0.0,0.0,0.0,0.0,0.0,0.0,0.0,0.0,4.2597,4.4504,4.4258,4.1836,3.8984,3.5195,0.0,0.0,0.0,0.0,0.0,0.0,0.0,0.0,0.0,0.0,0.0,0.0,0.0,0.0,0.0,0.0,0.0,0.0,0.0,0.0,0.0,0.0,0.0,0.0,0.0,0.0,0.0,0.0,0.0,0.0,0.0,0.0,0.0,0.0,0.0,0.0,0.0,0.0,0.0,0.0,0.0,0.0,0.0,0.0,0.0,0.0,0.0,0.0,0.0,0.0,0.0,0.0,0.0,0.0,0.0,0.0,0.0,0.0,0.0,0.0,0.0,0.0,0.0,0.0,0.0,0.0,0.0,0.0,0.0,0.0,0.0,0.0,0.0,0.0,0.0,0.0,0.0,0.0,0.0,0.0,0.0,0.0,0.0,0.0,0.0,0.0,0.0,0.0,0.0,0.0,0.0,0.0,0.0,0.0,0.0,0.0,0.0,0.0,0.0,0.0,0.0,0.0,0.0,0.0,0.0,0.0,0.0,0.0,0.0,4.6926,5.0664,5.1055,4.7891,4.2851,3.8945,0.0,0.0,0.0,0.0,0.0,0.0,0.0,0.0,0.0,0.0,0.0,0.0,0.0,0.0,0.0,0.0,0.0,0.0,0.0,0.0,0.0,0.0,0.0,0.0,0.0,0.0,0.0,0.0,0.0,0.0,0.0,0.0,0.0,0.0,0.0,0.0,0.0,0.0,0.0,0.0,0.0,0.0,0.0,0.0,0.0,0.0,0.0,0.0,0.0,0.0,0.0,0.0,0.0,0.0,0.0,0.0,0.0,0.0,0.0,0.0,0.0,0.0,0.0,0.0,0.0,0.0,0.0,0.0,0.0,0.0,0.0,0.0,0.0,0.0,0.0,0.0,0.0,0.0,0.0,0.0,0.0,0.0,0.0,0.0,0.0,0.0,0.0,0.0,0.0,0.0,0.0,0.0,0.0,0.0,0.0,0.0,0.0,0.0,0.0,0.0,0.0,0.0,0.0,0.0,0.0,0.0,0.0,0.0,4.5279,5.0829,5.5543,5.6875,5.4531,4.7969,4.2578,0.0,0.0,0.0,0.0,0.0,0.0,0.0,0.0,0.0,0.0,0.0,0.0,0.0,0.0,0.0,0.0,0.0,0.0,0.0,0.0,0.0,0.0,0.0,0.0,0.0,0.0,0.0,0.0,0.0,0.0,0.0,0.0,0.0,0.0,0.0,0.0,0.0,0.0,0.0,0.0,0.0,0.0,0.0,0.0,0.0,0.0,0.0,0.0,0.0,0.0,0.0,0.0,0.0,0.0,0.0,0.0,0.0,0.0,0.0,0.0,0.0,0.0,0.0,0.0,0.0,0.0,0.0,0.0,0.0,0.0,0.0,0.0,0.0,0.0,0.0,0.0,0.0,0.0,0.0,0.0,0.0,0.0,0.0,0.0,0.0,0.0,0.0,0.0,0.0,0.0,0.0,0.0,0.0,0.0,0.0,0.0,0.0,0.0,0.0,0.0,0.0,0.0,0.0,0.0,0.0,0.0,0.0,0.0,4.8326,5.4179,5.9343,6.1484,6.039,5.3242,4.6133,0.0,0.0,0.0,0.0,0.0,0.0,0.0,0.0,0.0,0.0,0.0,0.0,0.0,0.0,0.0,0.0,0.0,0.0,0.0,0.0,0.0,0.0,0.0,0.0,0.0,0.0,0.0,0.0,0.0,0.0,0.0,0.0,0.0,0.0,0.0,0.0,0.0,0.0,0.0,0.0,0.0,0.0,0.0,0.0,0.0,0.0,0.0,0.0,0.0,0.0,0.0,0.0,0.0,0.0,0.0,0.0,0.0,0.0,0.0,0.0,0.0,0.0,0.0,0.0,0.0,0.0,0.0,0.0,0.0,0.0,0.0,0.0,0.0,0.0,0.0,0.0,0.0,0.0,0.0,0.0,0.0,0.0,0.0,0.0,0.0,0.0,0.0,0.0,0.0,0.0,0.0,0.0,0.0,0.0,0.0,0.0,0.0,0.0,0.0,0.0,0.0,0.0,0.0,0.0,0.0,0.0,0.0,0.0,5.1912,5.6002,6.1092,6.3008,6.1445,5.5234,4.9297,0.0,0.0,0.0,0.0,0.0,0.0,0.0,0.0,0.0,0.0,0.0,0.0,0.0,0.0,0.0,0.0,0.0,0.0,0.0,0.0,0.0,0.0,0.0,0.0,0.0,0.0,0.0,0.0,0.0,0.0,0.0,0.0,0.0,0.0,0.0,0.0,0.0,0.0,0.0,0.0,0.0,0.0,0.0,0.0,0.0,0.0,0.0,0.0,2.8956,0.0,0.0,0.0,0.0,0.0,0.0,0.0,0.0,0.0,0.0,0.0,0.0,0.0,0.0,0.0,0.0,0.0,0.0,0.0,0.0,0.0,0.0,0.0,0.0,0.0,0.0,0.0,0.0,0.0,0.0,0.0,0.0,0.0,0.0,0.0,0.0,0.0,0.0,0.0,0.0,0.0,0.0,0.0,0.0,0.0,0.0,0.0,0.0,0.0,0.0,0.0,0.0,0.0,0.0,0.0,0.0,0.0,0.0,0.0,5.4023,5.832,6.2555,6.4154,6.2736,5.8098,5.2422,0.0,0.0,0.0,0.0,0.0,0.0,0.0,0.0,0.0,0.0,0.0,0.0,0.0,0.0,0.0,0.0,0.0,0.0,0.0,0.0,0.0,0.0,0.0,0.0,0.0,0.0,0.0,0.0,0.0,0.0,0.0,0.0,0.0,0.0,0.0,0.0,0.0,0.0,0.0,0.0,0.0,0.0,0.0,0.0,0.0,0.0,0.0,0.0,0.0,0.0,0.0,0.0,0.0,0.0,0.0,0.0,0.0,0.0,0.0,0.0,0.0,0.0,0.0,0.0,0.0,0.0,0.0,0.0,0.0,0.0,0.0,0.0,0.0,0.0,0.0,0.0,0.0,0.0,0.0,0.0,0.0,0.0,0.0,0.0,0.0,0.0,0.0,0.0,0.0,0.0,0.0,0.0,0.0,0.0,0.0,0.0,0.0,0.0,0.0,0.0,0.0,0.0,0.0,0.0,0.0,0.0,0.0,4.9219,5.5465,6.0788,6.392,6.5114,6.4224,6.0622,5.4939,0.0,0.0,0.0,0.0,0.0,0.0,0.0,0.0,0.0,0.0,0.0,0.0,0.0,0.0,0.0,0.0,0.0,0.0,0.0,0.0,0.0,0.0,0.0,0.0,0.0,0.0,0.0,0.0,0.0,0.0,0.0,0.0,0.0,0.0,0.0,0.0,0.0,0.0,0.0,2.7343,3.0624,0.0,0.0,0.0,0.0,0.0,0.0,0.0,0.0,3.1532,0.0,0.0,0.0,0.0,0.0,0.0,0.0,0.0,0.0,0.0,0.0,0.0,0.0,0.0,0.0,0.0,0.0,0.0,0.0,0.0,0.0,0.0,0.0,0.0,0.0,0.0,0.0,0.0,0.0,0.0,0.0,0.0,0.0,0.0,0.0,0.0,0.0,0.0,0.0,0.0,0.0,0.0,0.0,0.0,0.0,0.0,0.0,0.0,0.0,0.0,0.0,0.0,0.0,0.0,0.0,0.0,4.8281,5.1953,5.6946,6.332,6.538,6.5897,6.4859,6.0783,5.5615,4.9388,0.0,0.0,0.0,0.0,0.0,0.0,0.0,0.0,0.0,0.0,0.0,0.0,0.0,0.0,0.0,0.0,0.0,0.0,0.0,0.0,0.0,0.0,0.0,0.0,0.0,0.0,0.0,0.0,0.0,0.0,0.0,0.0,0.0,0.0,0.0,0.0,0.0,0.0,0.0,3.631,3.8281,0.0,0.0,0.0,0.0,0.0,0.0,0.0,0.0,3.2814,0.0,0.0,0.0,0.0,0.0,0.0,0.0,0.0,0.0,0.0,0.0,0.0,0.0,0.0,0.0,0.0,0.0,0.0,0.0,0.0,0.0,0.0,0.0,0.0,0.0,0.0,0.0,0.0,0.0,0.0,0.0,0.0,0.0,0.0,0.0,0.0,0.0,0.0,0.0,0.0,0.0,0.0,0.0,0.0,0.0,0.0,0.0,0.0,0.0,0.0,0.0,0.0,0.0,0.0,0.0,4.832,5.3828,5.9217,6.4537,6.5782,6.5897,6.4897,5.9816,5.4695,0.0,0.0,0.0,0.0,0.0,0.0,0.0,0.0,0.0,0.0,0.0,0.0,0.0,0.0,0.0,0.0,0.0,0.0,0.0,0.0,0.0,0.0,0.0,0.0,0.0,0.0,0.0,0.0,0.0,0.0,0.0,0.0,0.0,0.0,0.0,0.0,0.0,0.0,0.0,0.0,3.8631,4.05,4.1386,0.0,0.0,0.0,0.0,0.0,0.0,3.5989,3.4525,0.0,0.0,0.0,0.0,0.0,0.0,0.0,0.0,0.0,0.0,0.0,0.0,0.0,0.0,0.0,0.0,0.0,0.0,0.0,0.0,0.0,0.0,0.0,0.0,0.0,0.0,0.0,0.0,0.0,0.0,0.0,0.0,0.0,0.0,0.0,0.0,0.0,0.0,0.0,0.0,0.0,0.0,0.0,0.0,0.0,0.0,0.0,0.0,0.0,0.0,0.0,0.0,0.0,0.0,0.0,4.7812,5.4805,6.0707,6.5254,6.5897,6.5769,6.496,5.9319,5.4164,0.0,0.0,0.0,0.0,0.0,0.0,0.0,0.0,0.0,0.0,0.0,0.0,0.0,0.0,0.0,0.0,0.0,0.0,0.0,0.0,0.0,0.0,0.0,0.0,0.0,0.0,0.0,0.0,0.0,0.0,0.0,0.0,0.0,0.0,0.0,0.0,0.0,0.0,0.0,0.0,0.0,4.278,4.368,4.213,0.0,0.0,0.0,0.0,4.0192,3.9457,0.0,0.0,0.0,0.0,0.0,0.0,0.0,0.0,0.0,0.0,0.0,0.0,0.0,0.0,0.0,0.0,0.0,0.0,0.0,0.0,0.0,0.0,0.0,0.0,0.0,0.0,0.0,0.0,0.0,0.0,0.0,0.0,0.0,0.0,0.0,0.0,0.0,0.0,0.0,0.0,0.0,0.0,0.0,0.0,0.0,0.0,0.0,0.0,0.0,0.0,0.0,0.0,0.0,0.0,0.0,0.0,4.9453,5.4258,5.9763,6.5895,6.6167,6.5974,6.5705,6.0712,5.5638,0.0,0.0,0.0,0.0,0.0,0.0,0.0,0.0,0.0,0.0,0.0,0.0,0.0,0.0,0.0,0.0,0.0,0.0,0.0,0.0,0.0,0.0,0.0,0.0,0.0,0.0,0.0,0.0,0.0,0.0,0.0,0.0,0.0,0.0,0.0,0.0,0.0,0.0,0.0,0.0,0.0,4.7156,4.5847,4.4914,4.3984,0.0,0.0,0.0,4.4207,4.6448,0.0,0.0,0.0,0.0,0.0,0.0,0.0,0.0,0.0,0.0,0.0,0.0,0.0,0.0,0.0,0.0,0.0,0.0,0.0,0.0,0.0,0.0,0.0,0.0,0.0,0.0,0.0,0.0,0.0,0.0,0.0,0.0,0.0,0.0,0.0,0.0,0.0,0.0,0.0,0.0,0.0,0.0,0.0,0.0,0.0,0.0,0.0,0.0,0.0,0.0,0.0,0.0,0.0,0.0,0.0,4.2999,4.9833,5.6456,6.1926,6.6038,6.6051,6.5974,6.5859,5.9588,5.4456,0.0,0.0,0.0,0.0,0.0,0.0,0.0,0.0,0.0,0.0,0.0,0.0,0.0,0.0,0.0,0.0,0.0,0.0,0.0,0.0,0.0,0.0,0.0,0.0,0.0,0.0,0.0,0.0,0.0,0.0,0.0,0.0,0.0,0.0,0.0,0.0,0.0,0.0,0.0,0.0,0.0,0.0,4.8108,4.8014,0.0,0.0,0.0,4.8308,4.7794,0.0,0.0,0.0,0.0,0.0,0.0,0.0,0.0,0.0,0.0,0.0,0.0,0.0,0.0,0.0,0.0,0.0,0.0,0.0,0.0,0.0,0.0,0.0,0.0,0.0,0.0,0.0,0.0,0.0,0.0,0.0,0.0,0.0,0.0,0.0,0.0,0.0,0.0,0.0,0.0,0.0,0.0,0.0,0.0,0.0,0.0,0.0,0.0,0.0,0.0,0.0,0.0,0.0,0.0,0.0,0.0,0.0,5.0177,5.8311,6.3668,6.5974,6.5936,6.5897,6.5782,5.9294,0.0,0.0,0.0,0.0,0.0,0.0,0.0,0.0,0.0,0.0,0.0,0.0,0.0,0.0,0.0,0.0,0.0,0.0,0.0,0.0,0.0,0.0,0.0,0.0,0.0,0.0,0.0,2.3394,0.0,0.0,0.0,0.0,0.0,0.0,0.0,0.0,0.0,0.0,0.0,0.0,0.0,0.0,4.8786,5.0286,5.1254,5.2148,0.0,0.0,5.2016,5.1696,5.3152,5.1836,0.0,0.0,0.0,0.0,0.0,0.0,0.0,0.0,0.0,0.0,0.0,0.0,0.0,0.0,0.0,0.0,0.0,0.0,0.0,0.0,0.0,0.0,0.0,0.0,0.0,0.0,0.0,0.0,0.0,0.0,0.0,0.0,0.0,0.0,0.0,0.0,0.0,0.0,0.0,0.0,0.0,0.0,0.0,0.0,0.0,0.0,0.0,0.0,0.0,0.0,0.0,0.0,0.0,0.0,0.0,5.1103,5.8617,6.3668,6.6013,6.5974,6.5897,6.582,6.1543,5.6472,0.0,0.0,0.0,0.0,0.0,0.0,0.0,0.0,0.0,0.0,0.0,0.0,0.0,0.0,0.0,0.0,0.0,0.0,0.0,0.0,0.0,0.0,0.0,0.0,0.0,0.0,0.0,0.0,0.0,0.0,0.0,0.0,0.0,0.0,0.0,0.0,0.0,0.0,0.0,0.0,0.0,5.1222,5.2278,5.4585,5.6758,0.0,0.0,5.7109,5.6289,5.9531,5.8555,4.7773,0.0,0.0,0.0,0.0,0.0,0.0,0.0,0.0,0.0,0.0,0.0,0.0,0.0,0.0,0.0,0.0,0.0,0.0,0.0,0.0,0.0,0.0,0.0,0.0,0.0,0.0,0.0,0.0,0.0,0.0,0.0,0.0,0.0,0.0,0.0,0.0,0.0,0.0,0.0,0.0,0.0,0.0,0.0,0.0,0.0,0.0,0.0,0.0,0.0,0.0,0.0,0.0,0.0,4.6059,5.1773,5.9935,6.4936,6.6628,6.6667,6.6628,6.6628,6.2529,5.7772,0.0,0.0,0.0,0.0,0.0,0.0,0.0,0.0,0.0,0.0,0.0,0.0,0.0,0.0,0.0,0.0,0.0,0.0,0.0,0.0,0.0,0.0,0.0,0.0,0.0,0.0,0.0,0.0,2.9923,3.0255,2.8789,0.0,0.0,0.0,0.0,0.0,0.0,0.0,0.0,0.0,0.0,5.2926,5.5381,5.757,0.0,0.0,6.0469,6.0117,5.9805,5.9805,5.75,5.0547,4.7539,0.0,0.0,0.0,0.0,0.0,0.0,0.0,0.0,0.0,0.0,0.0,0.0,0.0,0.0,0.0,0.0,0.0,0.0,0.0,0.0,0.0,0.0,0.0,0.0,0.0,0.0,0.0,0.0,0.0,0.0,0.0,0.0,0.0,0.0,0.0,0.0,0.0,0.0,0.0,0.0,0.0,0.0,0.0,0.0,0.0,0.0,0.0,0.0,0.0,0.0,0.0,0.0,4.703,5.2175,6.0993,6.6038,6.709,6.7359,6.7359,6.7013,6.3732,5.9407,0.0,0.0,0.0,0.0,0.0,0.0,0.0,0.0,0.0,0.0,0.0,0.0,0.0,0.0,0.0,0.0,0.0,0.0,0.0,0.0,0.0,0.0,0.0,0.0,0.0,0.0,0.0,0.0,3.2226,3.1797,2.9805,0.0,0.0,0.0,0.0,0.0,0.0,0.0,0.0,0.0,0.0,5.5009,5.8402,6.0188,6.1484,6.2344,6.1797,6.1328,6.1328,6.0039,5.7383,5.2578,0.0,0.0,0.0,0.0,0.0,0.0,0.0,0.0,0.0,0.0,0.0,0.0,0.0,0.0,0.0,0.0,0.0,0.0,0.0,0.0,0.0,0.0,0.0,0.0,0.0,0.0,0.0,0.0,0.0,0.0,0.0,0.0,0.0,0.0,0.0,0.0,0.0,0.0,0.0,0.0,0.0,0.0,0.0,0.0,0.0,0.0,0.0,0.0,0.0,0.0,0.0,0.0,0.0,0.0,5.2265,6.1571,6.6615,6.7128,6.7936,6.7975,6.7128,6.541,6.1722,5.5719,0.0,0.0,0.0,0.0,0.0,0.0,0.0,0.0,0.0,0.0,0.0,0.0,0.0,0.0,0.0,0.0,0.0,0.0,0.0,0.0,0.0,0.0,0.0,0.0,0.0,0.0,3.0857,3.0937,3.0664,0.0,0.0,0.0,0.0,0.0,0.0,0.0,0.0,0.0,0.0,5.3151,5.7653,6.1088,6.2383,6.3203,6.4101,6.2109,6.0469,6.0547,6.1055,5.9609,0.0,0.0,0.0,0.0,0.0,0.0,0.0,0.0,0.0,0.0,0.0,0.0,0.0,0.0,0.0,0.0,0.0,0.0,0.0,0.0,0.0,0.0,0.0,0.0,0.0,0.0,0.0,3.5124,3.3519,0.0,0.0,0.0,0.0,0.0,0.0,0.0,0.0,0.0,0.0,0.0,4.6166,4.7831,0.0,0.0,0.0,0.0,0.0,0.0,0.0,0.0,0.0,0.0,0.0,0.0,4.9528,5.4893,6.2866,6.7641,6.8783,6.9129,6.8859,6.7975,6.6359,6.1862,5.4296,0.0,0.0,0.0,0.0,0.0,0.0,0.0,0.0,0.0,0.0,0.0,0.0,0.0,0.0,0.0,0.0,0.0,0.0,0.0,0.0,0.0,0.0,0.0,0.0,0.0,3.1584,0.0,0.0,0.0,0.0,0.0,0.0,0.0,0.0,0.0,0.0,0.0,4.676,5.1559,5.5737,5.912,6.1367,6.2969,6.418,0.0,0.0,0.0,0.0,0.0,0.0,0.0,0.0,0.0,0.0,0.0,0.0,0.0,0.0,5.0031,4.179,4.0452,4.0558,4.0285,0.0,0.0,0.0,0.0,0.0,0.0,0.0,0.0,0.0,0.0,0.0,0.0,0.0,0.0,0.0,0.0,3.8642,0.0,0.0,0.0,0.0,0.0,0.0,0.0,0.0,4.845,5.1239,5.2598,5.4227,5.4127,0.0,5.1452,4.7014,0.0,0.0,0.0,0.0,0.0,0.0,0.0,0.0,5.1258,5.6557,6.3969,6.8448,6.9629,6.9975,6.9552,6.8436,6.6179,6.1977,5.5585,5.1104,4.674,0.0,0.0,0.0,0.0,0.0,0.0,0.0,0.0,0.0,0.0,0.0,0.0,0.0,0.0,0.0,0.0,0.0,0.0,0.0,0.0,0.0,0.0,0.0,3.415,0.0,0.0,0.0,0.0,0.0,0.0,0.0,0.0,0.0,4.3281,4.7109,5.1396,5.5615,5.8683,6.0937,6.1992,0.0,0.0,0.0,0.0,0.0,0.0,0.0,5.9258,5.9219,5.789,5.6758,5.668,5.7383,5.7734,5.7148,0.0,0.0,4.8945,4.7617,4.7656,4.7383,4.8672,4.9726,4.9492,5.0586,5.1562,0.0,0.0,0.0,0.0,0.0,0.0,0.0,0.0,4.5763,4.5627,0.0,4.3903,0.0,0.0,0.0,0.0,0.0,0.0,0.0,0.0,5.6345,5.9127,5.8501,5.855,5.8534,5.8489,5.8366,5.6165,5.1818,4.4841,0.0,0.0,0.0,0.0,0.0,0.0,5.3368,5.7647,6.4819,6.896,6.9744,7.0475,7.009,6.841,6.5154,6.2183,5.9662,5.6329,5.1949,4.6129,4.1942,0.0,0.0,0.0,0.0,0.0,0.0,0.0,0.0,0.0,0.0,0.0,0.0,0.0,0.0,0.0,0.0,0.0,0.0,0.0,0.0,3.6328,0.0,0.0,0.0,0.0,0.0,0.0,0.0,0.0,0.0,0.0,4.832,5.1641,5.5703,5.9805,0.0,0.0,0.0,0.0,6.4101,6.3359,6.25,6.2031,6.207,6.332,6.3711,6.2148,0.0,0.0,6.2461,6.125,6.0312,5.8633,5.9883,6.043,5.9531,5.6992,5.5625,5.6289,5.5312,5.4687,5.5351,5.6172,5.6836,5.2963,0.0,0.0,0.0,0.0,5.0602,5.2741,5.5164,5.544,5.4341,5.2395,5.1579,0.0,0.0,0.0,0.0,0.0,0.0,5.273,5.589,5.9011,6.1266,6.2791,6.346,6.3411,6.2759,6.218,6.0627,5.8204,5.5451,4.9394,4.0323,0.0,0.0,0.0,0.0,5.6299,6.1595,6.6189,6.9152,7.0552,7.0783,7.009,6.8436,6.5718,6.3617,6.2221,5.9542,5.6176,5.2116,4.7934,0.0,0.0,0.0,0.0,0.0,0.0,0.0,0.0,0.0,0.0,0.0,0.0,0.0,0.0,0.0,0.0,0.0,0.0,0.0,3.625,3.8125,3.8672,0.0,0.0,0.0,0.0,0.0,0.0,0.0,0.0,0.0,5.7305,5.7656,5.8359,0.0,0.0,6.2773,6.2148,6.4375,6.6289,6.664,0.0,0.0,0.0,6.6094,6.5273,6.539,6.6758,6.75,6.6523,6.6601,6.668,6.6094,6.6523,6.668,6.5859,6.2578,6.0156,6.0156,6.0312,6.0469,6.0781,6.1484,6.207,6.0448,5.6137,5.435,5.3989,5.4701,5.5864,5.8072,6.0876,6.058,5.9835,5.8834,5.7695,5.5071,5.1408,4.9894,0.0,0.0,0.0,5.6906,6.0319,6.2036,6.3806,6.5576,6.6474,6.6436,6.559,6.5051,6.3935,6.2281,6.1435,5.678,4.8663,0.0,0.0,5.0069,5.4711,5.939,6.395,6.728,6.9575,7.086,7.0244,6.9436,6.8398,6.6256,6.4718,6.3847,6.2348,5.9965,5.6614,5.2794,4.8203,0.0,0.0,0.0,0.0,0.0,0.0,0.0,0.0,0.0,0.0,0.0,3.1797,2.8555,0.0,0.0,0.0,3.5351,3.8008,4.1094,4.2031,0.0,0.0,0.0,0.0,0.0,0.0,0.0,5.2344,5.6015,5.9336,6.1875,6.2539,6.2969,6.3437,6.4414,6.4883,6.4375,0.0,6.8242,6.9062,6.9609,7.0039,7.0351,6.9453,6.8945,6.9805,6.9765,6.9726,6.9726,6.9609,6.9453,6.9414,6.9453,6.9336,6.8984,6.6562,6.4687,6.4492,6.5039,6.5508,6.5586,6.5976,6.6328,6.6329,6.5022,5.9048,5.734,5.8688,5.9513,6.1168,6.3201,6.2527,6.2863,6.3785,6.2317,6.0584,5.8619,5.6412,0.0,0.0,5.9396,6.1396,6.3782,6.5359,6.65,6.7231,6.8013,6.7975,6.7192,6.7205,6.6436,6.4936,6.4089,6.2127,5.9011,5.7538,5.6631,5.656,5.9494,6.2427,6.5102,6.8075,7.0025,7.086,6.9283,6.8398,6.8398,6.6782,6.5513,6.4757,6.4564,6.3002,5.9811,5.6505,5.2487,4.7588,0.0,0.0,0.0,0.0,0.0,0.0,0.0,0.0,0.0,0.0,0.0,0.0,0.0,0.0,0.0,4.2109,0.0,4.7649,4.7225,0.0,0.0,0.0,4.7734,4.9531,5.2617,5.5234,5.6914,0.0,0.0,0.0,0.0,6.8476,6.8672,6.8555,6.8398,6.8398,6.9258,7.0195,7.0976,7.1172,7.1523,7.2305,7.2734,7.3242,7.3906,7.3242,7.2187,7.207,7.1094,7.0039,7.0117,6.9883,6.9844,6.9805,6.9765,6.9687,6.9219,6.914,6.9297,6.914,6.914,6.9101,6.8788,6.7907,6.6316,6.5049,6.4134,6.474,6.5349,6.5839,6.5687,6.5426,6.5087,6.4671,6.3757,6.251,6.2964,6.3397,6.382,6.482,6.5974,6.7205,6.7628,6.7936,6.809,6.8282,6.8294,6.8114,6.8064,6.7898,6.7513,6.7282,6.6436,6.5051,6.4614,6.2497,5.8912,6.0766,6.3729,6.7513,6.8306,6.9421,7.0783,6.9283,6.8398,6.8398,6.6782,6.582,6.559,6.4308,6.2963,6.1502,5.825,5.471,5.1024,4.447,0.0,0.0,0.0,0.0,0.0,0.0,0.0,0.0,0.0,3.8203,3.2656,0.0,4.1055,0.0,4.5703,4.8972,5.0207,5.0757,0.0,0.0,5.3203,5.4101,5.6484,5.8594,6.0273,6.1328,6.414,6.6719,6.8633,6.957,7.0859,7.2734,7.1367,7.0117,7.0156,7.2031,7.3437,7.3711,7.4726,7.5469,7.4961,7.457,7.4375,7.457,7.4258,7.3984,7.3984,7.3672,7.3398,7.3398,7.3359,7.3203,7.2695,7.3047,7.3437,7.3555,7.1562,6.9453,6.9453,6.9453,6.9453,7.0477,6.9449,6.9449,6.882,6.7815,6.7784,6.7961,6.8213,6.7863,6.7384,6.6748,6.6266,6.5724,6.5224,6.6178,6.6691,6.6691,6.7357,6.7936,6.8436,6.8783,6.8975,6.8975,6.936,6.9333,6.896,6.8948,6.8783,6.8436,6.8398,6.8167,6.7667,6.7705,6.6282,6.3628,6.4022,6.551,6.777,6.8602,6.9613,7.0821,6.9667,6.8602,6.7821,6.6577,6.5359,6.4232,6.2874,6.1632,6.0435,5.7843,5.5285,5.2679,4.7315,4.3281,0.0,0.0,0.0,0.0,0.0,0.0,0.0,0.0,0.0,0.0,0.0,4.517,0.0,5.0191,0.0,5.4441,5.5327,5.6355,5.7812,5.8711,5.9961,6.1875,6.3555,6.5078,6.6289,6.8047,6.9844,7.164,7.2539,7.3672,7.5508,7.4844,7.3867,7.332,7.4648,7.5898,7.6289,7.7148,7.7461,7.6601,7.6055,7.5742,7.5742,7.543,7.5195,7.5156,7.4844,7.457,7.457,7.457,7.4492,7.418,7.4336,7.4726,7.4687,7.3359,7.1914,7.1719,7.1719,7.1719,7.1982,7.0697,7.0697,7.0697,7.066,6.9963,6.9853,7.0036,6.9376,6.8889,6.8554,6.7723,6.7303,6.7313,6.7949,6.8226,6.8247,6.8771,6.9052,6.909,6.986,7.0167,7.0194,7.0898,7.0898,7.0217,7.0179,6.9744,6.8898,6.8898,6.8783,6.859,6.8552,6.8552,6.8552,6.7808,6.7423,6.7462,6.9167,7.0371,7.1014,7.0063,6.8756,6.7167,6.6101,6.4474,6.2221,6.1275,6.0119,5.8655,5.6989,5.5369,5.3836,4.981,4.676,0.0,4.207,0.0,0.0,0.0,0.0,0.0,0.0,0.0,0.0,4.8174,4.9921,5.198,5.5046,5.7546,5.9158,6.0112,6.1099,6.2187,6.374,6.5072,6.5976,6.7572,6.9174,7.0619,7.1679,7.2656,7.3672,7.5117,7.6367,7.7305,7.789,7.7656,7.668,7.6953,7.7695,7.8506,7.8593,7.832,7.7695,7.7539,7.7461,7.7305,7.6797,7.6211,7.6094,7.5469,7.5,7.5,7.5039,7.5,7.4922,7.4961,7.4961,7.5078,7.4922,7.4687,7.4414,7.4297,7.457,7.4258,7.4001,7.4001,7.4001,7.4001,7.3817,7.2386,7.0073,6.9963,6.9835,6.9814,7.0027,7.0001,6.9916,7.1103,7.1522,7.1363,7.2178,7.2552,7.2552,7.2706,7.2773,7.28,7.2965,7.2937,7.2783,7.2783,7.2322,7.1475,7.1475,7.0783,6.9475,6.9475,6.9436,0.0,0.0,0.0,0.0,7.086,7.1811,7.186,6.9783,6.8167,6.709,6.4946,0.0,6.2156,6.1289,6.0663,6.0299,5.8701,0.0,0.0,0.0,0.0,0.0,0.0,0.0,0.0,0.0,0.0,0.0,5.2094,5.1452,4.9763,5.3925,5.6907,5.7328,5.9634,6.1533,6.2502,6.4001,6.532,6.6221,6.7316,6.8093,6.8327,6.9835,7.1042,7.1327,7.2812,7.4453,7.5898,7.668,7.7461,7.8727,7.9133,7.9033,7.8585,7.8768,7.8956,7.9024,7.9125,7.918,7.9023,7.9062,7.8828,7.8437,7.8164,7.7734,7.7109,7.6875,7.6719,7.668,7.668,7.6719,7.6719,7.6719,7.6719,7.6719,7.6719,7.6289,7.4922,7.4609,7.457,7.5249,0.0,7.4918,7.4918,0.0,7.4918,7.4001,7.2496,7.2459,7.2018,7.1248,7.0753,7.0434,7.0336,7.1357,7.1823,7.2074,7.2734,7.3193,7.3514,7.3514,7.3476,7.3465,7.3476,7.3486,7.3486,7.3486,7.3283,7.286,7.286,7.2399,7.1591,7.1591,7.1552,7.1591,7.1964,7.1783,7.093,7.1766,7.2284,7.2333,7.1439,6.9749,6.7391,0.0,0.0,0.0,0.0,0.0,0.0,0.0,0.0,0.0,0.0,0.0,5.3839,5.2644,5.2026,5.2176,5.3704,5.5237,5.6575,5.8655,5.8478,5.5232,5.8793,6.1518,6.2324,6.3783,6.5026,6.5846,6.6742,6.7614,6.8539,6.9463,7.0194,7.0793,7.1915,7.2883,7.3446,7.4554,7.5924,7.7176,7.7848,7.857,7.9692,7.9874,7.9981,8.0164,8.0018,7.9856,7.9748,7.9816,7.9726,7.9361,7.9414,7.9492,7.9023,7.9023,7.8906,7.8515,7.8437,7.8437,7.8437,7.8437,7.8437,7.8437,7.8437,7.8437,7.8437,7.8437,7.8203,7.7226,7.6484,7.6015,7.635,7.5763,7.5763,7.5763,7.5763,7.5616,7.5469,7.5322,0.0,0.0,0.0,7.1521,7.0973,7.0919,7.139,7.179,7.226,7.2813,7.3246,7.3653,7.3752,7.3735,7.364,7.3637,7.3684,7.3803,7.3812,7.3735,7.3745,7.3745,7.3668,7.3514,7.3514,7.3591,7.3783,7.4543,7.4255,7.2967,7.2707,7.2709,7.2841,7.3021,7.1379,6.7817,6.7936,6.6281,6.2721,6.1697,6.0589,5.9249,5.8381,5.7905,5.7896,5.7742,5.7978,5.8659,5.8886,5.9034,5.9134,6.0175,6.0955,6.1365,6.4065,6.4386,6.1236,6.3085,6.4975,6.6396,6.7141,6.7924,6.8744,6.8987,6.9487,7.0448,7.1168,7.1937,7.2755,7.3745,7.4581,7.537,7.6313,7.729,7.8127,7.8862,7.9639,8.0359,8.0589,8.0823,8.1285,8.0931,8.0516,8.05,8.054,8.0343,7.9757,7.9754,7.9767,7.9648,7.9726,7.9759,7.9687,7.9648,7.9648,7.957,7.9687,7.9648,7.9687,7.9609,7.9726,7.9726,7.9726,7.9726,7.9609,7.8633,7.789,7.9176,7.9103,7.9103,7.9103,7.9029,7.8369,7.7671,7.69,7.5542,7.4771,7.4551,7.4368,7.4126,7.3982,7.4085,7.4036,7.3997,7.4486,7.4562,0.0,7.4674,7.4604,7.4196,7.4181,7.4409,7.4849,7.4872,7.4752,7.4562,7.4553,7.4207,7.363,7.3514,7.386,7.4543,7.5361,7.5707,7.5447,7.4755,7.412,7.3718,7.2304,7.0639,6.8701,6.7364,6.591,6.4306,6.3461,6.286,6.2592,6.1837,6.1401,6.1358,6.071,6.0325,6.0473,6.1156,6.1569,6.1645,6.3719,6.5666,6.7064,6.7679,6.7166,6.5495,6.6858,6.7922,6.8125,6.8883,6.964,7.0475,7.1217,7.1909,7.2794,7.3091,7.3283,7.3514,7.4822,7.5784,7.6015,7.7438,7.8776,7.9461,7.9952,8.0453,8.108,8.1368,8.1516,8.1939,8.1477,8.1054,8.1016,8.117,8.1193,8.0944,8.1214,8.0971,8.0387,8.0312,8.0202,7.9726,7.9648,7.9687,7.9726,7.9883,7.9844,7.9805,7.9726,7.9844,7.9922,7.9922,7.9883,7.9922,7.957,7.9414,7.98,7.98,7.98,7.98,7.9764,7.9396,7.9029,7.8589,7.7904,7.6741,7.5542,7.5092,7.4831,7.4755,7.4774,7.4896,7.5106,7.5351,7.5525,7.5614,7.583,7.5814,7.5589,7.5565,7.5713,7.5977,7.631,7.6382,7.6322,7.6586,7.6553,7.6245,7.6207,7.639,7.6765,7.715,7.7214,7.6846,7.5577,7.4675,7.4101,7.3313,7.2095,7.0421,6.987,6.8953,6.7423,6.6973,6.6332,6.5385,6.5025,6.4821,6.4782,6.4449,6.4449,6.4908,6.5282,6.5513,6.5513,6.6576,6.7806,6.9013,6.9513,6.9694,6.9451,6.9694,7.0025,7.042,7.1255,7.1909,7.2283,7.2678,7.3255,7.4053,7.4553,7.5053,7.5592,7.6592,7.7323,7.7438,7.8515,7.9477,7.9862,8.0439,8.1054,8.1747,8.2247,8.267,8.2939,8.2708,8.2285,8.1862,8.1823,8.167,8.1362,8.14,8.135,8.0987,8.105,8.0971,8.0681,8.0637,8.064,8.0782,8.0836,8.0937,8.0937,8.1054,8.1094,8.1094,8.1133,8.1133,8.1133,8.1133,8.0937,8.0351,8.0314,8.0314,8.0241,8.0057,8.0057,7.9947,7.9764,7.9742,7.8713,7.6974,7.6118,7.5532,7.5212,7.5175,7.5322,7.5568,7.5745,7.5968,7.6279,7.646,7.6432,7.632,7.629,7.6372,7.6544,7.6968,7.7298,7.7608,7.8041,7.8384,7.8477,7.8477,7.8507,7.8498,7.8382,7.8088,7.7552,7.6082,7.5055,7.4636,7.464,7.3845,7.2215,7.2657,7.2118,7.0475,7.0321,6.9602,6.8371,6.8087,6.7972,6.7975,6.7808,6.7988,6.8604,6.8681,6.8873,6.922,6.9256,6.9613,7.0475,7.1129,7.1926,7.2827,7.2426,7.214,7.2534,7.3409,7.4053,7.413,7.4514,7.4899,7.5515,7.613,7.6784,7.7476,7.8284,7.8784,7.89,7.9708,8.04,8.0516,8.1093,8.19,8.2554,8.3362,8.3862,8.3901,8.4016,8.3785,8.3131,8.2747,8.2401,8.1785,8.1862,8.1893,8.167,8.1701,8.1677,8.1571,8.1562,8.164,8.16,8.1767,8.1758,8.1875,8.1992,8.2031,8.1992,8.1992,8.2109,8.2148,8.2148,8.207,8.1929,8.1966,8.1893,8.1562,8.0901,8.0901,8.0498,7.9874,7.9863,7.969,7.9286,7.8614,7.7402,7.6093,7.6019,7.5749,7.5242,7.5568,7.5642,7.5306,7.5639,7.5622,7.5306,7.5153,7.5345,7.5946,7.6084,7.6722,7.7684,7.776,7.8011,7.8446,7.8477,7.8554,7.8477,7.8015,7.7712,7.7597,7.6364,7.5754,7.5664,7.5641,7.4903,7.3242,7.3733,7.3498,7.2419,7.2091,7.1887,7.1695,7.092,7.0536,7.0475,6.986,6.9502,6.9617,6.9629,7.0217,7.164,7.1842,7.2188,7.3053,7.3206,7.3966,7.5418,7.5543,7.4832,7.411,7.4909,7.5707,7.5861,7.7015,7.7707,7.7746,7.8054,7.8323,7.8515,7.9169,7.9669,7.9669,8.1093,8.2086,8.2054,8.2701,8.3317,8.3478,8.4209,8.4786,8.4824,8.5247,8.5363,8.467,8.4055,8.3516,8.3247,8.3362,8.2939,8.2362,8.2247,8.2131,8.1886,8.1685,8.1514,8.2057,8.1926,8.1995,8.1943,8.1792,8.1956,8.2417,8.2383,8.2226,8.2265,8.2461,8.2422,8.2186,8.2186,8.2186,8.2003,8.1709,8.1709,8.1525,8.1232,8.1195,8.0975,8.0498,8.0167,7.9396,7.8295,7.8295,7.8075,7.7843,7.8072,7.8049,7.7843,7.8072,7.8035,7.7781,7.7329,7.7231,7.7402,7.733,7.7692,7.8571,7.9283,7.9818,8.0015,8.0015,8.0054,7.9977,7.9438,7.8942,7.8535,7.774,7.7059,7.6596,7.5749,7.508,7.4874,7.5329,7.5418,7.4866,7.4553,7.4207,7.3707,7.288,7.2458,7.2409,7.2129,7.1937,7.1953,7.1948,7.2227,7.2919,7.338,7.4063,7.4899,7.5438,7.6275,7.7343,7.7468,7.7139,7.6724,7.7062,7.7476,7.7553,7.8092,7.8477,7.8554,7.8938,7.9477,8.0015,8.0785,8.1439,8.1977,8.2624,8.3086,8.317,8.3856,8.4318,8.4478,8.5093,8.5555,8.5632,8.5901,8.594,8.567,8.5286,8.4632,8.3901,8.3593,8.3439,8.3208,8.3054,8.2901,8.2747,8.267,8.2778,8.2785,8.2817,8.2909,8.3076,8.3153,8.3274,8.3353,8.3633,8.375,8.3828,8.3828,8.3828,8.2186,8.2186,8.2186,8.2186,8.2186,8.2186,8.2186,8.2186,8.2186,8.1856,8.1379,8.1351,8.0984,8.0461,8.0021,7.98,7.98,7.98,7.98,7.98,7.98,7.979,7.9731,7.9202,7.8945,7.8922,7.875,7.9103,7.9924,8.1152,8.1785,8.1785,8.1785,8.1785,8.167,8.0977,8.0342,7.9852,7.8897,7.8137,7.7524,7.6276,7.5662,7.594,7.6622,7.6867,7.6446,7.6586,7.6408,7.5784,7.5178,7.4793,7.4553,7.4553,7.4543,7.4533,7.4553,7.4649,7.4841,7.5408,7.6024,7.6669,7.7323,7.8006,7.869,7.9084,7.9323,7.953,7.9754,7.9785,7.893,7.9246,7.9515,7.9592,8.0323,8.1131,8.1747,8.2362,8.2862,8.3478,8.374,8.4087,8.4286,8.4824,8.5209,8.5286,8.5709,8.6094,8.6094,8.6094,8.6094,8.6094,8.6094,8.5593,8.4516,8.4401,8.4247,8.3978,8.3939,8.3862,8.3708,8.3593,8.3555,8.3247,8.3664,8.3772,8.3479,8.3765,8.4134,8.4353,8.4609,8.4765,8.457,8.4765,8.4844,8.2186,8.2186,8.2186,8.2186,8.2186,8.2186,8.2186,8.2186,8.2186,8.215,8.2076,8.2076,8.2113,8.1893,8.0534,7.9837,7.9837,7.991,7.9947,7.9947,7.991,7.9837,7.9764,7.9764,7.9727,7.9727,7.9632,8.0225,8.1462,8.2797,8.3478,8.3439,8.3324,8.3394,8.3156,8.2086,8.1596,8.1205,7.9559,7.8578,7.8442,7.7671,7.69,7.647,7.7218,7.7478,7.6992,7.7788,7.8331,7.8305,7.8122,7.7784,7.716,7.7053,7.7006,7.7025,7.7083,7.737,7.7977,7.8169,7.8323,7.84,7.8631,7.893,7.9922,8.0623,8.1246,8.2023,8.2554,8.2131,8.0431,8.1093,8.19,8.1977,8.2785,8.3247,8.3401,8.3439,8.3516,8.3824,8.4433,8.5049,8.5786,8.6017,8.594,8.594,8.6055,8.6094,8.6094,8.6094,8.6094,8.6094,8.6094,8.6055,8.594,8.5593,8.5363,8.5093,8.4747,8.4632,8.4016,8.3593,8.367,8.3708,8.3978,8.4016,8.3747,8.3765,8.4069,8.4374,8.4786,8.4922,8.5234,8.4961,8.5078,8.2186,8.2186,8.2186,8.2186,8.2186,8.2186,8.2186,8.2186,8.2186,8.2186,8.2186,8.2186,8.2186,8.215,8.1599,8.1305,8.1305,8.1305,8.1342,8.1342,8.1342,8.1342,8.1269,8.0791,8.0571,8.0507,8.003,8.0444,8.1688,8.2988,8.3593,8.3593,8.3593,8.3401,8.2901,8.2131,8.1474,8.096,7.992,7.9407,7.936,7.9029,7.8736,7.8479,7.8247,7.8182,7.833,7.8596,7.8915,7.9323,7.8831,7.8408,7.81,7.8054,7.8083,7.8083,7.8062,7.8185,7.8569,7.9554,8.0169,8.0254,8.1208,8.1778,8.2194,8.2509,8.2862,8.3138,8.3401,8.3016,8.2676,8.2824,8.3131,8.3176,8.3401,8.3862,8.4286,8.4439,8.4632,8.5093,8.5517,8.5786,8.5978,8.6094,8.6094,8.6094,8.6094,8.6094,8.6094,8.6094,8.6094,8.6094,8.6094,8.6094,8.6094,8.6055,8.594,8.5824,8.5632,8.5555,8.517,8.5016,8.5055,8.4978,8.4939,8.4901,8.4863,8.501,8.509,8.5246,8.5602,8.5595,8.6015,8.5788,8.5877,8.2186,8.2186,8.2186,8.2186,8.2186,8.2186,8.2186,8.2186,8.2186,8.2186,8.2186,8.2186,8.2186,8.2186,8.2186,8.2186,8.2186,8.2186,8.2186,8.2186,8.2186,8.2186,8.2113,8.17,8.1379,8.1443,8.1353,8.1717,8.2529,8.3792,8.4368,8.4439,8.4401,8.4093,8.3413,8.2828,8.2161,8.1501,8.0634,8.0223,8.0167,7.992,7.9773,7.969,7.9129,7.9194,7.994,8.0049,8.0369,8.0862,8.0446,7.9992,7.9722,7.9208,7.9199,7.9631,7.9754,7.9876,8.0184,8.1253,8.19,8.1907,8.2862,8.3587,8.3618,8.3856,8.3984,8.4061,8.4291,8.4401,8.4407,8.4407,8.4324,8.4138,8.4247,8.4632,8.517,8.5286,8.5517,8.5863,8.6017,8.6055,8.6094,8.6094,8.6094,8.6094,8.6094,8.6094,8.6094,8.6094,8.6094,8.6094,8.6094,8.6094,8.6094,8.6094,8.6094,8.5978,8.594,8.6055,8.6094,8.6094,8.6094,8.6094,8.6094,8.6094,8.617,8.6247,8.6324,8.6401,8.6315,8.6184,8.6437,8.6644,8.6532,8.226,8.2333,8.2223,8.237,8.2406,8.2443,8.2296,8.2296,8.226,8.226,8.2223,8.2186,8.2186,8.2186,8.2186,8.2186,8.2186,8.2186,8.2186,8.2186,8.2186,8.2186,8.2186,8.2113,8.2076,8.2141,8.3468,8.4054,8.4039,8.5169,8.5863,8.5978,8.5791,8.5296,8.4983,8.4191,8.3651,8.2792,8.1607,8.1057,8.0874,8.0369,8.0076,7.9984,7.9874,8.043,8.1636,8.2095,8.2509,8.3202,8.3317,8.3093,8.2016,8.0854,8.0585,8.1816,8.2208,8.2599,8.3247,8.3401,8.3478,8.3516,8.367,8.3862,8.4016,8.4516,8.4901,8.4983,8.5445,8.594,8.5901,8.5863,8.5593,8.5099,8.544,8.5824,8.5978,8.6055,8.6094,8.6094,8.6094,8.6094,8.6094,8.6094,8.6094,8.6094,8.6094,8.6094,8.6094,8.6094,8.6094,8.6094,8.6094,8.6094,8.6094,8.6094,8.6094,8.6094,8.6055,8.6094,8.6094,8.6094,8.6094,8.6094,8.6094,8.6094,8.6094,8.617,8.617,8.6209,8.6396,8.6473,8.6508,8.6539,8.6615,8.3838,8.3838,8.3838,8.3838,8.3838,8.3838,8.3581,8.303,8.3023,8.2729,8.226,8.2186,8.2186,8.2186,8.2186,8.2186,8.2186,8.2186,8.2186,8.2223,8.2186,8.2186,8.2186,8.2186,8.2186,8.2434,8.3543,8.4179,8.4458,8.5475,8.6094,8.606,8.5664,8.5089,8.4498,8.3829,8.3151,8.2555,8.2076,8.1856,8.1819,8.1571,8.1424,8.1452,8.1452,8.1847,8.2644,8.226,8.2534,8.3561,8.3599,8.3484,8.3131,8.2701,8.2663,8.3118,8.3202,8.3253,8.3599,8.4209,8.4478,8.4593,8.4978,8.5286,8.5324,8.5517,8.5709,8.5709,8.5978,8.6094,8.6094,8.6094,8.5978,8.5786,8.5978,8.6094,8.6094,8.6094,8.6094,8.6094,8.6094,8.6094,8.6094,8.6094,8.6094,8.6094,8.6094,8.6094,8.6094,8.6094,8.6094,8.6094,8.6094,8.6094,8.6094,8.6094,8.6094,8.6094,8.6094,8.6094,8.6094,8.6094,8.6094,8.6094,8.6094,8.6094,8.6094,8.6094,8.6094,8.6094,8.6209,8.6247,8.6247,8.6324,8.6401,8.4609,8.4609,8.4609,8.4609,8.4609,8.4609,8.4315,8.3875,8.386,8.3566,8.3104,8.2802,8.2839,8.2957,8.2774,8.281,8.303,8.281,8.2627,8.2553,8.226,8.2186,8.2186,8.2186,8.2186,8.2434,8.3543,8.4179,8.4265,8.5437,8.5954,8.5664,8.532,8.4663,8.3906,8.3415,8.289,8.2297,8.2186,8.2186,8.2186,8.2186,8.2186,8.2186,8.2186,8.2545,8.3107,8.2796,8.3091,8.3969,8.4105,8.4099,8.4093,8.3785,8.374,8.401,8.4125,8.4214,8.4522,8.5093,8.5363,8.544,8.5824,8.6094,8.6094,8.6094,8.6094,8.6094,8.6094,8.6094,8.6094,8.6094,8.6094,8.6094,8.6094,8.6094,8.6094,8.6094,8.6094,8.6094,8.6094,8.6094,8.6094,8.6094,8.6094,8.6094,8.6094,8.6094,8.6094,8.6094,8.6132,8.6132,8.6094,8.6094,8.6094,8.6094,8.6094,8.6094,8.6094,8.6094,8.6094,8.6094,8.6094,8.6094,8.6094,8.6094,8.6094,8.6094,8.6094,8.6094,8.6094,8.6132,8.617,8.6132,8.6209,8.4756,8.4719,8.4756,8.4866,8.4866,8.4866,8.4792,8.4646,8.4632,8.4559,8.4382,8.3757,8.3831,8.4242,8.3728,8.3801,8.4315,8.3801,8.3471,8.3287,8.2847,8.248,8.2223,8.2186,8.2186,8.2407,8.3543,8.4179,8.4265,8.5475,8.5775,8.5202,8.5041,8.4436,8.3455,8.3175,8.2781,8.227,8.2186,8.2186,8.2186,8.2186,8.2186,8.2186,8.2186,8.2508,8.3006,8.3566,8.4331,8.501,8.5022,8.4945,8.4824,8.4176,8.4286,8.4895,8.4978,8.5291,8.5863,8.5901,8.5978,8.5978,8.617,8.6132,8.6132,8.6247,8.6247,8.6132,8.6094,8.6132,8.6209,8.6286,8.6324,8.6286,8.6247,8.617,8.6209,8.6247,8.6401,8.6401,8.6286,8.6286,8.6478,8.6478,8.6478,8.6478,8.6517,8.6594,8.6594,8.6709,8.6401,8.644,8.6632,8.644,8.6555,8.6132,8.6132,8.6094,8.6094,8.6132,8.6094,8.6094,8.6094,8.6094,8.6094,8.6094,8.6094,8.6094,8.6094,8.6094,8.6094,8.6094,8.6094,8.6094,8.6094,8.6371,8.6371,8.6371,8.6371,8.6371,8.6371,8.6004,8.5527,8.549,8.5196,8.4719,8.44,8.4431,8.4572,8.4425,8.4425,8.4572,8.4389,8.4278,8.4278,8.4095,8.3214,8.2406,8.2186,8.2223,8.2481,8.3692,8.4179,8.4276,8.5552,8.5739,8.5121,8.4651,8.407,8.3276,8.2705,8.24,8.2215,8.2186,8.2186,8.2223,8.2223,8.2186,8.2186,8.2223,8.2333,8.2618,8.359,8.4706,8.5762,8.5824,8.5786,8.5709,8.5478,8.544,8.5709,8.5786,8.5863,8.6094,8.617,8.6132,8.617,8.6786,8.6786,8.617,8.6709,8.6671,8.6324,8.6094,8.6401,8.6935,8.7089,8.7319,8.7748,8.6978,8.6478,8.694,8.7094,8.7248,8.7863,8.7902,8.7863,8.7825,8.7863,8.7863,8.7863,8.7825,8.7825,8.7671,8.7709,8.7555,8.7632,8.7709,8.7286,8.694,8.6401,8.6132,8.6094,8.6132,8.6209,8.617,8.6094,8.6094,8.6094,8.6094,8.6094,8.6094,8.6094,8.6094,8.6094,8.6094,8.6094,8.6094,8.6094,8.6094,8.7031,8.7031,8.7031,8.7031,8.7031,8.7031,8.6738,8.6371,8.6302,8.6045,8.5568,8.5243,8.528,8.56,8.527,8.5343,8.5527,8.527,8.5086,8.5049,8.4719,8.4088,8.3353,8.3206,8.3214,8.3374,8.4553,8.4959,8.5025,8.6011,8.5896,8.4861,8.4372,8.374,8.2742,8.2425,8.2186,8.2186,8.2186,8.2333,8.2663,8.27,8.2957,8.3104,8.3177,8.328,8.3704,8.4395,8.51,8.5622,8.5901,8.6094,8.6094,8.6094,8.6247,8.6555,8.6632,8.6786,8.7132,8.7209,8.7209,8.7286,8.7748,8.7671,8.7401,8.7671,8.7632,8.7325,8.7209,8.7473,8.7781,8.7974,8.8171,8.8406,8.7786,8.7401,8.7902,8.794,8.8171,8.8517,8.8671,8.8671,8.8709,8.8709,8.8709,8.8671,8.8517,8.8556,8.8556,8.8709,8.8748,8.8709,8.8517,8.8132,8.7902,8.7478,8.7171,8.7017,8.6901,8.6863,8.644,8.6324,8.6247,8.6247,8.617,8.6132,8.6209,8.6209,8.6094,8.6094,8.6094,8.6094,8.6094,8.6094,8.6094,8.7031,8.7031,8.7031,8.7031,8.7031,8.7031,8.6995,8.6995,8.6958,8.6921,8.6775,8.6159,8.6265,8.6958,8.6187,8.6297,8.6885,8.6187,8.5967,8.5747,8.538,8.4896,8.4853,8.4389,8.4321,8.4551,8.5938,8.6039,8.5933,8.6814,8.6312,8.511,8.4582,8.3769,8.3078,8.2647,8.2508,8.2627,8.2708,8.303,8.3434,8.3581,8.3735,8.4205,8.4345,8.4559,8.5022,8.5434,8.5489,8.5169,8.5846,8.6363,8.6401,8.644,8.6748,8.7358,8.7555,8.7863,8.844,8.8444,8.856,8.8517,8.8632,8.8748,8.8594,8.8632,8.8671,8.8402,8.8632,8.8589,8.882,8.8902,8.9098,8.9252,8.9017,8.8979,8.894,8.8863,8.8825,8.894,8.8979,8.8979,8.8979,8.8979,8.9017,8.9633,8.9517,8.9556,8.9556,8.9594,8.9556,8.9363,8.9171,8.8863,8.8748,8.8632,8.844,8.8248,8.8132,8.7902,8.7094,8.6824,8.6594,8.6478,8.6478,8.6478,8.6478,8.6401,8.6247,8.6094,8.6094,8.6094,8.6094,8.6094,8.6094,8.7031,8.7031,8.7031,8.7031,8.7031,8.7031,8.7031,8.7068,8.7068,8.7142,8.6995,8.6779,8.6885,8.6995,8.6848,8.6885,8.7068,8.6848,8.6738,8.6738,8.6628,8.6481,8.6151,8.528,8.4698,8.5058,8.5994,8.6467,8.6614,8.7034,8.7046,8.6165,8.5354,8.4875,8.4156,8.3889,8.4081,8.4095,8.4034,8.4034,8.4242,8.4389,8.4468,8.4725,8.4719,8.4749,8.4933,8.5343,8.55,8.5744,8.6564,8.7386,8.7756,8.794,8.8128,8.8282,8.8435,8.8521,8.8752,8.8871,8.8752,8.8979,8.9556,8.9367,8.8786,8.944,8.9325,8.8902,8.8709,8.9171,8.959,9.0287,9.0406,9.0444,9.0479,9.0517,9.0517,9.0056,8.994,9.0364,9.0517,9.0633,9.0594,9.0479,9.0517,9.0633,9.0594,9.0633,9.0556,9.0441,9.0287,9.0094,8.9902,8.9671,8.9594,8.9517,8.9363,8.9325,8.9248,8.9171,8.8325,8.7632,8.7517,8.7209,8.6863,8.6901,8.7094,8.6671,8.6517,8.6324,8.617,8.617,8.6209,8.617,8.6247,8.7912,8.7619,8.7986,8.7912,8.7655,8.7949,8.8133,8.8133,8.8092,8.7909,8.7582,8.7615,8.7325,8.7068,8.7399,8.7545,8.7582,8.7582,8.7582,8.7472,8.7215,8.6995,8.6958,8.6265,8.5756,8.5919,8.7116,8.7509,8.7462,8.7733,8.768,8.6631,8.5957,8.5176,8.469,8.4632,8.4566,8.451,8.4625,8.4735,8.5086,8.5159,8.5422,8.5642,8.5747,8.5747,8.5857,8.6045,8.6449,8.6812,8.7473,8.7893,8.8232,8.8528,8.8859,8.9205,8.9248,8.9556,8.9752,9.0252,9.0594,9.0441,9.1248,9.1364,9.121,9.1479,9.1248,9.071,9.0517,9.0594,9.0517,9.0787,9.1171,9.121,9.121,9.121,9.1133,9.0787,9.0633,9.1095,9.1095,9.1095,9.1171,9.121,9.1171,9.0902,9.0902,9.0941,9.0941,9.0864,9.0941,9.0825,9.0671,9.0517,9.0441,9.0364,9.021,9.021,9.0287,9.0248,8.994,8.9248,8.8632,8.8248,8.7825,8.7825,8.7863,8.7363,8.7017,8.6901,8.6786,8.6517,8.6324,8.6324,8.6555,8.9014,8.8426,8.9124,8.9014,8.8536,8.9087,8.9307,8.9344,8.9375,8.8934,8.8463,8.8386,8.8092,8.7692,8.8096,8.8353,8.839,8.839,8.839,8.8316,8.7876,8.7655,8.7509,8.7472,8.7399,8.7494,8.8334,8.8541,8.8331,8.8511,8.8246,8.7057,8.6196,8.5741,8.5184,8.5013,8.5275,8.5504,8.5544,8.5866,8.6476,8.6586,8.6885,8.7252,8.7394,8.7394,8.7394,8.7504,8.7688,8.8202,8.8419,8.8376,8.8436,8.873,8.947,9.0244,9.0556,9.1018,9.1556,9.2133,9.2553,9.271,9.3172,9.3557,9.348,9.3287,9.3018,9.2749,9.2402,9.221,9.1672,9.1787,9.1748,9.171,9.1633,9.1595,9.1595,9.1556,9.1633,9.1171,9.121,9.121,9.121,9.121,9.121,9.121,9.1248,9.1248,9.1287,9.1248,9.1287,9.121,9.0979,9.0902,9.0864,9.0787,9.071,9.0748,9.0941,9.0941,9.0941,9.0441,8.971,8.9286,8.8979,8.8825,8.8632,8.8325,8.7979,8.7709,8.7555,8.744,8.7055,8.6594,8.694,8.9344,8.9234,8.9344,8.9344,8.9234,8.9381,8.9491,8.9417,8.9491,8.9344,8.9234,8.9197,8.9124,8.9014,8.9087,8.9234,8.9307,8.9271,8.9197,8.9197,8.8867,8.879,8.875,8.8683,8.8796,8.8981,8.9227,8.9039,8.8994,8.896,8.8985,8.8425,8.7452,8.6728,8.666,8.6664,8.6921,8.7222,8.7298,8.7732,8.8272,8.846,8.85,8.8757,8.868,8.875,8.8893,8.8966,8.9044,8.9268,8.9739,9.0217,9.0509,9.0714,9.1213,9.1861,9.2402,9.2749,9.3018,9.3326,9.348,9.3518,9.3787,9.3826,9.3826,9.3787,9.3864,9.3595,9.3477,9.3361,9.3361,9.3018,9.321,9.3249,9.3095,9.3095,9.3133,9.3018,9.2556,9.1787,9.1479,9.1402,9.1633,9.1748,9.1787,9.1864,9.1825,9.1787,9.1748,9.1595,9.1441,9.1325,9.1171,9.1133,9.1133,9.1095,9.1056,9.1018,9.1095,9.1095,9.1095,9.1133,9.0748,9.021,8.971,8.9363,8.9171,8.9171,8.8902,8.8556,8.8479,8.8402,8.7979,8.7555,8.794,9.0408,9.0078,9.0482,9.0408,9.0152,9.0482,9.0665,9.0629,9.0629,9.0408,9.0152,9.0006,8.975,8.9638,8.9895,9.0225,9.0482,9.0152,9.0078,8.9968,8.9638,8.9344,8.9485,8.9454,8.9348,8.9445,8.9622,8.9797,8.9835,8.9835,8.9817,8.9601,8.8745,8.8276,8.8272,8.8272,8.8386,8.8757,8.8869,8.8979,8.9408,8.9417,8.9456,8.9417,8.9451,8.9412,8.9341,8.9381,8.9346,8.9421,8.9748,9.0284,9.1019,9.1819,9.2444,9.3056,9.3557,9.3751,9.3828,9.4057,9.44,9.4441,9.4711,9.5018,9.5057,9.5095,9.4788,9.4403,9.3828,9.371,9.3633,9.3751,9.3674,9.3674,9.3749,9.3787,9.3749,9.3749,9.3249,9.2633,9.271,9.2749,9.2633,9.2672,9.2556,9.2518,9.2441,9.2364,9.2287,9.221,9.2095,9.1825,9.171,9.1479,9.1441,9.1402,9.1402,9.1364,9.1402,9.1364,9.1402,9.1518,9.1325,9.0941,9.0441,9.0094,9.0171,9.0287,8.9863,8.944,8.9325,8.921,8.8825,8.8709,8.9017,9.14,9.0886,9.1546,9.1436,9.0996,9.151,9.1767,9.1803,9.173,9.14,9.0922,9.0813,9.0483,9.0225,9.0555,9.1179,9.173,9.1069,9.0886,9.0739,9.0372,8.9896,8.9931,8.986,9.0043,9.0262,9.0489,9.0674,9.0404,9.0367,9.0454,9.0154,8.9756,8.9415,8.9264,8.9117,8.9445,8.9598,8.9603,8.9676,8.9856,8.986,8.9898,8.9895,8.9895,8.9968,9.0078,9.0116,9.0081,9.0081,9.0116,9.0287,9.1124,9.2337,9.3331,9.3866,9.4136,9.4214,9.4443,9.4826,9.5286,9.5288,9.5903,9.6172,9.6211,9.5942,9.5903,9.5288,9.4789,9.4405,9.4482,9.4328,9.4328,9.4328,9.4364,9.4249,9.4403,9.4518,9.4595,9.4249,9.421,9.3903,9.3557,9.3287,9.3133,9.3133,9.3056,9.3095,9.3056,9.321,9.3056,9.2672,9.2364,9.1941,9.1787,9.171,9.1748,9.1787,9.1825,9.1864,9.1941,9.1979,9.1825,9.1748,9.1556,9.1287,9.1364,9.121,9.0633,9.0287,9.021,9.0056,8.9863,8.971,8.9863,9.173,9.1657,9.173,9.173,9.1657,9.1767,9.1803,9.1803,9.1803,9.1767,9.1546,9.162,9.151,9.1436,9.1473,9.1693,9.173,9.1657,9.151,9.1436,9.1326,9.1253,9.14,9.151,9.1253,9.1143,9.1434,9.1185,9.0843,9.06,9.0552,9.0434,9.002,8.9491,8.9711,8.9782,8.9821,9.0336,9.0447,9.0813,9.1326,9.151,9.1546,9.1546,9.151,9.1436,9.1363,9.14,9.1327,9.129,9.1363,9.1827,9.2654,9.3487,9.4254,9.4982,9.552,9.598,9.5942,9.6057,9.6134,9.6095,9.6288,9.6288,9.6288,9.6288,9.6211,9.6211,9.5942,9.5788,9.5672,9.5865,9.5942,9.5826,9.5595,9.5672,9.5749,9.5288,9.5365,9.5441,9.5288,9.4634,9.4172,9.3903,9.3672,9.3672,9.371,9.3826,9.3864,9.4018,9.398,9.3595,9.3095,9.2672,9.2479,9.2364,9.2326,9.2326,9.2402,9.2479,9.2595,9.271,9.271,9.2633,9.2441,9.2056,9.1672,9.1402,9.121,9.0979,9.071,9.0825,9.1018,9.0902,9.0671,9.1803,9.1803,9.1803,9.1803,9.1803,9.1803,9.1803,9.1803,9.1803,9.1803,9.1803,9.1803,9.1803,9.1803,9.1803,9.1803,9.1803,9.1803,9.1803,9.1803,9.1803,9.1803,9.1767,9.1767,9.1803,9.1913,9.1767,9.1617,9.1301,9.1296,9.1228,9.1191,9.0916,9.0849,9.0667,9.0776,9.0996,9.1363,9.173,9.217,9.2537,9.2941,9.3161,9.3161,9.3125,9.2941,9.2611,9.2501,9.2243,9.195,9.1803,9.2206,9.2959,9.3787,9.4632,9.5905,9.6631,9.698,9.6942,9.698,9.698,9.6826,9.6634,9.6288,9.6288,9.6365,9.6365,9.6288,9.6288,9.6326,9.6326,9.6288,9.6288,9.6326,9.648,9.6326,9.6326,9.6288,9.6134,9.6249,9.6249,9.5518,9.5018,9.498,9.4903,9.4941,9.5018,9.5095,9.498,9.4826,9.4711,9.448,9.3941,9.3403,9.3287,9.3172,9.3172,9.3172,9.3172,9.3287,9.3403,9.348,9.3557,9.348,9.3249,9.2749,9.2056,9.1595,9.1325,9.1248,9.1171,9.1248,9.1325,9.1287,9.1095,9.1803,9.1803,9.1803,9.1803,9.1803,9.1803,9.1803,9.1803,9.1803,9.1803,9.1803,9.1803,9.1803,9.1803,9.1803,9.1803,9.1803,9.1803,9.1803,9.1803,9.1803,9.1913,9.2134,9.2134,9.2317,9.2391,9.2648,9.2574,9.2574,9.2464,9.239,9.2134,9.1729,9.1877,9.206,9.206,9.2207,9.2574,9.3088,9.3345,9.3455,9.3894,9.4189,9.4189,9.4264,9.4044,9.3529,9.3345,9.2978,9.2684,9.2574,9.2978,9.3492,9.4446,9.5335,9.6476,9.7477,9.8326,9.8173,9.8057,9.7865,9.7634,9.7403,9.7134,9.7057,9.6903,9.6711,9.6749,9.6673,9.6673,9.6596,9.6634,9.6711,9.6826,9.6942,9.6673,9.648,9.6673,9.6557,9.6288,9.6288,9.6288,9.598,9.6095,9.6172,9.6211,9.6288,9.6288,9.598,9.5557,9.5441,9.5249,9.5057,9.448,9.4095,9.4018,9.4018,9.4018,9.4018,9.4249,9.448,9.448,9.4518,9.4326,9.4057,9.3518,9.2941,9.2172,9.1441,9.1325,9.1248,9.1402,9.1479,9.1556,9.1633,9.1803,9.1803,9.1803,9.1803,9.1803,9.1803,9.1803,9.1803,9.1803,9.1803,9.1803,9.1803,9.1803,9.1803,9.1803,9.1803,9.1803,9.1803,9.1877,9.1877,9.184,9.239,9.2721,9.3088,9.3308,9.3822,9.3749,9.3822,9.4006,9.3675,9.3455,9.3051,9.2574,9.2574,9.2721,9.3015,9.3309,9.3676,9.4081,9.4191,9.4226,9.4444,9.4479,9.4483,9.4373,9.4226,9.4189,9.4228,9.4044,9.3859,9.375,9.3934,9.4336,9.5254,9.6031,9.7087,9.8432,9.9261,9.9517,9.9058,9.8712,9.8673,9.8481,9.825,9.8173,9.8442,9.8249,9.7556,9.7479,9.7403,9.7403,9.7442,9.7443,9.7557,9.7634,9.748,9.7365,9.7365,9.7173,9.6519,9.648,9.6826,9.6903,9.7019,9.648,9.6403,9.6288,9.6288,9.6288,9.6019,9.6057,9.6019,9.6057,9.5634,9.5018,9.4903,9.4903,9.4903,9.4903,9.5326,9.5749,9.5672,9.5326,9.5172,9.4864,9.4326,9.3826,9.321,9.2518,9.1595,9.1364,9.1941,9.2364,9.2595,9.2556,9.1803,9.1803,9.1803,9.1803,9.1803,9.1803,9.1803,9.1803,9.1803,9.1803,9.1803,9.1803,9.1803,9.1803,9.1803,9.1803,9.1803,9.1803,9.2134,9.2464,9.2684,9.3088,9.3603,9.386,9.4004,9.4334,9.4334,9.4299,9.4226,9.4446,9.463,9.4189,9.3675,9.3602,9.3749,9.3823,9.4079,9.4373,9.4779,9.5,9.5107,9.5545,9.5765,9.5804,9.5768,9.5511,9.5141,9.507,9.4738,9.4518,9.4371,9.4666,9.4997,9.5728,9.6658,9.7658,9.9062,9.9796,10.0515,10.0019,9.9404,9.8865,9.8788,9.8865,9.8981,9.8827,9.8711,9.8365,9.8326,9.8287,9.8288,9.8289,9.8327,9.8404,9.8404,9.8365,9.8173,9.8134,9.8019,9.7519,9.7673,9.8019,9.798,9.7942,9.7211,9.6519,9.6403,9.6326,9.6403,9.6442,9.648,9.6403,9.6365,9.6288,9.5672,9.5672,9.5749,9.5711,9.5711,9.5942,9.6211,9.6211,9.5903,9.5788,9.5634,9.5211,9.4749,9.4326,9.3595,9.2672,9.2556,9.2941,9.3287,9.3518,9.3518,9.1803,9.1803,9.1803,9.1803,9.1803,9.1803,9.1803,9.1803,9.1803,9.1803,9.1803,9.1803,9.1803,9.1803,9.1803,9.206,9.217,9.2317,9.2794,9.3161,9.3492,9.3933,9.4411,9.4705,9.4811,9.4882,9.5031,9.5107,9.518,9.5034,9.5364,9.5511,9.5327,9.4997,9.463,9.4668,9.474,9.5105,9.5476,9.5847,9.5951,9.6318,9.6612,9.6575,9.6539,9.6392,9.5948,9.5801,9.5618,9.5321,9.5212,9.5398,9.5728,9.625,9.706,9.8135,9.9167,9.9859,10.0519,10.0711,10.0134,9.9865,9.9712,9.9673,9.9519,9.9481,9.9673,9.9212,9.9173,9.9211,9.9173,9.9173,9.9173,9.925,9.9712,9.9673,9.9058,9.8788,9.875,9.8557,9.8711,9.8596,9.8596,9.8404,9.7904,9.7365,9.7442,9.7211,9.6865,9.6865,9.6865,9.6711,9.6519,9.6403,9.6249,9.6172,9.6057,9.6019,9.6019,9.6095,9.6288,9.6288,9.6288,9.6095,9.598,9.5903,9.5672,9.5249,9.4557,9.3749,9.3826,9.398,9.3826,9.4057,9.4326,9.1803,9.1803,9.1803,9.1803,9.1803,9.1803,9.1803,9.1803,9.1803,9.184,9.1913,9.184,9.1877,9.1877,9.2024,9.2317,9.2831,9.3015,9.3492,9.4116,9.4299,9.4778,9.5219,9.5511,9.5731,9.6465,9.6355,9.6208,9.6428,9.6245,9.6465,9.6502,9.6245,9.6025,9.5511,9.5476,9.588,9.6465,9.6502,9.6539,9.6539,9.6649,9.6685,9.6722,9.6722,9.6575,9.6502,9.6465,9.6278,9.6205,9.6205,9.6355,9.6465,9.7056,9.7541,9.7912,9.9177,9.9938,10.0288,10.0865,10.1019,10.0904,10.0673,10.0789,10.1019,10.1019,10.0712,10.0096,10.0057,10.0058,10.0096,10.0096,10.0058,10.0173,10.0596,10.0635,9.9942,9.9673,9.9673,9.9673,9.9211,9.8865,9.8904,9.8788,9.8442,9.825,9.8481,9.8211,9.7634,9.748,9.748,9.7288,9.7057,9.6749,9.6673,9.648,9.6365,9.6326,9.6365,9.648,9.6365,9.6288,9.6288,9.6288,9.6211,9.6095,9.6172,9.6172,9.5403,9.4749,9.4826,9.4864,9.4672,9.4634,9.498,9.1803,9.1803,9.1803,9.1803,9.1803,9.1803,9.1803,9.1803,9.184,9.2134,9.2464,9.2097,9.217,9.2501,9.2684,9.2868,9.3161,9.3822,9.4336,9.5034,9.5107,9.5621,9.6025,9.6208,9.6428,9.6612,9.6722,9.6722,9.6649,9.6722,9.6722,9.6722,9.6685,9.6575,9.6355,9.6321,9.6465,9.6649,9.6685,9.6685,9.6722,9.6722,9.6722,9.6722,9.6722,9.6722,9.6722,9.6722,9.6722,9.6722,9.6722,9.6722,9.6722,9.7166,9.7313,9.7647,9.8578,9.9177,9.9969,10.0788,10.125,10.1289,10.1289,10.1289,10.1289,10.1289,10.1096,10.0942,10.0788,10.0789,10.0904,10.0904,10.0866,10.0904,10.1135,10.1096,10.075,10.0789,10.0789,10.0789,10.0481,10.0289,10.025,9.9942,9.9519,9.9135,9.9288,9.8981,9.8442,9.8365,9.8365,9.8096,9.7827,9.7365,9.7096,9.7096,9.6903,9.6749,9.6788,9.6903,9.6711,9.6596,9.6403,9.648,9.6365,9.6288,9.6288,9.6249,9.6095,9.5788,9.5672,9.5634,9.5518,9.5557,9.5826,9.1803,9.1803,9.1803,9.1803,9.1803,9.1803,9.1913,9.217,9.2317,9.2758,9.3272,9.2904,9.2941,9.3455,9.3529,9.3786,9.3969,9.4446,9.5144,9.5841,9.5914,9.6208,9.6539,9.6722,9.6649,9.6722,9.6722,9.6722,9.6722,9.6722,9.6722,9.6722,9.6722,9.6685,9.6649,9.6649,9.6649,9.6722,9.6722,9.6722,9.6722,9.6722,9.6722,9.6722,9.6722,9.6722,9.6722,9.6722,9.6722,9.6722,9.6722,9.6722,9.6722,9.6759,9.6906,9.7276,9.8096,9.8857,10.0037,10.0865,10.125,10.1289,10.1289,10.1289,10.1289,10.1289,10.1289,10.125,10.1289,10.1289,10.1289,10.1289,10.1289,10.1289,10.1289,10.125,10.125,10.1212,10.1212,10.125,10.1289,10.1289,10.1289,10.1173,10.075,10.0404,10.0058,9.9673,9.9288,9.925,9.9211,9.8981,9.8634,9.8173,9.7942,9.798,9.7673,9.725,9.7365,9.7634,9.7442,9.7326,9.698,9.6634,9.6519,9.6403,9.6326,9.6211,9.6134,9.6134,9.6134,9.6172,9.6288,9.6288,9.6288,9.1803,9.1803,9.1803,9.1803,9.1803,9.1877,9.2354,9.3051,9.3088,9.3566,9.4299,9.4222,9.4185,9.4299,9.4336,9.4666,9.5217,9.5437,9.5951,9.6392,9.6465,9.6649,9.6649,9.6722,9.6722,9.6722,9.6722,9.6722,9.6722,9.6722,9.6722,9.6722,9.6722,9.6722,9.6722,9.6722,9.6722,9.6722,9.6722,9.6722,9.6722,9.6722,9.6722,9.6722,9.6722,9.6722,9.6722,9.6722,9.6722,9.6722,9.6722,9.6722,9.6722,9.6722,9.6722,9.7092,9.8118,9.9069,9.99,10.0673,10.1173,10.125,10.1289,10.1289,10.1289,10.1289,10.1289,10.1289,10.1289,10.1289,10.1289,10.1289,10.1289,10.1289,10.1289,10.1289,10.1289,10.1289,10.1289,10.1289,10.1289,10.1289,10.1289,10.125,10.125,10.1058,10.0673,10.0519,10.0212,10.0135,10.0058,9.9942,9.9519,9.8981,9.8827,9.8827,9.8481,9.8057,9.8442,9.8673,9.8404,9.8057,9.775,9.7365,9.6788,9.6557,9.6673,9.6519,9.6288,9.6288,9.6326,9.6288,9.6288,9.6288,9.6288,9.1803,9.1803,9.1803,9.1803,9.1877,9.2464,9.2905,9.3161,9.3713,9.4373,9.5144,9.4512,9.4735,9.5144,9.5144,9.5327,9.5658,9.6061,9.6392,9.6649,9.6722,9.6722,9.6722,9.6722,9.6722,9.6722,9.6722,9.6722,9.6722,9.6722,9.6722,9.6722,9.6722,9.6722,9.6722,9.6722,9.6722,9.6722,9.6722,9.6722,9.6722,9.6722,9.6722,9.6722,9.6722,9.6722,9.6722,9.6722,9.6722,9.6722,9.6722,9.6722,9.6722,9.6722,9.6722,9.6835,9.7651,9.8524,9.9288,10.0098,10.0696,10.1129,10.125,10.1289,10.1289,10.1289,10.1289,10.1289,10.1289,10.1289,10.1289,10.1289,10.1289,10.1289,10.1289,10.1289,10.1289,10.1289,10.1289,10.1289,10.1289,10.1289,10.1289,10.1289,10.125,10.1289,10.125,10.1096,10.0981,10.0827,10.0712,10.0596,10.0366,9.9788,9.9712,9.9712,9.9288,9.8981,9.9365,9.9519,9.9058,9.875,9.8519,9.8096,9.7557,9.7288,9.7211,9.7019,9.6865,9.6442,9.6403,9.6326,9.6288,9.6365,9.6442,9.1803,9.1803,9.1803,9.1803,9.1987,9.3088,9.3565,9.3712,9.4484,9.5256,9.5878,9.5545,9.5581,9.5914,9.5988,9.6025,9.6061,9.6392,9.6685,9.6685,9.6722,9.6722,9.6722,9.6722,9.6722,9.6722,9.6722,9.6722,9.6722,9.6722,9.6722,9.6722,9.6722,9.6722,9.6722,9.6722,9.6722,9.6722,9.6722,9.6722,9.6722,9.6722,9.6722,9.6722,9.6722,9.6722,9.6722,9.6722,9.6722,9.6722,9.6722,9.6722,9.6722,9.6722,9.6722,9.6872,9.7394,9.7992,9.8647,9.9682,10.0271,10.0798,10.1131,10.1289,10.1289,10.1289,10.1289,10.1289,10.1289,10.1289,10.1289,10.1289,10.1289,10.1289,10.1289,10.1289,10.1289,10.1289,10.1289,10.1289,10.1289,10.1289,10.1289,10.1289,10.1289,10.1289,10.1289,10.125,10.1173,10.1135,10.1096,10.1019,10.0866,10.0558,10.0558,10.0481,10.0212,10.0019,10.0289,10.0289,9.975,9.9404,9.9211,9.8827,9.8327,9.8134,9.8019,9.7788,9.7557,9.7173,9.7096,9.7326,9.7173,9.6634,9.6711,9.1803,9.1803,9.1803,9.1803,9.206,9.3529,9.4263,9.441,9.5182,9.599,9.6539,9.6649,9.6539,9.6539,9.6539,9.6539,9.6539,9.6649,9.6722,9.6722,9.6722,9.6722,9.6722,9.6722,9.6722,9.6722,9.6722,9.6722,9.6722,9.6722,9.6722,9.6722,9.6722,9.6722,9.6722,9.6722,9.6722,9.6722,9.6722,9.6722,9.6722,9.6722,9.6722,9.6722,9.6722,9.6722,9.6722,9.6722,9.6722,9.6722,9.6722,9.6722,9.6722,9.6722,9.6722,9.6795,9.7276,9.7653,9.8104,9.9013,9.9782,10.0319,10.0804,10.1091,10.121,10.125,10.1289,10.1289,10.1289,10.1289,10.1289,10.1289,10.1289,10.1289,10.1289,10.1289,10.1289,10.1289,10.1289,10.1289,10.1289,10.1289,10.1289,10.1289,10.1289,10.1289,10.1289,10.1289,10.1289,10.1289,10.1289,10.1289,10.1135,10.0981,10.1019,10.0981,10.1096,10.1135,10.1135,10.1058,10.0596,10.025,9.9904,9.9596,9.9327,9.9058,9.8865,9.8519,9.8288,9.8288,9.8288,9.8557,9.8211,9.748,9.7326,9.1803,9.1803,9.1803,9.1803,9.2024,9.3602,9.4299,9.441,9.5804,9.6465,9.6685,9.6722,9.6722,9.6722,9.6722,9.6722,9.6722,9.6722,9.6722,9.6722,9.6722,9.6722,9.6722,9.6722,9.6722,9.6722,9.6722,9.6722,9.6722,9.6722,9.6722,9.6722,9.6722,9.6722,9.6722,9.6722,9.6722,9.6722,9.6722,9.6722,9.6722,9.6722,9.6722,9.6722,9.6722,9.6722,9.6722,9.6722,9.6722,9.6722,9.6722,9.6722,9.6722,9.6722,9.6722,9.6759,9.6906,9.7276,9.7728,9.8345,9.8998,9.9805,10.0347,10.0798,10.1091,10.121,10.1289,10.125,10.1289,10.1289,10.1289,10.1289,10.1289,10.1289,10.1289,10.1289,10.1289,10.1289,10.1289,10.1289,10.1289,10.1289,10.1289,10.1289,10.1289,10.1289,10.1289,10.1289,10.1289,10.1289,10.1289,10.1289,10.1289,10.125,10.1289,10.1289,10.1289,10.1289,10.125,10.125,10.1289,10.0943,10.0558,10.0558,10.0404,10.0019,9.9558,9.9058,9.8942,9.9135,9.9211,9.9365,9.9211,9.8596,9.8481,9.1803,9.1803,9.1803,9.2024,9.2574,9.3749,9.4483,9.5034,9.6171,9.6722,9.6722,9.6722,9.6722,9.6722,9.6722,9.6722,9.6722,9.6722,9.6722,9.6722,9.6722,9.6722,9.6722,9.6722,9.6722,9.6722,9.6722,9.6722,9.6722,9.6722,9.6722,9.6722,9.6722,9.6722,9.6722,9.6722,9.6722,9.6722,9.6722,9.6722,9.6722,9.6722,9.6722,9.6722,9.6722,9.6722,9.6722,9.6722,9.6722,9.6722,9.6722,9.6722,9.6722,9.6722,9.6722,9.6722,9.6759,9.6832,9.7282,9.7726,9.8158,9.8998,9.9607,9.9949,10.0087,10.0286,10.1011,10.105,10.125,10.1289,10.1289,10.1289,10.1289,10.1289,10.1289,10.1289,10.1289,10.1289,10.1289,10.1289,10.1289,10.1289,10.1289,10.1289,10.1289,10.1289,10.1289,10.1289,10.1289,10.1289,10.1289,10.1289,10.1289,10.1289,10.1289,10.1289,10.1289,10.1289,10.1289,10.1289,10.1289,10.1289,10.1212,10.1058,10.0904,10.0789,10.0327,9.9865,9.9981,10.025,10.0173,10.0096,9.9865,9.9712,9.975,9.1803,9.1803,9.1803,9.2281,9.3161,9.3932,9.474,9.5547,9.6355,9.6722,9.6722,9.6722,9.6722,9.6722,9.6722,9.6722,9.6722,9.6722,9.6722,9.6722,9.6722,9.6722,9.6722,9.6722,9.6722,9.6722,9.6722,9.6722,9.6722,9.6722,9.6722,9.6722,9.6722,9.6722,9.6722,9.6722,9.6722,9.6722,9.6722,9.6722,9.6722,9.6722,9.6722,9.6722,9.6722,9.6722,9.6722,9.6722,9.6722,9.6722,9.6722,9.6722,9.6722,9.6722,9.6722,9.6722,9.6722,9.6759,9.6909,9.7242,9.7613,9.8084,9.8542,9.8967,9.9144,9.9807,10.0525,10.097,10.1171,10.1289,10.1289,10.1289,10.1289,10.1289,10.1289,10.1289,10.1289,10.1289,10.1289,10.1289,10.1289,10.1289,10.1289,10.1289,10.1289,10.1289,10.1289,10.1289,10.1289,10.1289,10.1289,10.1289,10.1289,10.1289,10.1289,10.1289,10.1289,10.1289,10.1289,10.1289,10.1289,10.1289,10.1289,10.1289,10.1173,10.1096,10.1135,10.0827,10.1058,10.1058,10.0904,10.0673,10.0712,10.0673,10.0943,9.1803,9.1803,9.1803,9.2317,9.3161,9.3969,9.4777,9.5584,9.6355,9.6722,9.6722,9.6722,9.6722,9.6722,9.6722,9.6722,9.6722,9.6722,9.6722,9.6722,9.6722,9.6722,9.6722,9.6722,9.6722,9.6722,9.6722,9.6722,9.6722,9.6722,9.6722,9.6722,9.6722,9.6722,9.6722,9.6722,9.6722,9.6722,9.6722,9.6722,9.6722,9.6722,9.6722,9.6722,9.6722,9.6722,9.6722,9.6722,9.6722,9.6722,9.6722,9.6722,9.6722,9.6722,9.6722,9.6722,9.6722,9.6722,9.6832,9.6906,9.7175,9.7636,9.8161,9.8505,9.8984,9.9765,10.0366,10.0893,10.1133,10.125,10.1289,10.1289,10.1289,10.1289,10.1289,10.1289,10.1289,10.1289,10.1289,10.1289,10.1289,10.1289,10.1289,10.1289,10.1289,10.1289,10.1289,10.1289,10.1289,10.1289,10.1289,10.1289,10.1289,10.1289,10.1289,10.1289,10.1289,10.1289,10.1289,10.1289,10.1289,10.1289,10.1289,10.1289,10.1289,10.125,10.1289,10.1289,10.1289,10.1212,10.125,10.1212,10.1289,10.1289,10.1289]},{"header":{"parameterUnit":"m.s-1","parameterCategory":1,"la1":31.0,"la2":29.5877,"lo1":-88.7671,"lo2":-86.6584,"dy":0.0162,"dx":0.0185,"nx":115,"ny":88,"refTime":"2026-05-02T12:00:00:Z","depth":0,"parameterNumber":3,"parameterNumberName":"V-component_of_WINDS"},"data":[0.0,0.0,0.0,0.0,0.0,0.0,0.0,0.0,0.0,0.0,0.0,0.0,0.0,0.0,0.0,0.0,0.0,0.0,0.0,0.0,0.0,0.0,0.0,0.0,0.0,0.0,0.0,0.0,0.0,0.0,0.0,0.0,0.0,0.0,0.0,0.0,0.0,0.0,0.0,0.0,0.0,0.0,0.0,0.0,0.0,0.0,0.0,0.0,0.0,0.0,0.0,0.0,0.0,0.0,0.0,0.0,0.0,0.0,0.0,0.0,0.0,0.0,0.0,0.0,0.0,0.0,0.0,0.0,0.0,0.0,0.0,0.0,0.0,0.0,0.0,0.0,0.0,0.0,0.0,0.0,0.0,0.0,0.0,0.0,0.0,0.0,0.0,0.0,0.0,0.0,0.0,0.0,0.0,0.0,0.0,0.0,0.0,0.0,0.0,0.0,0.0,0.0,0.0,0.0,0.0,0.0,0.0,0.0,0.0,0.0,0.0,0.0,0.0,0.0,0.0,0.0,0.0,0.0,0.0,0.0,0.0,0.0,0.0,0.0,0.0,0.0,0.0,0.0,0.0,0.0,0.0,0.0,0.0,0.0,0.0,0.0,0.0,0.0,0.0,0.0,0.0,0.0,0.0,0.0,0.0,0.0,0.0,0.0,0.0,0.0,0.0,0.0,0.0,0.0,0.0,0.0,0.0,0.0,0.0,0.0,0.0,0.0,0.0,0.0,0.0,0.0,0.0,0.0,0.0,0.0,0.0,0.0,0.0,0.0,0.0,0.0,0.0,0.0,0.0,0.0,0.0,0.0,0.0,0.0,0.0,0.0,0.0,0.0,0.0,0.0,0.0,0.0,0.0,0.0,0.0,0.0,0.0,0.0,0.0,0.0,0.0,0.0,0.0,0.0,0.0,0.0,0.0,0.0,0.0,0.0,0.0,0.0,0.0,0.0,0.0,0.0,0.0,0.0,0.0,0.0,0.0,0.0,0.0,0.0,0.0,0.0,0.0,0.0,0.0,0.0,0.0,0.0,0.0,0.0,0.0,0.0,0.0,0.0,0.0,0.0,0.0,0.0,0.0,0.0,0.0,0.0,0.0,0.0,0.0,0.0,0.0,0.0,0.0,0.0,0.0,0.0,0.0,0.0,0.0,0.0,0.0,0.0,0.0,0.0,0.0,0.0,0.0,0.0,0.0,0.0,0.0,0.0,0.0,0.0,0.0,0.0,0.0,0.0,0.0,0.0,0.0,0.0,0.0,0.0,0.0,0.0,0.0,0.0,0.0,0.0,0.0,0.0,0.0,0.0,0.0,0.0,0.0,0.0,0.0,0.0,0.0,0.0,0.0,0.0,0.0,0.0,0.0,0.0,0.0,0.0,0.0,0.0,0.0,0.0,0.0,0.0,0.0,0.0,0.0,0.0,0.0,0.0,0.0,0.0,0.0,0.0,0.0,0.0,0.0,0.0,0.0,0.0,0.0,0.0,0.0,0.0,0.0,0.0,0.0,0.0,0.0,0.0,0.0,0.0,0.0,0.0,0.0,0.0,0.0,0.0,0.0,0.0,0.0,0.0,0.0,0.0,0.0,0.0,0.0,0.0,0.0,0.0,0.0,0.0,0.0,0.0,0.0,0.0,0.0,0.0,0.0,0.0,0.0,0.0,0.0,0.0,0.0,0.0,0.0,0.0,0.0,0.0,0.0,0.0,0.0,0.0,0.0,0.0,0.0,0.0,0.0,0.0,0.0,0.0,0.0,0.0,0.0,0.0,0.0,0.0,0.0,0.0,0.0,0.0,0.0,0.0,0.0,0.0,0.0,0.0,0.0,0.0,0.0,0.0,0.0,0.0,0.0,0.0,0.0,0.0,0.0,0.0,0.0,0.0,0.0,0.0,0.0,0.0,0.0,0.0,0.0,0.0,0.0,0.0,0.0,0.0,0.0,0.0,0.0,0.0,0.0,0.0,0.0,0.0,0.0,0.0,0.0,0.0,0.0,0.0,0.0,0.0,0.0,0.0,0.0,0.0,0.0,0.0,0.0,0.0,0.0,0.0,0.0,0.0,0.0,0.0,0.0,0.0,0.0,0.0,0.0,0.0,0.0,0.0,0.0,0.0,0.0,0.0,0.0,0.0,0.0,0.0,0.0,0.0,0.0,0.0,0.0,0.0,0.0,0.0,0.0,0.0,0.0,0.0,0.0,0.0,0.0,0.0,0.0,0.0,0.0,0.0,0.0,0.0,0.0,0.0,0.0,0.0,0.0,0.0,0.0,0.0,0.0,0.0,0.0,0.0,0.0,0.0,0.0,0.0,0.0,0.0,0.0,0.0,0.0,0.0,0.0,0.0,0.0,0.0,0.0,0.0,0.0,0.0,0.0,0.0,0.0,0.0,0.0,0.0,0.0,0.0,0.0,0.0,0.0,0.0,0.0,0.0,0.0,0.0,0.0,0.0,0.0,0.0,0.0,0.0,0.0,0.0,0.0,0.0,0.0,0.0,0.0,0.0,0.0,0.0,0.0,0.0,0.0,0.0,0.0,0.0,0.0,0.0,0.0,0.0,0.0,0.0,0.0,0.0,0.0,0.0,0.0,0.0,0.0,0.0,0.0,0.0,0.0,0.0,0.0,0.0,0.0,0.0,0.0,0.0,0.0,0.0,0.0,0.0,0.0,0.0,0.0,0.0,0.0,0.0,0.0,0.0,0.0,0.0,0.0,0.0,0.0,0.0,0.0,0.0,0.0,0.0,0.0,0.0,0.0,0.0,0.0,0.0,0.0,0.0,0.0,0.0,0.0,0.0,0.0,0.0,0.0,0.0,0.0,0.0,0.0,0.0,0.0,0.0,0.0,0.0,0.0,0.0,0.0,0.0,0.0,0.0,0.0,0.0,0.0,0.0,0.0,0.0,0.0,0.0,0.0,0.0,0.0,0.0,0.0,0.0,0.0,0.0,0.0,0.0,0.0,0.0,0.0,0.0,0.0,0.0,0.0,0.0,0.0,0.0,0.0,0.0,0.0,0.0,0.0,0.0,0.0,0.0,0.0,0.0,0.0,0.0,0.0,0.0,0.0,0.0,0.0,0.0,0.0,0.0,0.0,0.0,0.0,0.0,0.0,0.0,0.0,0.0,0.0,0.0,0.0,0.0,0.0,0.0,0.0,0.0,0.0,0.0,0.0,0.0,0.0,0.0,0.0,0.0,0.0,0.0,0.0,0.0,0.0,0.0,0.0,0.0,0.0,0.0,0.0,0.0,0.0,0.0,0.0,0.0,0.0,0.0,0.0,0.0,0.0,0.0,0.0,0.0,0.0,0.0,0.0,0.0,0.0,0.0,0.0,0.0,0.0,0.0,0.0,0.0,0.0,0.0,0.0,0.0,0.0,0.0,0.0,0.0,0.0,0.0,0.0,0.0,0.0,0.0,0.0,0.0,0.0,0.0,0.0,0.0,0.0,0.0,0.0,0.0,0.0,0.0,0.0,0.0,0.0,0.0,0.0,0.0,0.0,0.0,0.0,0.0,0.0,0.0,0.0,0.0,0.0,0.0,0.0,0.0,0.0,0.0,0.0,0.0,0.0,0.0,0.0,0.0,0.0,0.0,0.0,0.0,0.0,0.0,0.0,0.0,0.0,0.0,0.0,0.0,0.0,0.0,0.0,0.0,0.0,0.0,0.0,0.0,0.0,0.0,0.0,0.0,0.0,0.0,0.0,0.0,0.0,0.0,0.0,0.0,0.0,0.0,0.0,0.0,0.0,0.0,0.0,0.0,0.0,0.0,0.0,0.0,0.0,0.0,0.0,0.0,0.0,0.0,0.0,0.0,0.0,0.0,0.0,0.0,0.0,0.0,0.0,0.0,0.0,0.0,0.0,0.0,0.0,0.0,0.0,0.0,0.0,0.0,0.0,0.0,0.0,0.0,0.0,0.0,0.0,0.0,0.0,0.0,0.0,0.0,0.0,0.0,0.0,0.0,0.0,0.0,0.0,0.0,0.0,0.0,0.0,0.0,0.0,0.0,0.0,0.0,0.0,0.0,0.0,0.0,0.0,0.0,0.0,0.0,0.0,0.0,0.0,0.0,0.0,0.0,0.0,0.0,0.0,0.0,0.0,0.0,0.0,0.0,0.0,0.0,0.0,0.0,0.0,0.0,0.0,0.0,0.0,0.0,0.0,0.0,0.0,0.0,0.0,0.0,0.0,0.0,0.0,0.0,0.0,0.0,0.0,0.0,0.0,0.0,0.0,0.0,0.0,0.0,0.0,0.0,0.0,0.0,0.0,0.0,0.0,0.0,-0.2532,0.0,0.0,0.0,0.0,0.0,0.0,0.0,0.0,0.0,0.0,0.0,0.0,0.0,0.0,0.0,0.0,0.0,0.0,0.0,0.0,0.0,0.0,0.0,0.0,0.0,0.0,0.0,0.0,0.0,0.0,0.0,0.0,0.0,0.0,0.0,0.0,0.0,0.0,0.0,0.0,0.0,0.0,0.0,0.0,0.0,0.0,0.0,0.0,0.0,0.0,0.0,0.0,0.0,0.0,0.0,0.0,0.0,0.0,0.0,0.0,0.0,0.0,0.0,0.0,0.0,0.0,0.0,0.0,0.0,0.0,0.0,0.0,0.0,0.0,0.0,0.0,0.0,0.0,0.0,0.0,0.0,0.0,0.0,0.0,0.0,0.0,0.0,0.0,0.0,0.0,0.0,0.0,0.0,0.0,0.0,0.0,0.0,0.0,0.0,0.0,0.0,0.0,0.0,0.0,0.0,0.0,0.0,0.0,0.0,0.0,-0.447,-0.447,-0.449,-0.4181,-0.3457,0.0,0.0,0.0,0.0,0.0,0.0,0.0,0.0,0.0,0.0,0.0,0.0,0.0,0.0,0.0,0.0,0.0,0.0,0.0,0.0,0.0,0.0,0.0,0.0,0.0,0.0,0.0,0.0,0.0,0.0,0.0,0.0,0.0,0.0,0.0,0.0,0.0,0.0,0.0,0.0,0.0,0.0,0.0,0.0,0.0,0.0,0.0,0.0,0.0,0.0,0.0,0.0,0.0,0.0,0.0,0.0,0.0,0.0,0.0,0.0,0.0,0.0,0.0,0.0,0.0,0.0,0.0,0.0,0.0,0.0,0.0,0.0,0.0,0.0,0.0,0.0,0.0,0.0,0.0,0.0,0.0,0.0,0.0,0.0,0.0,0.0,0.0,0.0,0.0,0.0,0.0,0.0,0.0,0.0,0.0,0.0,0.0,0.0,0.0,0.0,0.0,0.0,0.0,0.0,0.0,0.0,0.0,0.0,0.0,0.0,0.0,0.0,-0.4263,-0.3795,-0.3452,0.0,0.0,0.0,0.0,0.0,0.0,0.0,0.0,0.0,0.0,0.0,0.0,0.0,0.0,0.0,0.0,0.0,0.0,0.0,0.0,0.0,0.0,0.0,0.0,0.0,0.0,0.0,0.0,0.0,0.0,0.0,0.0,0.0,0.0,0.0,0.0,0.0,0.0,0.0,0.0,0.0,0.0,0.0,0.0,0.0,0.0,0.0,0.0,0.0,0.0,0.0,0.0,0.0,0.0,0.0,0.0,0.0,0.0,0.0,0.0,0.0,0.0,0.0,0.0,0.0,0.0,0.0,0.0,0.0,0.0,0.0,0.0,0.0,0.0,0.0,0.0,0.0,0.0,0.0,0.0,0.0,0.0,0.0,0.0,0.0,0.0,0.0,0.0,0.0,0.0,0.0,0.0,0.0,0.0,0.0,0.0,0.0,0.0,0.0,0.0,0.0,0.0,0.0,0.0,0.0,0.0,0.0,0.0,0.0,0.0,-0.4725,-0.5262,-0.3399,0.0,-0.0489,0.0,0.0,0.0,0.0,0.0,0.0,0.0,0.0,0.0,0.0,0.0,0.0,0.0,0.0,0.0,0.0,0.0,0.0,0.0,0.0,0.0,0.0,0.0,0.0,0.0,0.0,0.0,0.0,0.0,0.0,0.0,0.0,0.0,0.0,0.0,0.0,0.0,0.0,0.0,0.0,0.0,0.0,0.0,0.0,0.0,0.0,0.0,0.0,0.0,0.0,0.0,0.0,0.0,0.0,0.0,0.0,0.0,0.0,0.0,0.0,0.0,0.0,0.0,0.0,0.0,0.0,0.0,0.0,0.0,0.0,0.0,0.0,0.0,0.0,0.0,0.0,0.0,0.0,0.0,0.0,0.0,0.0,0.0,0.0,0.0,0.0,0.0,0.0,0.0,0.0,0.0,0.0,0.0,0.0,0.0,0.0,0.0,0.0,0.0,0.0,0.0,0.0,0.0,0.0,0.0,0.0,0.0,0.0,0.0,0.0,0.0,-0.49,-0.2289,-0.0628,0.0,0.0,0.0,0.0,0.0,0.0,0.0,0.0,0.0,0.0,0.0,0.0,0.0,0.0,0.0,0.0,0.0,0.0,0.0,0.0,0.0,0.0,0.0,0.0,0.0,0.0,0.0,0.0,0.0,0.0,0.0,0.0,0.0,0.0,0.0,0.0,0.0,0.0,0.0,0.0,0.0,0.0,0.0,0.0,0.0,0.0,0.0,0.0,0.0,0.0,0.0,0.0,0.0,0.0,0.0,0.0,0.0,0.0,0.0,0.0,0.0,0.0,0.0,0.0,0.0,0.0,0.0,0.0,0.0,0.0,0.0,0.0,0.0,0.0,0.0,0.0,0.0,0.0,0.0,0.0,0.0,0.0,0.0,0.0,0.0,0.0,0.0,0.0,0.0,0.0,0.0,0.0,0.0,0.0,0.0,0.0,0.0,0.0,0.0,0.0,0.0,0.0,0.0,0.0,0.0,0.0,0.0,0.0,0.0,0.0,-0.549,0.0,-0.382,-0.1376,0.0,0.0,0.0,0.0,0.0,0.0,0.0,0.0,0.0,0.0,0.0,0.0,0.0,0.0,0.0,0.0,0.0,0.0,0.0,0.0,0.0,0.0,0.0,0.0,0.0,0.0,0.0,0.0,0.0,0.0,0.0,0.0,0.0,0.0,0.0,0.0,0.0,0.0,0.0,0.0,0.0,0.0,0.0,0.0,0.0,0.0,0.0,0.0,0.0,0.0,0.0,0.0,0.0,0.0,0.0,0.0,0.0,0.0,0.0,0.0,0.0,0.0,0.0,0.0,0.0,0.0,0.0,0.0,0.0,0.0,0.0,0.0,0.0,0.0,0.0,0.0,0.0,0.0,0.0,0.0,0.0,0.0,0.0,0.0,0.0,0.0,0.0,0.0,0.0,0.0,0.0,0.0,0.0,0.0,0.0,0.0,0.0,0.0,0.0,0.0,0.0,0.0,0.0,0.0,0.0,0.0,0.0,0.0,0.0,0.0,0.0,-0.4929,-0.4279,-0.2429,-0.0817,0.0,0.0,0.0,0.0,0.0,0.0,0.0,0.0,0.0,0.0,0.0,0.0,0.0,0.0,0.0,0.0,0.0,0.0,0.0,0.0,0.0,0.0,0.0,0.0,0.0,0.0,0.0,0.0,0.0,0.0,0.0,0.0,0.0,0.0,0.0,0.0,0.0,0.0,0.0,0.0,0.0,0.0,0.0,0.0,0.0,0.0,0.0,0.0,0.0,0.0,0.0,0.0,0.0,0.0,0.0,0.0,0.0,0.0,0.0,0.0,0.0,0.0,0.0,0.0,0.0,0.0,0.0,0.0,0.0,0.0,0.0,0.0,0.0,0.0,0.0,0.0,0.0,0.0,0.0,0.0,0.0,0.0,0.0,0.0,0.0,0.0,0.0,0.0,0.0,0.0,0.0,0.0,0.0,0.0,0.0,0.0,0.0,0.0,0.0,0.0,0.0,0.0,0.0,0.0,0.0,0.0,0.0,0.0,0.0,0.0,-0.4552,-0.5738,-0.5319,-0.3138,-0.1104,0.0,0.0,0.0,0.0,0.0,0.0,0.0,0.0,0.0,0.0,0.0,0.0,0.0,0.0,0.0,0.0,0.0,0.0,0.0,0.0,0.0,0.0,0.0,0.0,0.0,0.0,0.0,0.0,0.0,0.0,0.0,0.0,0.0,0.0,0.0,0.0,0.0,0.0,0.0,0.0,0.0,0.0,0.0,0.0,0.0,0.0,0.0,0.0,0.0,0.0,0.0,0.0,0.0,0.0,0.0,0.0,0.0,0.0,0.0,0.0,0.0,0.0,0.0,0.0,0.0,0.0,0.0,0.0,0.0,0.0,0.0,0.0,0.0,0.0,0.0,0.0,0.0,0.0,0.0,0.0,0.0,0.0,0.0,0.0,0.0,0.0,0.0,0.0,0.0,0.0,0.0,0.0,0.0,0.0,0.0,0.0,0.0,0.0,0.0,0.0,0.0,0.0,0.0,0.0,0.0,0.0,0.0,0.0,0.0,0.0,-0.4783,0.0,-0.58,0.0,-0.168,0.0,0.0,0.0,0.0,0.0,0.0,0.0,0.0,0.0,0.0,0.0,0.0,0.0,0.0,0.0,0.0,0.0,0.0,0.0,0.0,0.0,0.0,0.0,0.0,0.0,0.0,0.0,0.0,0.0,0.0,0.0,0.0,0.0,0.0,0.0,0.0,0.0,0.0,0.0,0.0,0.0,0.0,0.0,0.0,0.0,0.0,0.0,0.0,0.0,0.0,0.0,0.0,0.0,0.0,0.0,0.0,0.0,0.0,0.0,0.0,0.0,0.0,0.0,0.0,0.0,0.0,0.0,0.0,0.0,0.0,0.0,0.0,0.0,0.0,0.0,0.0,0.0,0.0,0.0,0.0,0.0,0.0,0.0,0.0,0.0,0.0,0.0,0.0,0.0,0.0,0.0,0.0,0.0,0.0,0.0,0.0,0.0,0.0,0.0,0.0,0.0,0.0,0.0,0.0,0.0,0.0,0.0,0.0,0.0,0.0,-0.5337,-0.4737,-0.5168,-0.6887,-0.242,0.0,0.0,0.0,0.0,0.0,0.0,0.0,0.0,0.0,0.0,0.0,0.0,0.0,0.0,0.0,0.0,0.0,0.0,0.0,0.0,0.0,0.0,0.0,0.0,0.0,0.0,0.0,0.0,0.0,0.0,0.0,0.0,0.0,0.0,0.0,0.0,0.0,0.0,0.0,0.0,0.0,0.0,0.0,0.0,0.0,0.0,0.0,0.0,0.0,0.0,0.0,0.0,0.0,0.0,0.0,0.0,0.0,0.0,0.0,0.0,0.0,0.0,0.0,0.0,0.0,0.0,0.0,0.0,0.0,0.0,0.0,0.0,0.0,0.0,0.0,0.0,0.0,0.0,0.0,0.0,0.0,0.0,0.0,0.0,0.0,0.0,0.0,0.0,0.0,0.0,0.0,0.0,0.0,0.0,0.0,0.0,0.0,0.0,0.0,0.0,0.0,0.0,0.0,0.0,0.0,0.0,0.0,0.0,0.0,0.0,-0.47,-0.2575,-0.2663,-0.5074,-0.1854,0.0,0.0,0.0,0.0,0.0,0.0,0.0,0.0,0.0,0.0,0.0,0.0,0.0,0.0,0.0,0.0,0.0,0.0,0.0,0.0,0.0,0.0,0.0,0.0,0.0,0.0,0.0,0.0,0.0,0.0,0.0,0.0,0.0,0.0,0.0,0.0,0.0,0.0,0.0,0.0,0.0,0.0,0.0,0.0,0.0,0.0,0.0,0.0,0.0,0.0,0.0,0.0,0.0,0.0,0.0,0.0,0.0,0.0,0.0,0.0,0.0,0.0,0.0,0.0,0.0,0.0,0.0,0.0,0.0,0.0,0.0,0.0,0.0,0.0,0.0,0.0,0.0,0.0,0.0,0.0,0.0,0.0,0.0,0.0,0.0,0.0,0.0,0.0,0.0,0.0,0.0,0.0,0.0,0.0,0.0,0.0,0.0,0.0,0.0,0.0,0.0,0.0,0.0,0.0,0.0,0.0,0.0,0.0,0.0,0.0,-0.4443,-0.1533,-0.0931,-0.2763,-0.0991,0.0,0.0,0.0,0.0,0.0,0.0,0.0,0.0,0.0,0.0,0.0,0.0,0.0,0.0,0.0,0.0,0.0,0.0,0.0,0.0,0.0,0.0,0.0,0.0,0.0,0.0,0.0,0.0,0.0,0.0,0.0,0.0,0.0,0.0,0.0,0.0,0.0,0.0,0.0,0.0,0.0,0.0,0.0,0.0,0.0,0.0,0.0,0.0,0.0,0.0,0.0,0.0,0.0,0.0,0.0,0.0,0.0,0.0,0.0,0.0,0.0,0.0,0.0,0.0,0.0,0.0,0.0,0.0,0.0,0.0,0.0,0.0,0.0,0.0,0.0,0.0,0.0,0.0,0.0,0.0,0.0,0.0,0.0,0.0,0.0,0.0,0.0,0.0,0.0,0.0,0.0,0.0,0.0,0.0,0.0,0.0,0.0,0.0,0.0,0.0,0.0,0.0,0.0,0.0,0.0,0.0,0.0,0.0,0.0,0.0,-0.4665,-0.1554,0.0,0.0,0.0,0.0,0.0,0.0,0.0,0.0,0.0,0.0,0.0,0.0,0.0,0.0,0.0,0.0,0.0,0.0,0.0,0.0,0.0,0.0,0.0,0.0,0.0,0.0,0.0,0.0,0.0,0.0,0.0,0.0,0.0,0.0,0.0,0.0,0.0,0.0,0.0,0.0,0.0,0.0,0.0,0.0,0.0,0.0,0.0,0.0,0.0,0.0,0.0,0.0,0.0,0.0,0.0,0.0,0.0,0.0,0.0,0.0,0.0,0.0,0.0,0.0,0.0,0.0,0.0,0.0,0.0,0.0,0.0,0.0,0.0,0.0,0.0,0.0,0.0,0.0,0.0,0.0,0.0,0.0,0.0,0.0,0.0,0.0,0.0,0.0,0.0,0.0,0.0,0.0,0.0,0.0,0.0,0.0,0.0,0.0,0.0,0.0,0.0,0.0,0.0,0.0,0.0,0.0,0.0,0.0,0.0,0.0,0.0,0.0,0.0,-0.5658,-0.1991,0.0,0.0,0.0,0.0,0.0,0.0,0.0,0.0,0.0,0.0,0.0,0.0,0.0,0.0,0.0,0.0,0.0,0.0,0.0,0.0,0.0,0.0,0.0,0.0,0.0,0.0,0.0,0.0,0.0,0.0,0.0,0.0,0.0,0.0,0.0,0.0,0.0,0.0,0.0,0.0,0.0,0.0,0.0,0.0,0.0,0.0,0.0,0.0,0.0,0.0,0.0,0.0,0.0,0.0,0.0,0.0,0.0,0.0,0.0,0.0,0.0,0.0,0.0,0.0,0.0,0.0,0.0,0.0,0.0,0.0,0.0,0.0,0.0,0.0,0.0,0.0,0.0,0.0,0.0,0.0,0.0,0.0,0.0,0.0,0.0,0.0,0.0,0.0,0.0,0.0,0.0,0.0,0.0,0.0,0.0,0.0,0.0,0.0,0.0,0.0,0.0,0.0,0.0,0.0,0.0,0.0,0.0,0.0,0.0,0.0,0.0,0.0,-0.4559,-0.6241,-0.2182,0.0,0.0,0.0,0.0,0.0,0.0,0.0,0.0,0.0,0.0,0.0,0.0,0.0,0.0,0.0,0.0,0.0,0.0,0.0,0.0,0.0,0.0,0.0,0.0,0.0,0.0,0.0,0.0,0.0,0.0,0.0,0.0,0.0,0.0,0.0,0.0,0.0,0.0,0.0,0.0,0.0,0.0,0.0,0.0,0.0,0.0,0.0,0.0,0.0,0.0,0.0,0.0,0.0,0.0,0.0,0.0,0.0,0.0,0.0,0.0,0.0,0.0,0.0,0.0,0.0,0.0,0.0,0.0,0.0,0.0,0.0,0.0,0.0,0.0,0.0,0.0,0.0,0.0,0.0,0.0,0.0,0.0,0.0,0.0,0.0,0.0,0.0,0.0,0.0,0.0,0.0,0.0,0.0,0.0,0.0,0.0,0.0,0.0,0.0,0.0,0.0,0.0,0.0,0.0,0.0,0.0,0.0,0.0,0.0,0.0,0.0,0.0,-0.1793,-0.5456,-0.1943,0.0,0.0,0.0,0.0,0.0,0.0,0.0,0.0,0.0,0.0,0.0,0.0,0.0,0.0,0.0,0.0,0.0,0.0,0.0,0.0,0.0,0.0,0.0,0.0,0.0,0.0,0.0,0.0,0.0,0.0,0.0,0.0,0.0,0.0,0.0,0.0,0.0,0.0,0.0,0.0,0.0,0.0,0.0,0.0,0.0,0.0,0.0,0.0,0.0,0.0,0.0,0.0,0.0,0.0,0.0,0.0,0.0,0.0,0.0,0.0,0.0,0.0,0.0,0.0,0.0,0.0,0.0,0.0,0.0,0.0,0.0,0.0,0.0,0.0,0.0,0.0,0.0,0.0,0.0,0.0,0.0,0.0,0.0,0.0,0.0,0.0,0.0,0.0,0.0,0.0,0.0,0.0,0.0,0.0,0.0,0.0,0.0,0.0,0.0,0.0,0.0,0.0,0.0,0.0,0.0,0.0,0.0,0.0,0.0,0.0,0.0,0.0,-0.0453,-0.1222,-0.04,0.0,0.0,0.0,0.0,0.0,0.0,0.0,0.0,0.0,0.0,0.0,0.0,0.0,0.0,0.0,0.0,0.0,0.0,0.0,0.0,0.0,0.0,0.0,0.0,0.0,0.0,0.0,0.0,0.0,0.0,0.0,0.0,0.0,0.0,0.0,0.0,0.0,0.0,0.0,0.0,0.0,0.0,0.0,0.0,0.0,0.0,0.0,0.0,0.0,0.0,0.0,0.0,-0.5171,0.0,0.0,0.0,0.0,0.0,0.0,0.0,0.0,0.0,0.0,0.0,0.0,0.0,0.0,0.0,0.0,0.0,0.0,0.0,0.0,0.0,0.0,0.0,0.0,0.0,0.0,0.0,0.0,0.0,0.0,0.0,0.0,0.0,0.0,0.0,0.0,0.0,0.0,0.0,0.0,0.0,0.0,0.0,0.0,0.0,0.0,0.0,0.0,0.0,0.0,0.0,0.0,0.0,0.0,0.0,0.0,0.0,0.0,0.0,0.0,0.0,0.3552,0.5331,0.4937,0.1775,0.0,0.0,0.0,0.0,0.0,0.0,0.0,0.0,0.0,0.0,0.0,0.0,0.0,0.0,0.0,0.0,0.0,0.0,0.0,0.0,0.0,0.0,0.0,0.0,0.0,0.0,0.0,0.0,0.0,0.0,0.0,0.0,0.0,0.0,0.0,0.0,0.0,0.0,0.0,0.0,0.0,0.0,0.0,0.0,0.0,0.0,0.0,0.0,0.0,0.0,0.0,0.0,0.0,0.0,0.0,0.0,0.0,0.0,0.0,0.0,0.0,0.0,0.0,0.0,0.0,0.0,0.0,0.0,0.0,0.0,0.0,0.0,0.0,0.0,0.0,0.0,0.0,0.0,0.0,0.0,0.0,0.0,0.0,0.0,0.0,0.0,0.0,0.0,0.0,0.0,0.0,0.0,0.0,0.0,0.0,0.0,0.0,0.0,0.0,0.0,0.0,0.0,0.0,0.0,0.0,0.0,0.0,0.0,0.0,0.0605,0.199,0.8273,1.1335,1.0747,0.4904,0.1559,0.0,0.0,0.0,0.0,0.0,0.0,0.0,0.0,0.0,0.0,0.0,0.0,0.0,0.0,0.0,0.0,0.0,0.0,0.0,0.0,0.0,0.0,0.0,0.0,0.0,0.0,0.0,0.0,0.0,0.0,0.0,0.0,0.0,0.0,0.0,0.0,0.0,0.0,0.0,-0.7071,-0.6022,0.0,0.0,0.0,0.0,0.0,0.0,0.0,0.0,-0.5631,0.0,0.0,0.0,0.0,0.0,0.0,0.0,0.0,0.0,0.0,0.0,0.0,0.0,0.0,0.0,0.0,0.0,0.0,0.0,0.0,0.0,0.0,0.0,0.0,0.0,0.0,0.0,0.0,0.0,0.0,0.0,0.0,0.0,0.0,0.0,0.0,0.0,0.0,0.0,0.0,0.0,0.0,0.0,0.0,0.0,0.0,0.0,0.0,0.0,0.0,0.0,0.0,0.0,0.0,0.0,0.0,0.0,0.0,0.3109,0.9463,1.0941,1.1619,1.1436,0.9763,0.8684,0.8043,0.0,0.0,0.0,0.0,0.0,0.0,0.0,0.0,0.0,0.0,0.0,0.0,0.0,0.0,0.0,0.0,0.0,0.0,0.0,0.0,0.0,0.0,0.0,0.0,0.0,0.0,0.0,0.0,0.0,0.0,0.0,0.0,0.0,0.0,0.0,0.0,0.0,0.0,0.0,-0.6648,-0.6492,0.0,0.0,0.0,0.0,0.0,0.0,0.0,0.0,-0.6008,0.0,0.0,0.0,0.0,0.0,0.0,0.0,0.0,0.0,0.0,0.0,0.0,0.0,0.0,0.0,0.0,0.0,0.0,0.0,0.0,0.0,0.0,0.0,0.0,0.0,0.0,0.0,0.0,0.0,0.0,0.0,0.0,0.0,0.0,0.0,0.0,0.0,0.0,0.0,0.0,0.0,0.0,0.0,0.0,0.0,0.0,0.0,0.0,0.0,0.0,0.0,0.0,0.0,0.0,0.0,0.0,0.0,0.3752,1.1235,1.1599,1.1619,1.1443,1.1221,1.0755,0.0,0.0,0.0,0.0,0.0,0.0,0.0,0.0,0.0,0.0,0.0,0.0,0.0,0.0,0.0,0.0,0.0,0.0,0.0,0.0,0.0,0.0,0.0,0.0,0.0,0.0,0.0,0.0,0.0,0.0,0.0,0.0,0.0,0.0,0.0,0.0,0.0,0.0,0.0,0.0,-0.6986,-0.6959,-0.7111,0.0,0.0,0.0,0.0,0.0,0.0,-0.667,-0.6633,0.0,0.0,0.0,0.0,0.0,0.0,0.0,0.0,0.0,0.0,0.0,0.0,0.0,0.0,0.0,0.0,0.0,0.0,0.0,0.0,0.0,0.0,0.0,0.0,0.0,0.0,0.0,0.0,0.0,0.0,0.0,0.0,0.0,0.0,0.0,0.0,0.0,0.0,0.0,0.0,0.0,0.0,0.0,0.0,0.0,0.0,0.0,0.0,0.0,0.0,0.0,0.0,0.0,0.0,0.0,0.0,0.0,0.3713,1.1213,1.1619,1.1449,1.1308,1.1531,1.102,0.0,0.0,0.0,0.0,0.0,0.0,0.0,0.0,0.0,0.0,0.0,0.0,0.0,0.0,0.0,0.0,0.0,0.0,0.0,0.0,0.0,0.0,0.0,0.0,0.0,0.0,0.0,0.0,0.0,0.0,0.0,0.0,0.0,0.0,0.0,0.0,0.0,0.0,0.0,0.0,0.0,-0.7063,-0.6625,-0.2854,0.0,0.0,0.0,0.0,-0.5917,-0.5809,0.0,0.0,0.0,0.0,0.0,0.0,0.0,0.0,0.0,0.0,0.0,0.0,0.0,0.0,0.0,0.0,0.0,0.0,0.0,0.0,0.0,0.0,0.0,0.0,0.0,0.0,0.0,0.0,0.0,0.0,0.0,0.0,0.0,0.0,0.0,0.0,0.0,0.0,0.0,0.0,0.0,0.0,0.0,0.0,0.0,0.0,0.0,0.0,0.0,0.0,0.0,0.0,0.0,0.0,0.0,0.0,0.0,0.0,0.3786,1.1175,1.1667,1.1633,1.1586,1.1527,1.0815,0.0,0.0,0.0,0.0,0.0,0.0,0.0,0.0,0.0,0.0,0.0,0.0,0.0,0.0,0.0,0.0,0.0,0.0,0.0,0.0,0.0,0.0,0.0,0.0,0.0,0.0,0.0,0.0,0.0,0.0,0.0,0.0,0.0,0.0,0.0,0.0,0.0,0.0,0.0,0.0,0.0,-0.7153,-0.5122,-0.2059,0.0,0.0,0.0,0.0,-0.3382,-0.1825,0.0,0.0,0.0,0.0,0.0,0.0,0.0,0.0,0.0,0.0,0.0,0.0,0.0,0.0,0.0,0.0,0.0,0.0,0.0,0.0,0.0,0.0,0.0,0.0,0.0,0.0,0.0,0.0,0.0,0.0,0.0,0.0,0.0,0.0,0.0,0.0,0.0,0.0,0.0,0.0,0.0,0.0,0.0,0.0,0.0,0.0,0.0,0.0,0.0,0.0,0.0,0.0,0.0,0.0,0.0,0.0844,0.634,0.6557,0.8153,1.1496,1.1647,1.1633,1.1613,1.1583,1.0955,0.0,0.0,0.0,0.0,0.0,0.0,0.0,0.0,0.0,0.0,0.0,0.0,0.0,0.0,0.0,0.0,0.0,0.0,0.0,0.0,0.0,0.0,0.0,0.0,0.0,0.0,0.0,0.0,0.0,0.0,0.0,0.0,0.0,0.0,0.0,0.0,0.0,0.0,0.0,0.0,0.0,0.0,-0.4526,-0.1782,0.0,0.0,0.0,-0.2955,-0.4918,0.0,0.0,0.0,0.0,0.0,0.0,0.0,0.0,0.0,0.0,0.0,0.0,0.0,0.0,0.0,0.0,0.0,0.0,0.0,0.0,0.0,0.0,0.0,0.0,0.0,0.0,0.0,0.0,0.0,0.0,0.0,0.0,0.0,0.0,0.0,0.0,0.0,0.0,0.0,0.0,0.0,0.0,0.0,0.0,0.0,0.0,0.0,0.0,0.0,0.0,0.0,0.0,0.0,0.0,0.0,0.0,0.0,1.1354,1.1599,1.1657,1.1633,1.1626,1.1619,1.1599,1.166,0.0,0.0,0.0,0.0,0.0,0.0,0.0,0.0,0.0,0.0,0.0,0.0,0.0,0.0,0.0,0.0,0.0,0.0,0.0,0.0,0.0,0.0,0.0,0.0,0.0,0.0,0.0,-0.3862,0.0,0.0,0.0,0.0,0.0,0.0,0.0,0.0,0.0,0.0,0.0,0.0,0.0,0.0,-0.6206,-0.4731,-0.1902,0.0,0.0,0.0,-0.1249,-0.475,-0.2321,0.0,0.0,0.0,0.0,0.0,0.0,0.0,0.0,0.0,0.0,0.0,0.0,0.0,0.0,0.0,0.0,0.0,0.0,0.0,0.0,0.0,0.0,0.0,0.0,0.0,0.0,0.0,0.0,0.0,0.0,0.0,0.0,0.0,0.0,0.0,0.0,0.0,0.0,0.0,0.0,0.0,0.0,0.0,0.0,0.0,0.0,0.0,0.0,0.0,0.0,0.0,0.0,0.0,0.0,0.0,0.0,1.1329,1.166,1.1657,1.164,1.1633,1.1619,1.1606,1.1545,1.1233,0.0,0.0,0.0,0.0,0.0,0.0,0.0,0.0,0.0,0.0,0.0,0.0,0.0,0.0,0.0,0.0,0.0,0.0,0.0,0.0,0.0,0.0,0.0,0.0,0.0,0.0,0.0,0.0,0.0,0.0,0.0,0.0,0.0,0.0,0.0,0.0,0.0,0.0,0.0,0.0,0.0,-0.7427,-0.6303,-0.2622,0.0,0.0,0.0,-0.0125,0.0,0.0,0.0,0.0,0.0,0.0,0.0,0.0,0.0,0.0,0.0,0.0,0.0,0.0,0.0,0.0,0.0,0.0,0.0,0.0,0.0,0.0,0.0,0.0,0.0,0.0,0.0,0.0,0.0,0.0,0.0,0.0,0.0,0.0,0.0,0.0,0.0,0.0,0.0,0.0,0.0,0.0,0.0,0.0,0.0,0.0,0.0,0.0,0.0,0.0,0.0,0.0,0.0,0.0,0.0,0.0,0.0,0.2615,0.7969,1.0568,1.1889,1.1748,1.1755,1.1748,1.1748,1.1589,1.1099,0.0,0.0,0.0,0.0,0.0,0.0,0.0,0.0,0.0,0.0,0.0,0.0,0.0,0.0,0.0,0.0,0.0,0.0,0.0,0.0,0.0,0.0,0.0,0.0,0.0,0.0,0.0,0.0,-0.1503,-0.1057,0.0,0.0,0.0,0.0,0.0,0.0,0.0,0.0,0.0,0.0,0.0,-0.7085,-0.7291,-0.3143,0.0,0.0,0.0,0.0,0.0,0.0,0.0,0.0,0.0,0.0,0.0,0.0,0.0,0.0,0.0,0.0,0.0,0.0,0.0,0.0,0.0,0.0,0.0,0.0,0.0,0.0,0.0,0.0,0.0,0.0,0.0,0.0,0.0,0.0,0.0,0.0,0.0,0.0,0.0,0.0,0.0,0.0,0.0,0.0,0.0,0.0,0.0,0.0,0.0,0.0,0.0,0.0,0.0,0.0,0.0,0.0,0.0,0.0,0.0,0.0,0.0,0.1951,0.5829,0.9933,1.1942,1.183,1.1877,1.1877,1.1816,1.1525,1.1279,0.0,0.0,0.0,0.0,0.0,0.0,0.0,0.0,0.0,0.0,0.0,0.0,0.0,0.0,0.0,0.0,0.0,0.0,0.0,0.0,0.0,0.0,0.0,0.0,0.0,0.0,0.0,0.0,0.0,0.0,0.0,0.0,0.0,0.0,0.0,0.0,0.0,0.0,0.0,0.0,0.0,-0.6146,-0.5623,-0.2365,0.0,0.0,0.0,0.0,0.0,0.0,0.0,0.0,0.0,0.0,0.0,0.0,0.0,0.0,0.0,0.0,0.0,0.0,0.0,0.0,0.0,0.0,0.0,0.0,0.0,0.0,0.0,0.0,0.0,0.0,0.0,0.0,0.0,0.0,0.0,0.0,0.0,0.0,0.0,0.0,0.0,0.0,0.0,0.0,0.0,0.0,0.0,0.0,0.0,0.0,0.0,0.0,0.0,0.0,0.0,0.0,0.0,0.0,0.0,0.0,0.0,0.0,0.5724,1.0028,1.2046,1.1837,1.1979,1.1986,1.1837,1.1681,1.144,1.121,0.0,0.0,0.0,0.0,0.0,0.0,0.0,0.0,0.0,0.0,0.0,0.0,0.0,0.0,0.0,0.0,0.0,0.0,0.0,0.0,0.0,0.0,0.0,0.0,0.0,0.0,-0.0337,0.0,0.0,0.0,0.0,0.0,0.0,0.0,0.0,0.0,0.0,0.0,0.0,-0.3717,-0.4791,-0.08,0.0,0.0,0.0,0.0,0.0,0.0,0.0,0.0,0.0,0.0,0.0,0.0,0.0,0.0,0.0,0.0,0.0,0.0,0.0,0.0,0.0,0.0,0.0,0.0,0.0,0.0,0.0,0.0,0.0,0.0,0.0,0.0,0.0,0.0,0.0,0.4002,0.4562,0.0,0.0,0.0,0.0,0.0,0.0,0.0,0.0,0.0,0.0,0.0,0.9183,0.9623,0.0,0.0,0.0,0.0,0.0,0.0,0.0,0.0,0.0,0.0,0.0,0.0,0.2054,0.6133,1.0098,1.2079,1.2128,1.2189,1.2142,1.1986,1.1701,1.1326,1.0554,0.0,0.0,0.0,0.0,0.0,0.0,0.0,0.0,0.0,0.0,0.0,0.0,0.0,0.0,0.0,0.0,0.0,0.0,0.0,0.0,0.0,0.0,0.0,0.0,0.0,-0.332,0.0,0.0,0.0,0.0,0.0,0.0,0.0,0.0,0.0,0.0,0.0,-0.2655,-0.4058,-0.3043,-0.1548,-0.0134,0.0,0.0,0.0,0.0,0.0,0.0,0.0,0.0,0.0,0.0,0.0,0.0,0.0,0.0,0.0,0.0,-0.0873,-0.0729,-0.1148,-0.1505,-0.1495,0.0,0.0,0.0,0.0,0.0,0.0,0.0,0.0,0.0,0.0,0.0,0.0,0.0,0.0,0.0,0.0,0.6466,0.0,0.0,0.0,0.0,0.0,0.0,0.0,0.0,0.9308,0.9266,0.9867,1.0295,1.0399,0.0,0.9188,0.7552,0.0,0.0,0.0,0.0,0.0,0.0,0.0,0.0,0.2686,0.82,1.0848,1.2223,1.2277,1.2338,1.2264,1.2067,1.1818,1.1347,1.0679,0.9356,0.8241,0.0,0.0,0.0,0.0,0.0,0.0,0.0,0.0,0.0,0.0,0.0,0.0,0.0,0.0,0.0,0.0,0.0,0.0,0.0,0.0,0.0,0.0,0.0,-0.2164,0.0,0.0,0.0,0.0,0.0,0.0,0.0,0.0,0.0,0.0,0.0,-0.1009,-0.3767,-0.1793,0.0,0.0,0.0,0.0,0.0,0.0,0.0,0.0,0.0,0.0,0.0,0.0,0.0,0.0,0.0,0.0,0.0,0.0,0.0,0.0,0.0,0.0,0.0,0.0,0.0,0.0,0.0,0.0,0.0,0.0,0.0,0.0,0.0,0.0,0.0,0.0,0.8378,0.8251,0.0,0.8335,0.0,0.0,0.0,0.0,0.0,0.0,0.0,0.0,1.0443,1.0426,0.9921,1.0324,1.0849,1.1502,1.0686,0.9903,0.9137,0.821,0.0,0.0,0.0,0.0,0.0,0.0,0.3966,1.1728,1.2306,1.247,1.2298,1.2427,1.2359,1.2216,1.1782,1.1525,1.1192,1.0313,0.9511,0.8967,0.7773,0.0,0.0,0.0,0.0,0.0,0.0,0.0,0.0,0.0,0.0,0.0,0.0,0.0,0.0,0.0,0.0,0.0,0.0,0.0,0.0,0.0,0.0,0.0,0.0,0.0,0.0,0.0,0.0,0.0,0.0,0.0,0.0,0.0,0.0,0.0,0.0,0.0,0.0,0.0,0.0,0.0,0.0,0.0,0.0,0.0,0.0,0.0,0.0,0.0,0.0,0.0,0.0,0.0,0.0,0.0,0.0,0.0,0.0,0.0,0.0,0.0,0.0,0.0,0.0,1.5814,0.0,0.0,0.0,0.0,0.9493,0.93,0.9727,0.9277,0.9216,0.9239,0.9792,0.0,0.0,0.0,0.0,0.0,0.0,1.0011,1.0107,1.0405,1.0665,1.0789,1.1047,1.1324,1.1632,1.1104,1.069,1.0263,0.9902,0.871,0.6838,0.0,0.0,0.0,0.0,0.406,1.1694,1.2417,1.2505,1.244,1.2481,1.2359,1.2067,1.1736,1.1504,1.1532,1.0767,1.0285,0.9894,0.8884,0.0,0.0,0.0,0.0,0.0,0.0,0.0,0.0,0.0,0.0,0.0,0.0,0.0,0.0,0.0,0.0,0.0,0.0,0.0,0.0,0.0,0.0,0.0,0.0,0.0,0.0,0.0,0.0,0.0,0.0,0.0,0.0,0.0,0.0,0.0,0.0,0.0,0.0,0.0,0.0,0.0,0.0,0.0,0.0,0.0,0.0,0.0,0.0,0.0,0.0,0.0,0.0,0.0,0.0,0.0,0.0,0.0,0.0,0.0,0.0,0.0,0.0,0.0,0.0,2.0372,1.8105,1.4945,1.3711,1.3765,1.2769,1.2741,1.3079,1.0955,1.0685,1.1569,1.1084,1.0456,0.9644,0.8798,0.0,0.0,0.0,1.0418,1.0636,1.0799,1.1107,1.1415,1.1721,1.1714,1.1565,1.147,1.1274,1.0982,1.0833,1.0012,0.8581,0.0,0.0,0.7483,0.563,0.7029,1.1852,1.2318,1.2581,1.2494,1.2386,1.2244,1.206,1.1832,1.1557,1.1545,1.1274,1.0843,1.0493,0.9666,0.8716,0.0,0.0,0.0,0.0,0.0,0.0,0.0,0.0,0.0,0.0,0.0,0.0,0.0,0.0,0.0,0.0,0.0,0.0,0.0,0.0,0.0,0.0,0.0,0.0,0.0,0.0,0.0,0.0,0.0,0.0,0.0,0.0,0.0,0.0,0.0,0.0,0.0,0.0,0.0,0.0,0.0,0.0,0.0,0.0,0.0,0.0,0.0,0.0,0.0,0.0,0.0,0.0,0.0,0.0,0.0,0.0,0.0,0.0,0.0,0.0,0.0,0.0,0.0,2.4142,2.3506,1.8618,1.6713,1.669,1.6644,1.6963,1.7231,1.3576,1.2933,1.4579,1.2679,1.1365,1.06,1.0074,0.0,0.0,1.0473,1.0826,1.1246,1.1525,1.1576,1.1703,1.1993,1.1986,1.1697,1.185,1.1714,1.145,1.1301,1.0955,1.0405,0.9758,0.9731,1.0355,1.1027,1.1711,1.2066,1.231,1.2505,1.2494,1.2216,1.206,1.206,1.1775,1.1552,1.1564,1.153,1.1393,1.0816,1.0218,0.9609,0.882,0.0,0.0,0.0,0.0,0.0,0.0,0.0,0.0,0.0,0.0,0.0,0.0,0.0,0.0,0.0,0.0,0.0,0.0832,0.0309,0.0,0.0,0.0,0.0,0.0,0.0,0.0,0.0,0.0,0.0,0.0,0.0,0.0,0.0,0.0,0.0,0.0,0.0,0.0,0.0,0.0,0.0,0.0,0.0,0.0,0.0,0.0,0.0,0.0,0.0,0.0,0.0,0.0,0.0,0.0,0.0,0.0,0.0,0.0,0.0,0.0,0.0,0.0,2.5037,2.4716,2.3484,2.1765,1.9761,1.8259,1.7816,1.795,1.8062,1.7684,1.7136,1.7631,1.6192,1.3287,1.1812,1.1179,1.1253,1.143,1.1633,1.185,1.1925,1.1979,1.2006,1.204,1.2196,1.2317,1.2155,1.1972,1.1904,1.1864,1.1714,1.147,1.1248,1.0879,1.052,1.0578,1.1094,1.1904,1.2352,1.2553,1.2481,1.2216,1.206,1.206,1.1775,1.1606,1.1565,1.1629,1.1386,1.1121,1.0665,1.0263,0.9572,0.7841,0.0,0.0,0.0,0.0,0.0,0.0,0.0,0.0,0.0,0.0,0.0,0.0,0.0,0.0,0.0,0.2245,0.7615,0.3216,0.0,0.0,0.0,0.0,0.0,0.0,0.0,0.0,0.0,0.0,0.0,0.0,0.0,0.0,0.0,0.0,0.0,0.0,0.0,0.0,0.0,0.0,0.0,0.0,0.0,0.0,0.0,0.0,0.0,0.0,0.0,0.0,0.0,0.0,0.0,0.0,0.0,0.0,0.0,0.0,0.0,0.0,0.0,2.5651,2.5277,2.5277,2.437,2.2855,2.1698,2.1265,2.1507,2.2214,2.1408,1.9613,1.9315,1.8073,1.596,1.4066,1.3115,1.3115,1.2332,1.1979,1.2067,1.2128,1.2162,1.2162,1.223,1.2381,1.247,1.2313,1.2128,1.2067,1.206,1.202,1.1932,1.1938,1.1687,1.1219,1.1001,1.111,1.1797,1.2251,1.2588,1.2488,1.2284,1.2251,1.1959,1.159,1.1525,1.1615,1.1653,1.1284,1.0656,1.0721,1.0371,0.9645,0.9412,0.7146,0.0,0.0,0.0,0.0,0.0,0.0,0.0,0.0,0.0,0.0,0.0,0.4847,0.0,0.2082,0.0,1.0213,0.7407,0.3817,0.0,0.0,0.0,0.0,0.0,0.0,0.0,0.0,0.0,0.0,0.0,0.0,0.0,0.0,0.0,0.0,0.0,0.0,0.0,0.0,0.0,0.0,0.0,0.0,0.0,0.0,0.0,0.0,0.0,0.0,0.0,0.0,0.0,0.0,0.0,0.0,0.0,0.0,0.0,0.0,0.0,0.0,2.6199,2.5732,2.5732,2.5732,2.5718,2.5464,2.5424,2.5491,2.5251,2.4057,2.2109,1.99,1.8665,1.8036,1.6156,1.5125,1.4662,1.3057,1.2176,1.2182,1.2318,1.2372,1.2219,1.2501,1.2501,1.2539,1.2532,1.2298,1.2149,1.2149,1.2128,1.2094,1.2088,1.2088,1.2088,1.1804,1.1737,1.1744,1.2196,1.2567,1.2522,1.2512,1.2278,1.1843,1.1358,1.1369,1.1532,1.1495,1.0871,0.9947,1.0177,1.0137,0.9614,0.9682,0.835,0.0,0.2573,0.0,0.0,0.0,0.0,0.0,0.0,0.0,0.0,0.6663,1.1067,1.1524,0.5422,0.415,1.0697,1.1548,0.8995,0.0,0.1113,0.0852,0.0,0.0885,0.0906,0.0924,0.0313,0.0,0.0,0.0,0.0,0.0,0.0,0.0,0.0,0.0,0.0,0.1199,0.0343,0.0,0.0,0.0,0.0,0.0,0.0,0.0,0.0,0.0,0.0,0.0,0.0,0.0,0.0,0.0,0.0,0.0,0.0,0.0,0.0,0.0,0.0,2.7028,2.6934,2.6934,2.6934,2.6934,2.6867,2.6346,2.5504,2.5464,2.5245,2.4723,2.4112,2.2071,1.8734,1.6906,1.5039,1.3226,1.2889,1.2793,1.2793,1.282,1.2668,1.2509,1.2702,1.2861,1.2834,1.2834,1.2752,1.2603,1.2603,1.2481,1.225,1.225,1.2244,0.0,0.0,0.0,0.0,1.2494,1.2501,1.2671,1.2305,1.202,1.183,1.116,0.0,1.124,1.0531,1.0016,0.982,0.9429,0.0,0.0,0.0,0.0,0.0,0.0,0.0,0.0,0.0,0.0,0.0,0.6512,0.3372,0.0543,0.698,1.1449,1.1533,1.0247,1.0021,1.1302,1.2006,1.1518,0.9602,0.6778,0.506,0.5078,0.5343,0.5435,0.53,0.2384,0.0,0.0,0.0,0.0,0.9492,1.1474,0.9879,0.6185,0.88,0.9869,0.6566,0.2936,0.0,0.0,0.0,0.0,0.0,0.0,0.0,0.0,0.0,0.0,0.0,0.0,0.0,0.0,0.0,0.0,0.0,0.0,0.0,0.0,0.0,0.0,2.7388,0.0,2.7268,2.7268,0.0,2.7268,2.6934,2.6386,2.6373,2.6213,2.5932,2.5577,2.4252,2.2177,2.0125,1.8074,1.5814,1.4963,1.4062,1.2963,1.2963,1.2956,1.2789,1.2956,1.3123,1.3123,1.3123,1.2922,1.2847,1.2847,1.2766,1.2623,1.2623,1.2617,1.2623,1.2527,1.2657,1.2986,1.2977,1.3397,1.4388,1.3241,1.2927,1.3405,0.0,0.0,0.0,0.0,0.0,0.0,0.0,0.0,0.0,0.0,0.0,0.9372,0.9401,0.9525,0.9788,1.0926,1.1615,1.151,0.9947,0.6404,0.0482,0.7089,1.168,1.1833,1.1678,1.1612,1.1907,1.2219,1.2227,1.1931,1.0381,0.9397,0.9634,0.9787,0.9919,0.9832,0.8165,0.6142,0.3707,0.3569,0.5322,0.9961,1.283,1.3384,1.1445,1.2674,1.3184,1.1031,0.8918,0.0,0.3812,0.0,0.0,0.0,0.0,0.0,0.0,0.0,0.0,0.0,0.0,0.0,0.0,0.0,0.0,0.0,0.0,0.0,0.0,0.0,0.0,2.7789,2.7575,2.7575,2.7575,2.7575,2.7522,2.7468,2.7415,0.0,0.0,0.0,2.6208,2.5657,2.5114,2.3368,2.1436,1.9193,1.7145,1.5569,1.415,1.3836,1.35,1.315,1.3814,1.3989,1.3346,1.3514,1.35,1.3003,1.3003,1.299,1.2963,1.2963,1.2976,1.301,1.2976,1.326,1.3359,1.3475,1.4298,1.6148,1.5688,1.5335,1.5345,1.3667,1.2135,1.0496,1.0463,1.0683,1.0848,1.082,1.0601,1.0209,1.0181,0.9962,0.9685,0.9986,1.0277,1.0826,1.1425,1.1711,1.165,1.1874,0.9192,0.254,0.8025,1.1896,1.2156,1.199,1.1824,1.2121,1.2319,1.2409,1.258,1.2549,1.2684,1.2992,1.3003,1.2983,1.3459,1.3284,1.2415,0.8901,0.8289,0.837,0.8978,1.2044,1.4251,1.4333,1.4088,1.4197,1.3832,1.3117,1.2366,0.9087,0.5752,0.2437,0.0,0.0,0.1044,0.0,0.0,0.0,0.0,0.0,0.0,0.0,0.0,0.0,0.0,0.0,0.0,0.0,0.0,0.0,2.8818,2.8791,2.8791,2.8791,2.8764,2.8524,2.827,2.7989,2.7495,2.7215,2.7134,2.7068,2.5886,2.386,2.3537,2.2106,1.9654,1.7539,1.7385,0.0,1.6897,1.5178,1.3584,1.7126,1.7008,1.3704,1.5233,1.5039,1.3315,1.3146,1.3085,1.2983,1.2963,1.3024,1.2976,1.3288,1.3349,1.3473,1.3349,1.4408,1.6343,2.1761,2.1597,1.5861,1.5398,1.401,1.1194,1.0335,1.0378,1.146,1.1461,1.1242,1.0819,1.1115,1.1045,1.0663,1.1059,1.1411,1.1425,1.181,1.2022,1.1976,1.2086,1.139,1.0227,1.1338,1.2282,1.2473,1.2456,1.2436,1.2427,1.2718,1.2841,1.2999,1.2888,1.2922,1.2963,1.3193,1.3363,1.3403,1.3654,1.3713,1.2941,1.2842,1.2922,1.3205,1.3616,1.4373,1.4448,1.4367,1.4292,1.4285,1.4312,1.3951,1.282,1.2863,1.0121,0.668,0.6144,0.4905,0.0,0.0,0.0,0.0,0.0,0.0,0.0,0.0,0.0,0.0,0.0,0.0,0.0,0.0,0.0,2.9045,2.9045,2.9045,2.9045,2.9032,2.8898,2.8764,2.8604,2.797,2.7742,2.7495,2.7703,2.7051,2.574,2.5564,2.4335,2.2069,2.1074,2.059,2.0261,1.9435,1.8201,1.7278,1.9367,2.0642,2.0714,1.8144,1.641,1.5355,1.4194,1.3498,1.3444,1.3437,1.3298,1.3191,1.3257,1.466,1.7212,1.4691,1.5023,1.8304,2.3644,2.3599,1.7885,1.565,1.3559,1.1737,1.1358,1.1398,1.1823,1.2052,1.1868,1.1423,1.1509,1.1509,1.1153,1.1511,1.1552,1.1552,1.2039,1.2261,1.2169,1.2257,1.2132,1.1934,1.2132,1.2505,1.2734,1.2725,1.2841,1.2745,1.2979,1.3082,1.3057,1.3146,1.3234,1.3329,1.3505,1.3634,1.3654,1.3844,1.4014,1.4082,1.4183,1.4292,1.4414,1.4502,1.4577,1.4624,1.4584,1.4509,1.4434,1.4428,1.4401,1.4346,1.4353,1.3249,1.1202,1.103,1.0121,0.7769,0.5992,0.405,0.3527,0.194,0.0,0.0,0.0,0.0,0.0,0.0,0.0,0.0,0.0,0.0,2.9245,2.9232,2.9232,2.9205,2.9138,2.9138,2.9098,2.9032,2.863,2.8261,2.8016,2.8081,2.7865,2.7375,2.7362,2.6488,2.4918,2.4246,2.3407,2.2233,2.1744,2.1556,2.1524,2.2056,2.408,2.6543,2.1526,1.8379,1.7205,1.5523,1.4351,1.3838,1.3838,1.3666,1.3488,1.3469,1.5887,2.0418,1.809,1.8019,2.0874,2.4613,2.4529,2.0537,1.6607,1.3855,1.2427,1.24,1.2429,1.221,1.2466,1.2444,1.1986,1.1804,1.1682,1.1788,1.1802,1.1835,1.1894,1.2368,1.2588,1.2427,1.2542,1.2521,1.235,1.2608,1.2883,1.3116,1.3109,1.3057,1.3071,1.3139,1.3207,1.3315,1.3424,1.3539,1.3661,1.3804,1.3892,1.3912,1.4055,1.4177,1.4197,1.4299,1.4441,1.4557,1.4699,1.4787,1.4794,1.4814,1.4774,1.4658,1.459,1.4529,1.4421,1.4434,1.4256,1.4401,1.4222,1.3668,1.3102,1.0738,0.9121,0.8397,0.6076,0.0,0.0,0.0,0.0,0.0,0.0,0.0,0.0,0.0,0.0,2.982,2.9833,2.9806,2.9686,2.9446,2.9446,2.9299,2.9072,2.8871,2.9005,2.8858,2.8419,2.7981,2.7696,2.7669,2.7383,2.683,2.4918,2.4943,2.6298,2.4576,2.4754,2.6298,2.6613,2.7237,2.7642,2.4721,2.1097,1.7578,1.7061,1.5872,1.4009,1.3838,1.3851,1.3838,1.3756,1.6164,2.1155,2.4997,2.5715,2.3857,2.6045,2.5791,2.3093,2.0621,1.7306,1.3096,1.2712,1.2514,1.2481,1.2824,1.2755,1.2427,1.2318,1.2099,1.2119,1.2277,1.2539,1.2793,1.2991,1.3054,1.2881,1.2908,1.2876,1.2959,1.315,1.3363,1.3401,1.3377,1.3349,1.3376,1.358,1.3702,1.3709,1.3763,1.381,1.3844,1.396,1.4048,1.4048,1.4299,1.4289,1.4468,1.4397,1.4504,1.4719,1.4848,1.495,1.4957,1.5031,1.5052,1.493,1.4821,1.4726,1.4679,1.4699,1.4624,1.4523,1.4502,1.4482,1.4071,1.3853,1.3458,1.2264,1.261,1.0431,0.771,0.6258,0.5013,0.2698,0.0,0.0,0.0,0.0,0.0,2.9913,2.9913,2.9913,2.9847,2.974,2.974,2.9673,2.9566,2.9553,2.9472,2.9299,2.9179,2.8898,2.8497,2.8497,2.8417,2.814,2.7264,2.7447,2.814,2.7264,2.7251,2.7735,2.7954,2.811,2.7981,2.5687,2.2829,1.959,1.6852,1.4974,1.4109,1.4109,1.4116,1.4102,1.4007,1.7682,2.5139,2.7148,2.7667,2.6749,2.7383,2.6587,2.4148,2.3751,2.0385,1.4045,1.3146,1.3085,1.2996,1.3179,1.3102,1.2931,1.2718,1.2684,1.2364,1.2848,1.3061,1.3186,1.3269,1.3226,1.3207,1.3302,1.3278,1.329,1.3485,1.3775,1.3874,1.3762,1.3661,1.3675,1.377,1.3838,1.3851,1.3919,1.4014,1.4109,1.4245,1.436,1.4455,1.4383,1.4464,1.4665,1.4598,1.4678,1.4896,1.5004,1.5086,1.5099,1.5147,1.5153,1.5106,1.5038,1.4923,1.4794,1.474,1.4713,1.4672,1.4645,1.4618,1.459,1.4577,1.441,1.4597,1.4417,1.3874,1.2046,1.1502,1.0594,0.7292,0.0,0.0,0.0,0.0,0.0,2.9913,2.9913,2.9913,2.9913,2.9913,2.9913,2.9913,2.9913,2.9913,2.9793,2.9619,2.981,2.9676,2.9285,2.9125,2.9045,2.9045,2.9045,2.9045,2.9045,2.9045,2.8844,2.843,2.8632,2.8539,2.8142,2.6732,2.4373,2.1229,1.6695,1.4421,1.4421,1.4421,1.4421,1.4401,1.4278,1.8918,2.7495,2.8327,2.8247,2.8217,2.8329,2.7165,2.5409,2.6196,2.3134,1.5727,1.4194,1.3645,1.3363,1.3425,1.3356,1.3146,1.3146,1.2976,1.2807,1.3146,1.3499,1.3533,1.3466,1.3576,1.3519,1.3634,1.3579,1.3521,1.3767,1.3987,1.4381,1.4242,1.4068,1.374,1.3973,1.4021,1.4034,1.4163,1.4306,1.4414,1.4523,1.4611,1.4719,1.4577,1.4638,1.4862,1.4957,1.5025,1.5038,1.5113,1.5181,1.5181,1.5181,1.5181,1.5181,1.5181,1.5092,1.4903,1.4882,1.4855,1.4808,1.4801,1.4787,1.476,1.474,1.4733,1.4679,1.4564,1.4395,1.3782,1.4205,1.3891,1.1667,0.0,0.0,0.0,0.0,0.0,2.9913,2.9913,2.9913,2.9913,2.9913,2.9913,2.9913,2.9913,2.9913,2.99,2.9873,2.9873,2.9887,2.9806,2.9312,2.9058,2.9058,2.9085,2.9098,2.9098,2.9085,2.9058,2.9032,2.9032,2.9018,2.9018,2.8591,2.626,2.1828,1.7033,1.4719,1.4713,1.4692,1.4517,1.4289,1.4289,1.9213,2.7763,2.8564,2.8406,2.8551,2.827,2.7989,2.7456,2.7915,2.5361,2.0091,1.618,1.3988,1.3455,1.3599,1.3715,1.3432,1.3587,1.3405,1.3062,1.3418,1.3816,1.3749,1.3783,1.381,1.3824,1.3865,1.374,1.3733,1.4035,1.4326,1.4647,1.4557,1.4482,1.4001,1.4299,1.4441,1.4455,1.4597,1.4679,1.4706,1.4713,1.4726,1.478,1.4698,1.4805,1.5126,1.5167,1.5153,1.5153,1.5174,1.5181,1.5181,1.5181,1.5181,1.5181,1.5181,1.5174,1.5153,1.5092,1.5052,1.5004,1.4943,1.4923,1.4814,1.474,1.4753,1.476,1.4808,1.4814,1.4767,1.4205,1.3315,1.0921,0.7045,0.0,0.0,0.0,0.0,2.9913,2.9913,2.9913,2.9913,2.9913,2.9913,2.9913,2.9913,2.9913,2.9913,2.9913,2.9913,2.9913,2.99,2.97,2.9593,2.9593,2.9593,2.9606,2.9606,2.9606,2.9606,2.9579,2.9406,2.9325,2.9501,2.9326,2.6721,2.1888,1.7073,1.474,1.474,1.474,1.4706,1.4618,1.4482,1.956,2.8471,2.9286,2.9098,2.8885,2.8764,2.8657,2.8564,2.8286,2.597,2.0989,1.6706,1.427,1.3987,1.4077,1.4002,1.3947,1.3763,1.3593,1.3593,1.394,1.4138,1.4208,1.4027,1.4136,1.4331,1.4319,1.4236,1.4123,1.4363,1.4611,1.4847,1.4706,1.4638,1.4764,1.4604,1.4658,1.4853,1.4706,1.4787,1.4862,1.4889,1.4923,1.5004,1.5079,1.5126,1.516,1.5181,1.5181,1.5181,1.5181,1.5181,1.5181,1.5181,1.5181,1.5181,1.5181,1.5181,1.5181,1.5174,1.5153,1.5133,1.5099,1.5086,1.5018,1.4991,1.4997,1.4984,1.4977,1.497,1.4964,1.4798,1.3858,1.3121,0.8808,0.6736,0.0,0.5059,0.4876,2.9913,2.9913,2.9913,2.9913,2.9913,2.9913,2.9913,2.9913,2.9913,2.9913,2.9913,2.9913,2.9913,2.9913,2.9913,2.9913,2.9913,2.9913,2.9913,2.9913,2.9913,2.9913,2.9887,2.9535,2.9619,2.9442,2.7814,2.5178,2.1921,1.7238,1.5066,1.4889,1.4882,1.4828,1.5083,1.6288,2.1631,2.8462,2.9947,2.9596,2.9179,2.9286,2.9232,2.9005,2.8605,2.6883,2.349,1.7563,1.4352,1.4258,1.4366,1.4465,1.4416,1.3966,1.3787,1.4041,1.4242,1.4444,1.45,1.451,1.4441,1.4627,1.4611,1.4551,1.4368,1.4598,1.4998,1.5011,1.5053,1.4882,1.5073,1.5073,1.4869,1.5025,1.4855,1.4923,1.5018,1.5038,1.5079,1.514,1.5167,1.5174,1.5181,1.5181,1.5181,1.5181,1.5181,1.5181,1.5181,1.5181,1.5181,1.5181,1.5181,1.5181,1.5181,1.5181,1.5181,1.516,1.5153,1.5174,1.5181,1.5181,1.5181,1.5181,1.5181,1.5181,1.5194,1.5208,1.5221,1.5235,1.3864,1.1538,1.0805,1.0063,0.9668,2.994,2.9967,2.9927,2.998,2.9993,3.0007,2.9953,2.9953,2.994,2.994,2.9927,2.9913,2.9913,2.9913,2.9913,2.9913,2.9913,2.9913,2.9913,2.9913,2.9913,2.9913,2.9913,2.9887,2.9873,2.9694,2.4922,2.2719,2.2322,1.7715,1.514,1.516,1.532,1.5424,1.5176,1.9437,2.458,2.8912,2.9904,2.9703,2.9636,2.965,2.9542,2.9112,2.9072,2.8679,2.7712,1.9142,1.4363,1.4484,1.4504,1.4652,1.4462,1.4075,1.4028,1.4242,1.4496,1.475,1.4679,1.4706,1.4719,1.4726,1.4753,1.4787,1.4814,1.4903,1.497,1.5176,1.5259,1.5153,1.5147,1.514,1.5092,1.5197,1.5065,1.5133,1.516,1.5174,1.5181,1.5181,1.5181,1.5181,1.5181,1.5181,1.5181,1.5181,1.5181,1.5181,1.5181,1.5181,1.5181,1.5181,1.5181,1.5181,1.5181,1.5181,1.5181,1.5181,1.5174,1.5181,1.5181,1.5181,1.5181,1.5181,1.5181,1.5181,1.5181,1.5194,1.5194,1.5201,1.504,1.5053,1.3895,1.2933,1.3719,3.0515,3.0515,3.0515,3.0515,3.0515,3.0515,3.0421,3.0221,3.0013,2.9907,2.994,2.9913,2.9913,2.9913,2.9913,2.9913,2.9913,2.9913,2.9913,2.9927,2.9913,2.9913,2.9913,2.9913,2.9913,2.8989,2.4945,2.2556,2.1646,1.7584,1.5181,1.5368,1.6845,1.6732,1.5661,2.0125,2.5026,2.9234,2.9873,2.9793,2.978,2.9891,2.9837,2.9646,2.9646,2.9588,2.8861,2.0129,1.5111,1.4922,1.4929,1.4908,1.4658,1.4397,1.439,1.4282,1.4484,1.4867,1.4929,1.4848,1.4896,1.4916,1.4984,1.5038,1.5045,1.5079,1.5113,1.5113,1.516,1.5181,1.5181,1.5181,1.516,1.5126,1.516,1.5181,1.5181,1.5181,1.5181,1.5181,1.5181,1.5181,1.5181,1.5181,1.5181,1.5181,1.5181,1.5181,1.5181,1.5181,1.5181,1.5181,1.5181,1.5181,1.5181,1.5181,1.5181,1.5181,1.5181,1.5181,1.5181,1.5181,1.5181,1.5181,1.5181,1.5181,1.5181,1.5181,1.5181,1.5181,1.5201,1.5208,1.5208,1.5221,1.5235,3.0795,3.0795,3.0795,3.0795,3.0795,3.0795,3.0688,3.0528,3.0109,3.0003,3.0247,2.9933,2.9946,3.0194,3.0127,3.014,3.0221,3.014,3.0074,3.0047,2.994,2.9913,2.9913,2.9913,2.9913,2.8989,2.4945,2.2556,2.2382,1.7771,1.5737,1.6845,1.8135,1.8769,1.8026,2.0991,2.4947,2.9143,2.9913,2.9913,2.9913,2.9913,2.9913,2.9913,2.9913,2.984,2.943,2.3741,1.8992,1.5942,1.5209,1.5018,1.4828,1.4774,1.4577,1.4624,1.4644,1.5039,1.5094,1.5004,1.5052,1.5065,1.5133,1.5181,1.5181,1.5181,1.5181,1.5181,1.5181,1.5181,1.5181,1.5181,1.5181,1.5181,1.5181,1.5181,1.5181,1.5181,1.5181,1.5181,1.5181,1.5181,1.5181,1.5181,1.5181,1.5181,1.5181,1.5181,1.5181,1.5181,1.5187,1.5187,1.5181,1.5181,1.5181,1.5181,1.5181,1.5181,1.5181,1.5181,1.5181,1.5181,1.5181,1.5181,1.5181,1.5181,1.5181,1.5181,1.5181,1.5181,1.5181,1.5187,1.5194,1.5187,1.5201,3.0849,3.0835,3.0849,3.0889,3.0889,3.0889,3.0862,3.0808,3.0386,3.036,3.0504,3.0278,3.0305,3.0662,3.0474,3.0501,3.0688,3.0501,3.0381,3.0314,3.0154,3.002,2.9927,2.9913,2.9913,2.9182,2.4945,2.2556,2.2382,1.7584,1.6479,1.8499,1.9048,2.0271,2.1777,2.2676,2.5704,2.9335,2.9913,2.9913,2.9913,2.9913,2.9913,2.9913,2.9913,2.9827,2.9598,2.7354,2.3189,1.6524,1.5183,1.5169,1.4957,1.5032,1.4862,1.4778,1.4984,1.5231,1.514,1.5147,1.516,1.516,1.5194,1.5187,1.5187,1.5208,1.5208,1.5187,1.5181,1.5187,1.5201,1.5215,1.5221,1.5215,1.5208,1.5194,1.5201,1.5208,1.5235,1.5235,1.5215,1.5215,1.5248,1.5248,1.5248,1.5248,1.5255,1.5269,1.5269,1.5289,1.5235,1.5242,1.5276,1.5242,1.5262,1.5187,1.5187,1.5181,1.5181,1.5187,1.5181,1.5181,1.5181,1.5181,1.5181,1.5181,1.5181,1.5181,1.5181,1.5181,1.5181,1.5181,1.5181,1.5181,1.5181,3.1436,3.1436,3.1436,3.1436,3.1436,3.1436,3.1303,3.1129,3.1116,3.1009,3.0835,3.1137,3.0939,3.0782,3.0728,3.0728,3.0782,3.0715,3.0675,3.0675,3.0608,3.0287,2.9993,2.9913,2.9927,2.9208,2.499,2.2556,2.2188,1.76,1.6666,1.8871,2.0714,2.1742,2.2899,2.6077,2.8373,2.9721,2.9913,2.9913,2.9927,2.9927,2.9913,2.9913,2.9927,2.9967,2.9054,2.2789,1.8391,1.5702,1.5133,1.5126,1.5113,1.5072,1.5065,1.5113,1.5126,1.514,1.5181,1.5194,1.5187,1.5194,1.5303,1.5303,1.5194,1.5289,1.5282,1.5221,1.5181,1.5235,1.5133,1.516,1.52,1.5472,1.5337,1.5248,1.533,1.5357,1.5384,1.5493,1.5499,1.5493,1.5486,1.5493,1.5493,1.5493,1.5486,1.5486,1.5459,1.5466,1.5438,1.5452,1.5466,1.5391,1.533,1.5235,1.5187,1.5181,1.5187,1.5201,1.5194,1.5181,1.5181,1.5181,1.5181,1.5181,1.5181,1.5181,1.5181,1.5181,1.5181,1.5181,1.5181,1.5181,1.5181,3.1677,3.1677,3.1677,3.1677,3.1677,3.1677,3.157,3.1436,3.1625,3.1531,3.1356,3.1448,3.1461,3.1156,3.1036,3.1062,3.1129,3.1036,3.0969,3.0955,3.0835,3.0398,3.0132,3.0079,3.0287,2.9729,2.5247,2.2963,2.1791,1.7695,1.7476,2.0178,2.182,2.342,2.6089,2.818,2.9913,2.9913,2.9913,2.9967,3.0087,3.01,3.0194,3.0247,3.0274,3.0106,2.9026,2.4399,1.9843,1.6449,1.5147,1.5181,1.5181,1.5181,1.5208,1.5262,1.5276,1.5303,1.5364,1.5377,1.5377,1.5391,1.5472,1.5459,1.5411,1.5459,1.5452,1.5398,1.5377,1.5227,1.5281,1.5314,1.5547,1.5787,1.5479,1.5411,1.5499,1.5506,1.5547,1.5608,1.5635,1.5635,1.5642,1.5642,1.5642,1.5635,1.5608,1.5615,1.5615,1.5642,1.5649,1.5642,1.5608,1.554,1.5499,1.5425,1.5371,1.5343,1.5323,1.5316,1.5242,1.5221,1.5208,1.5208,1.5194,1.5187,1.5201,1.5201,1.5181,1.5181,1.5181,1.5181,1.5181,1.5181,1.5181,3.1677,3.1677,3.1677,3.1677,3.1677,3.1677,3.1664,3.1664,3.165,3.1637,3.1583,3.1786,3.1611,3.165,3.137,3.141,3.1623,3.137,3.1289,3.1209,3.1076,3.069,3.0465,3.0715,3.0899,3.0149,2.566,2.3457,2.2024,1.8057,1.8543,2.1615,2.2862,2.5411,2.8201,2.9673,2.9827,3.0074,3.0308,3.0221,3.0368,3.0421,3.0684,3.0648,3.0491,3.036,3.0108,2.8793,2.5933,1.7521,1.6104,1.5228,1.5235,1.5242,1.5296,1.5207,1.5438,1.5493,1.5594,1.5794,1.5815,1.5608,1.5628,1.5649,1.5622,1.5628,1.5635,1.5588,1.5628,1.5421,1.5462,1.5676,1.5911,1.5938,1.5696,1.5689,1.5683,1.5669,1.5662,1.5683,1.5689,1.5689,1.5689,1.5689,1.5696,1.5805,1.5784,1.5791,1.5791,1.5798,1.5791,1.5757,1.5723,1.5669,1.5649,1.5628,1.5594,1.556,1.554,1.5499,1.5357,1.5309,1.5269,1.5248,1.5248,1.5248,1.5248,1.5235,1.5208,1.5181,1.5181,1.5181,1.5181,1.5181,1.5181,3.1677,3.1677,3.1677,3.1677,3.1677,3.1677,3.1677,3.169,3.169,3.1717,3.1664,3.1799,3.1623,3.1664,3.161,3.1623,3.169,3.161,3.157,3.157,3.153,3.1476,3.1356,3.1461,3.1457,3.0121,2.5881,2.3371,2.2199,2.0494,2.0096,2.2685,2.4878,2.7373,2.9389,2.9913,3.0188,3.0608,3.1002,3.1002,3.0662,3.0715,3.0953,3.1047,3.0835,3.0637,3.0703,3.1062,3.0277,2.6829,2.0782,1.6788,1.5869,1.5506,1.5341,1.5368,1.5395,1.5808,1.5849,1.607,1.5849,1.5689,1.5791,1.5959,1.5655,1.5771,1.575,1.5676,1.5642,1.5723,1.5596,1.592,1.6144,1.6151,1.5954,1.5961,1.5961,1.5879,1.5859,1.5934,1.5961,1.5981,1.5974,1.5954,1.5961,1.5981,1.5974,1.5981,1.5967,1.5947,1.592,1.5886,1.5852,1.5811,1.5798,1.5784,1.5757,1.575,1.5737,1.5723,1.5574,1.5452,1.5432,1.5377,1.5316,1.5323,1.5357,1.5282,1.5255,1.5221,1.5194,1.5194,1.5201,1.5194,1.5208,3.1998,3.1891,3.2024,3.1998,3.1904,3.2011,3.2078,3.2078,3.1845,3.1779,3.1877,3.1673,3.1784,3.169,3.181,3.1864,3.1877,3.1877,3.1877,3.1837,3.1744,3.1664,3.165,3.1611,3.1637,3.0848,2.6219,2.3858,2.2823,2.1265,2.0646,2.3213,2.587,2.8087,2.999,3.0386,3.0571,3.1178,3.143,3.1471,3.0969,3.0996,3.1302,3.1383,3.1209,3.1209,3.1249,3.1531,3.1679,3.0316,2.6118,2.1101,1.755,1.6208,1.5468,1.5529,1.5737,1.5791,1.6028,1.6117,1.5974,1.5947,1.609,1.611,1.6083,1.613,1.609,1.5995,1.5961,1.5974,1.5961,1.6008,1.6076,1.6083,1.6083,1.6083,1.6069,1.6008,1.5981,1.6062,1.6062,1.6062,1.6076,1.6083,1.6076,1.6029,1.6029,1.6035,1.6035,1.6022,1.6035,1.6015,1.5988,1.5961,1.5947,1.5934,1.5906,1.5906,1.592,1.5913,1.5859,1.5737,1.5628,1.556,1.5486,1.5486,1.5493,1.5404,1.5343,1.5323,1.5303,1.5255,1.5221,1.5221,1.5262,3.2398,3.2185,3.2438,3.2398,3.2225,3.2425,3.2505,3.2519,3.2089,3.193,3.2198,3.1952,3.1845,3.1917,3.2064,3.2158,3.2171,3.2171,3.2171,3.2144,3.1984,3.1904,3.1851,3.1837,3.181,3.1198,2.6375,2.3932,2.305,2.1863,2.1798,2.3734,2.6559,2.9105,3.0584,3.0942,3.1248,3.1756,3.1984,3.1678,3.1261,3.1301,3.1623,3.1757,3.1593,3.1593,3.1593,3.1633,3.1699,3.1885,3.1746,2.7442,2.1845,1.7247,1.5374,1.571,1.5967,1.6049,1.6144,1.6246,1.6112,1.6347,1.6429,1.6497,1.6483,1.6449,1.6402,1.6354,1.6293,1.6259,1.6164,1.6185,1.6178,1.6171,1.6157,1.6151,1.6151,1.6144,1.6157,1.6076,1.6083,1.6083,1.6083,1.6083,1.6083,1.6083,1.609,1.609,1.6096,1.609,1.6096,1.6083,1.6042,1.6029,1.6022,1.6008,1.5995,1.6001,1.6035,1.6035,1.6035,1.5947,1.5818,1.5744,1.5689,1.5662,1.5628,1.5574,1.5513,1.5466,1.5438,1.5418,1.535,1.5269,1.533,3.2519,3.2478,3.2519,3.2519,3.2478,3.2532,3.2572,3.2545,3.2572,3.2519,3.2478,3.2465,3.2438,3.2398,3.2425,3.2478,3.2505,3.2492,3.2465,3.2465,3.2345,3.2098,3.1864,3.2278,3.2539,3.0856,2.7067,2.4484,2.4054,2.3421,2.3635,2.4939,2.8415,3.1138,3.1328,3.1543,3.1637,3.2178,3.2423,3.2149,3.1693,3.1978,3.2211,3.2305,3.2058,3.1864,3.1697,3.1723,3.197,3.227,3.1999,2.8879,2.3829,1.8869,1.6289,1.5991,1.6293,1.6354,1.6402,1.6456,1.6483,1.649,1.6537,1.6544,1.6544,1.6537,1.6551,1.6503,1.6272,1.6252,1.6252,1.6402,1.6435,1.6442,1.6415,1.6415,1.6422,1.6402,1.632,1.6185,1.613,1.6117,1.6157,1.6178,1.6185,1.6198,1.6191,1.6185,1.6178,1.6151,1.6123,1.6103,1.6076,1.6069,1.6069,1.6062,1.6056,1.6049,1.6062,1.6062,1.6062,1.6069,1.6001,1.5906,1.5818,1.5757,1.5723,1.5723,1.5676,1.5615,1.5601,1.5588,1.5513,1.5438,1.5506,3.2906,3.2786,3.2933,3.2906,3.2812,3.2933,3.3,3.2986,3.2986,3.2906,3.2812,3.2982,3.2888,3.2625,3.2719,3.2839,3.2933,3.2812,3.2786,3.2746,3.2625,3.2519,3.2128,3.2559,3.2962,3.1894,2.8688,2.6386,2.6397,2.6397,2.6179,2.718,3.0341,3.1912,3.1693,3.1693,3.1952,3.2305,3.2566,3.2606,3.1881,3.2545,3.2781,3.2545,3.2337,3.2102,3.2297,3.2532,3.274,3.2989,3.2666,3.0428,2.6099,2.0777,1.6508,1.6408,1.6497,1.6742,1.6756,1.6585,1.6433,1.6653,1.67,1.6754,1.6761,1.6768,1.6714,1.6646,1.6756,1.6524,1.651,1.6742,1.6728,1.6728,1.653,1.6537,1.653,1.653,1.6442,1.6334,1.6347,1.6354,1.6334,1.6341,1.632,1.6313,1.63,1.6286,1.6273,1.6259,1.6239,1.6191,1.6171,1.613,1.6123,1.6117,1.6117,1.611,1.6117,1.611,1.6117,1.6137,1.6103,1.6035,1.5947,1.5886,1.59,1.592,1.5845,1.5771,1.575,1.573,1.5662,1.5642,1.5696,3.3267,3.308,3.332,3.328,3.312,3.3307,3.34,3.3414,3.3387,3.3267,3.3093,3.3278,3.3157,3.2839,3.2959,3.3187,3.3387,3.3146,3.308,3.3026,3.2893,3.2942,3.2732,3.2928,3.2996,3.2853,3.1158,2.9243,2.8288,2.8276,2.852,2.9075,3.1125,3.2324,3.2049,3.1996,3.1894,3.239,3.2834,3.2861,3.2483,3.2928,3.3165,3.2719,3.2719,3.2746,3.2786,3.3023,3.3233,3.3233,3.3023,3.1972,2.8077,2.1318,1.7087,1.6762,1.681,1.7037,1.6865,1.672,1.6587,1.6802,1.691,1.6958,1.6965,1.6917,1.691,1.6802,1.6927,1.6859,1.6872,1.6845,1.6845,1.6845,1.6639,1.6619,1.6646,1.6666,1.668,1.6619,1.6612,1.6558,1.6497,1.6449,1.6422,1.6422,1.6408,1.6415,1.6408,1.6435,1.6408,1.6341,1.6286,1.6212,1.6185,1.6171,1.6178,1.6185,1.6191,1.6198,1.6212,1.6218,1.6191,1.6178,1.6144,1.6096,1.611,1.6083,1.5981,1.592,1.5906,1.5879,1.5845,1.5818,1.5845,3.3387,3.336,3.3387,3.3387,3.336,3.34,3.3414,3.3414,3.3414,3.34,3.332,3.3347,3.3307,3.328,3.3293,3.3374,3.3387,3.336,3.3307,3.328,3.324,3.3213,3.3267,3.3307,3.3213,3.3399,3.2828,3.1175,2.9736,2.9219,2.8986,2.9602,3.1436,3.2572,3.2652,3.2456,3.2692,3.3103,3.3368,3.3278,3.324,3.3307,3.332,3.332,3.3307,3.328,3.3253,3.3267,3.3466,3.3453,3.3479,3.2067,2.8548,2.1369,1.7895,1.6962,1.7058,1.6924,1.6917,1.6937,1.6951,1.6944,1.6978,1.6978,1.6978,1.6978,1.6965,1.6965,1.6917,1.689,1.687,1.6904,1.6917,1.6897,1.6856,1.687,1.6883,1.6802,1.6815,1.6829,1.6802,1.6686,1.6605,1.6558,1.6517,1.6517,1.6524,1.6544,1.6551,1.6578,1.6571,1.6503,1.6415,1.6341,1.6307,1.6286,1.6279,1.6279,1.6293,1.6307,1.6327,1.6347,1.6347,1.6334,1.63,1.6232,1.6164,1.6117,1.6083,1.6042,1.5995,1.6015,1.6049,1.6029,1.5988,3.3414,3.3414,3.3414,3.3414,3.3414,3.3414,3.3414,3.3414,3.3414,3.3414,3.3414,3.3414,3.3414,3.3414,3.3414,3.3414,3.3414,3.3414,3.3414,3.3414,3.3414,3.3414,3.34,3.34,3.3414,3.3454,3.34,3.2894,3.1438,3.1213,3.1412,3.1399,3.2419,3.3066,3.3224,3.304,3.312,3.3253,3.3387,3.3547,3.3681,3.3828,3.3908,3.3908,3.3665,3.3369,3.3479,3.3439,3.3346,3.3467,3.3414,3.3105,3.1782,2.845,2.58,2.1481,1.8564,1.71,1.7093,1.71,1.71,1.7073,1.7039,1.6978,1.6978,1.6992,1.6992,1.6978,1.6978,1.6985,1.6985,1.6978,1.6978,1.6985,1.7012,1.6985,1.6985,1.6978,1.6951,1.6971,1.6971,1.6842,1.6754,1.6748,1.6734,1.6741,1.6754,1.6768,1.6748,1.672,1.67,1.6659,1.6564,1.6469,1.6449,1.6429,1.6429,1.6429,1.6429,1.6449,1.6469,1.6483,1.6497,1.6483,1.6442,1.6354,1.6232,1.6151,1.6103,1.609,1.6076,1.609,1.6103,1.6096,1.6062,3.3414,3.3414,3.3414,3.3414,3.3414,3.3414,3.3414,3.3414,3.3414,3.3414,3.3414,3.3414,3.3414,3.3414,3.3414,3.3414,3.3414,3.3414,3.3414,3.3414,3.3414,3.3454,3.3534,3.3534,3.3601,3.3627,3.3721,3.3466,3.3466,3.3426,3.3399,3.3534,3.316,3.344,3.3507,3.3507,3.3333,3.3694,3.3422,3.3514,3.4015,3.4407,3.4282,3.4282,3.3844,3.3534,3.358,3.3514,3.3382,3.3734,3.3466,3.3382,3.3337,3.2982,3.1206,2.6755,2.161,1.7116,1.7311,1.729,1.7256,1.7216,1.7175,1.7127,1.7114,1.7087,1.7053,1.706,1.7046,1.7046,1.7032,1.7039,1.7053,1.7073,1.7093,1.7046,1.7012,1.7046,1.7026,1.6978,1.6978,1.6978,1.6924,1.6944,1.6958,1.6965,1.6978,1.6978,1.6924,1.6849,1.6829,1.6795,1.6761,1.6659,1.6592,1.6578,1.6578,1.6578,1.6578,1.6619,1.6659,1.6659,1.6666,1.6632,1.6585,1.649,1.6388,1.6252,1.6123,1.6103,1.609,1.6117,1.613,1.6144,1.6157,3.3414,3.3414,3.3414,3.3414,3.3414,3.3414,3.3414,3.3414,3.3414,3.3414,3.3414,3.3414,3.3414,3.3414,3.3414,3.3414,3.3414,3.3414,3.344,3.344,3.3427,3.3399,3.3519,3.3652,3.3961,3.4148,3.4122,3.4148,3.4215,3.4095,3.4015,3.3868,3.3694,3.3694,3.3748,3.3625,3.3731,3.3864,3.3778,3.3818,3.4295,3.4608,3.4855,3.4389,3.4349,3.4295,3.4282,3.3831,3.3765,3.4162,3.3891,3.3726,3.4336,3.467,3.3536,2.9683,2.4542,1.9969,1.822,1.7689,1.7628,1.7399,1.7365,1.7324,1.7311,1.7358,1.7103,1.6982,1.6969,1.7175,1.7175,1.7182,1.7401,1.7202,1.7216,1.7188,1.7168,1.7168,1.7134,1.7019,1.7012,1.7073,1.7087,1.7107,1.7012,1.6998,1.6978,1.6978,1.6978,1.6931,1.6937,1.6931,1.6937,1.6863,1.6754,1.6734,1.6734,1.6734,1.6734,1.6809,1.6883,1.687,1.6809,1.6781,1.6727,1.6632,1.6544,1.6435,1.6313,1.6151,1.611,1.6212,1.6286,1.6327,1.632,3.3414,3.3414,3.3414,3.3414,3.3414,3.3414,3.3414,3.3414,3.3414,3.3414,3.3414,3.3414,3.3414,3.3414,3.3414,3.3414,3.3414,3.3414,3.3534,3.3654,3.3734,3.3652,3.3607,3.393,3.4447,3.4568,3.4568,3.4322,3.4295,3.4376,3.4442,3.4282,3.4095,3.4068,3.4122,3.3917,3.4242,3.4349,3.4029,3.3875,3.4616,3.5012,3.5092,3.487,3.4857,3.4763,3.4864,3.4603,3.4716,3.4635,3.4582,3.4456,3.4576,3.5079,3.3518,3.126,2.6775,2.3729,1.8629,1.7861,1.7751,1.7433,1.7419,1.7433,1.7453,1.7426,1.7405,1.7344,1.7116,1.711,1.7331,1.7552,1.7559,1.7351,1.7351,1.7344,1.7311,1.7304,1.7283,1.7195,1.7222,1.7283,1.7277,1.727,1.7141,1.7019,1.6998,1.6985,1.6998,1.7005,1.7012,1.6998,1.6992,1.6978,1.687,1.687,1.6883,1.6876,1.6876,1.6917,1.6965,1.6965,1.691,1.689,1.6863,1.6788,1.6707,1.6632,1.6503,1.6341,1.632,1.6388,1.6449,1.649,1.649,3.3414,3.3414,3.3414,3.3414,3.3414,3.3414,3.3414,3.3414,3.3414,3.3414,3.3414,3.3414,3.3414,3.3414,3.3414,3.3507,3.3547,3.3601,3.3774,3.3908,3.4028,3.3957,3.3897,3.4236,3.4743,3.5004,3.4824,3.4616,3.4643,3.4589,3.471,3.4763,3.4696,3.4576,3.4442,3.4223,3.4482,3.485,3.4515,3.4177,3.4923,3.5057,3.5164,3.5151,3.5137,3.5084,3.516,3.5106,3.5039,3.5166,3.5125,3.4958,3.5079,3.4557,3.2947,3.1177,2.8436,2.6058,2.0451,1.7985,1.7882,1.7609,1.7582,1.7575,1.7548,1.7541,1.7575,1.7717,1.7487,1.727,1.7487,1.771,1.771,1.75,1.7582,1.7575,1.7467,1.7419,1.7412,1.7378,1.7405,1.7385,1.7385,1.7351,1.7263,1.7168,1.7182,1.7141,1.708,1.708,1.708,1.7053,1.7019,1.6998,1.6971,1.6958,1.6937,1.6931,1.6931,1.6944,1.6978,1.6978,1.6978,1.6944,1.6924,1.691,1.687,1.6795,1.6673,1.653,1.6544,1.6571,1.6544,1.6585,1.6632,3.3414,3.3414,3.3414,3.3414,3.3414,3.3414,3.3414,3.3414,3.3414,3.3427,3.3454,3.3427,3.344,3.344,3.3494,3.3601,3.3788,3.3855,3.4028,3.4255,3.4322,3.4262,3.4422,3.4763,3.4843,3.511,3.507,3.5017,3.5097,3.503,3.511,3.5124,3.503,3.495,3.4763,3.4515,3.4661,3.511,3.5124,3.5137,3.5137,3.5177,3.5191,3.5204,3.5204,3.5151,3.5124,3.511,3.528,3.5254,3.5254,3.507,3.511,3.5086,3.4541,3.4192,2.5418,2.056,1.7909,1.8012,1.7812,1.7792,1.7751,1.7772,1.7812,1.7812,1.7758,1.7875,1.7868,1.7643,1.765,1.765,1.7643,1.7663,1.7738,1.7745,1.7623,1.7575,1.7575,1.7575,1.7494,1.7433,1.7439,1.7419,1.7358,1.7324,1.7365,1.7317,1.7216,1.7188,1.7188,1.7154,1.7114,1.706,1.7046,1.7012,1.6992,1.6985,1.6992,1.7012,1.6992,1.6978,1.6978,1.6978,1.6965,1.6944,1.6958,1.6958,1.6822,1.6707,1.672,1.6727,1.6693,1.6686,1.6748,3.3414,3.3414,3.3414,3.3414,3.3414,3.3414,3.3414,3.3414,3.3427,3.3534,3.3654,3.3521,3.3547,3.3668,3.3734,3.3801,3.3908,3.4148,3.4336,3.4589,3.4616,3.4803,3.495,3.5017,3.5097,3.5164,3.5204,3.5204,3.5177,3.5204,3.5204,3.5204,3.5191,3.5151,3.507,3.482,3.511,3.5177,3.5191,3.5191,3.5204,3.5204,3.5204,3.5204,3.5204,3.5204,3.5204,3.5204,3.5204,3.5204,3.5204,3.5204,3.5204,3.5126,3.5179,3.5059,2.92,2.5418,2.0794,1.7998,1.7853,1.786,1.786,1.786,1.786,1.786,1.7826,1.8026,1.7998,1.7772,1.7792,1.7792,1.7785,1.7792,1.7833,1.7826,1.7765,1.7772,1.7772,1.7772,1.7717,1.7684,1.7677,1.7623,1.7548,1.748,1.7507,1.7453,1.7358,1.7344,1.7344,1.7297,1.7249,1.7168,1.7121,1.7121,1.7087,1.706,1.7066,1.7087,1.7053,1.7032,1.6998,1.7012,1.6992,1.6978,1.6978,1.6971,1.6944,1.689,1.687,1.6863,1.6842,1.6849,1.6897,3.3414,3.3414,3.3414,3.3414,3.3414,3.3414,3.3454,3.3547,3.3373,3.3532,3.3948,3.4044,3.4057,3.4015,3.4042,3.4135,3.4202,3.4376,3.4629,3.4883,3.491,3.5017,3.5137,3.5204,3.5177,3.5204,3.5204,3.5204,3.5204,3.5204,3.5204,3.5204,3.5204,3.5191,3.5177,3.5177,3.5177,3.5204,3.5204,3.5204,3.5204,3.5204,3.5204,3.5204,3.5204,3.5204,3.5204,3.5204,3.5204,3.5204,3.5204,3.5204,3.5204,3.5217,3.5271,3.5165,2.9991,2.5566,1.9672,1.8012,1.7853,1.786,1.786,1.786,1.786,1.786,1.786,1.7853,1.786,1.786,1.786,1.786,1.786,1.786,1.786,1.7853,1.7853,1.7846,1.7846,1.7853,1.786,1.786,1.786,1.784,1.7765,1.7704,1.7643,1.7575,1.7507,1.75,1.7494,1.7453,1.7392,1.7311,1.727,1.7277,1.7222,1.7148,1.7168,1.7216,1.7182,1.7161,1.71,1.7039,1.7019,1.6998,1.6985,1.6965,1.6951,1.6951,1.6951,1.6958,1.6978,1.6978,1.6978,3.3414,3.3414,3.3414,3.3414,3.3414,3.344,3.3614,3.3868,3.3652,3.3824,3.4322,3.476,3.4747,3.4322,3.4336,3.4456,3.4656,3.4736,3.4923,3.5084,3.511,3.5177,3.5177,3.5204,3.5204,3.5204,3.5204,3.5204,3.5204,3.5204,3.5204,3.5204,3.5204,3.5204,3.5204,3.5204,3.5204,3.5204,3.5204,3.5204,3.5204,3.5204,3.5204,3.5204,3.5204,3.5204,3.5204,3.5204,3.5204,3.5204,3.5204,3.5204,3.5204,3.5204,3.5204,3.2486,2.5147,2.219,1.8515,1.7978,1.8067,1.8081,1.786,1.786,1.786,1.786,1.786,1.786,1.786,1.786,1.786,1.786,1.786,1.786,1.786,1.786,1.786,1.786,1.786,1.786,1.786,1.786,1.786,1.7853,1.7853,1.7819,1.7751,1.7724,1.767,1.7656,1.7643,1.7623,1.7548,1.7453,1.7426,1.7426,1.7365,1.729,1.7358,1.7399,1.7351,1.729,1.7236,1.7168,1.7066,1.7026,1.7046,1.7019,1.6978,1.6978,1.6985,1.6978,1.6978,1.6978,1.6978,3.3414,3.3414,3.3414,3.3414,3.344,3.3654,3.3814,3.3908,3.3877,3.4349,3.4629,3.5102,3.495,3.4629,3.4629,3.4696,3.4817,3.4963,3.5084,3.5177,3.5204,3.5204,3.5204,3.5204,3.5204,3.5204,3.5204,3.5204,3.5204,3.5204,3.5204,3.5204,3.5204,3.5204,3.5204,3.5204,3.5204,3.5204,3.5204,3.5204,3.5204,3.5204,3.5204,3.5204,3.5204,3.5204,3.5204,3.5204,3.5204,3.5204,3.5204,3.5204,3.5204,3.5204,3.5204,3.5006,3.1024,2.7555,2.0426,2.0365,2.0945,1.8743,1.8081,1.786,1.786,1.786,1.786,1.786,1.786,1.786,1.786,1.786,1.786,1.786,1.786,1.786,1.786,1.786,1.786,1.786,1.786,1.786,1.786,1.786,1.7853,1.786,1.7853,1.7826,1.7806,1.7779,1.7758,1.7738,1.7697,1.7595,1.7582,1.7582,1.7507,1.7453,1.7521,1.7548,1.7467,1.7412,1.7372,1.7297,1.7202,1.7154,1.7141,1.7107,1.708,1.7005,1.6998,1.6985,1.6978,1.6992,1.7005,3.3414,3.3414,3.3414,3.3414,3.348,3.3881,3.4055,3.4108,3.4156,3.4435,3.4897,3.5012,3.5025,3.491,3.4937,3.495,3.4963,3.5084,3.5191,3.5191,3.5204,3.5204,3.5204,3.5204,3.5204,3.5204,3.5204,3.5204,3.5204,3.5204,3.5204,3.5204,3.5204,3.5204,3.5204,3.5204,3.5204,3.5204,3.5204,3.5204,3.5204,3.5204,3.5204,3.5204,3.5204,3.5204,3.5204,3.5204,3.5204,3.5204,3.5204,3.5204,3.5204,3.5204,3.5204,3.5019,3.4489,3.1368,2.6663,2.3013,2.2,2.005,1.8515,1.786,1.786,1.786,1.786,1.786,1.786,1.786,1.786,1.786,1.786,1.786,1.786,1.786,1.786,1.786,1.786,1.786,1.786,1.786,1.786,1.786,1.786,1.786,1.786,1.7853,1.784,1.7833,1.7826,1.7812,1.7785,1.7731,1.7731,1.7717,1.767,1.7636,1.7684,1.7684,1.7589,1.7528,1.7494,1.7426,1.7338,1.7304,1.7283,1.7243,1.7202,1.7134,1.7121,1.7161,1.7134,1.7039,1.7053,3.3414,3.3414,3.3414,3.3414,3.3507,3.4042,3.4309,3.4362,3.4409,3.4701,3.5137,3.5177,3.5137,3.5137,3.5137,3.5137,3.5137,3.5177,3.5204,3.5204,3.5204,3.5204,3.5204,3.5204,3.5204,3.5204,3.5204,3.5204,3.5204,3.5204,3.5204,3.5204,3.5204,3.5204,3.5204,3.5204,3.5204,3.5204,3.5204,3.5204,3.5204,3.5204,3.5204,3.5204,3.5204,3.5204,3.5204,3.5204,3.5204,3.5204,3.5204,3.5204,3.5204,3.5204,3.5204,3.5231,3.5165,3.4341,3.1403,2.7691,2.3955,2.1781,1.9823,1.8736,1.8302,1.8081,1.786,1.786,1.786,1.786,1.786,1.786,1.786,1.786,1.786,1.786,1.786,1.786,1.786,1.786,1.786,1.786,1.786,1.786,1.786,1.786,1.786,1.786,1.786,1.786,1.786,1.786,1.7833,1.7806,1.7812,1.7806,1.7826,1.7833,1.7833,1.7819,1.7738,1.7677,1.7616,1.7561,1.7514,1.7467,1.7433,1.7372,1.7331,1.7331,1.7331,1.7378,1.7317,1.7188,1.7161,3.3414,3.3414,3.3414,3.3414,3.3494,3.4068,3.4322,3.4362,3.487,3.511,3.5191,3.5204,3.5204,3.5204,3.5204,3.5204,3.5204,3.5204,3.5204,3.5204,3.5204,3.5204,3.5204,3.5204,3.5204,3.5204,3.5204,3.5204,3.5204,3.5204,3.5204,3.5204,3.5204,3.5204,3.5204,3.5204,3.5204,3.5204,3.5204,3.5204,3.5204,3.5204,3.5204,3.5204,3.5204,3.5204,3.5204,3.5204,3.5204,3.5204,3.5204,3.5204,3.5204,3.5204,3.5204,3.5217,3.5271,3.5165,3.4128,3.0772,2.7455,2.4191,2.2017,2.005,1.8736,1.8302,1.786,1.8081,1.786,1.786,1.786,1.786,1.786,1.786,1.786,1.786,1.786,1.786,1.786,1.786,1.786,1.786,1.786,1.786,1.786,1.786,1.786,1.786,1.786,1.786,1.786,1.786,1.786,1.7853,1.786,1.786,1.786,1.786,1.7853,1.7853,1.786,1.7799,1.7731,1.7731,1.7704,1.7636,1.7555,1.7467,1.7446,1.748,1.7494,1.7521,1.7494,1.7385,1.7365,3.3414,3.3414,3.3414,3.3494,3.3694,3.4122,3.4389,3.4589,3.5004,3.5204,3.5204,3.5204,3.5204,3.5204,3.5204,3.5204,3.5204,3.5204,3.5204,3.5204,3.5204,3.5204,3.5204,3.5204,3.5204,3.5204,3.5204,3.5204,3.5204,3.5204,3.5204,3.5204,3.5204,3.5204,3.5204,3.5204,3.5204,3.5204,3.5204,3.5204,3.5204,3.5204,3.5204,3.5204,3.5204,3.5204,3.5204,3.5204,3.5204,3.5204,3.5204,3.5204,3.5204,3.5204,3.5204,3.5204,3.5217,3.5244,3.4688,3.3173,3.0714,2.7455,2.4835,2.3075,1.9002,1.8361,1.8949,1.8957,1.8081,1.786,1.786,1.786,1.786,1.786,1.786,1.786,1.786,1.786,1.786,1.786,1.786,1.786,1.786,1.786,1.786,1.786,1.786,1.786,1.786,1.786,1.786,1.786,1.786,1.786,1.786,1.786,1.786,1.786,1.786,1.786,1.786,1.786,1.7846,1.7819,1.7792,1.7772,1.769,1.7609,1.7629,1.7677,1.7663,1.765,1.7609,1.7582,1.7589,3.3414,3.3414,3.3414,3.3587,3.3908,3.4189,3.4482,3.4776,3.507,3.5204,3.5204,3.5204,3.5204,3.5204,3.5204,3.5204,3.5204,3.5204,3.5204,3.5204,3.5204,3.5204,3.5204,3.5204,3.5204,3.5204,3.5204,3.5204,3.5204,3.5204,3.5204,3.5204,3.5204,3.5204,3.5204,3.5204,3.5204,3.5204,3.5204,3.5204,3.5204,3.5204,3.5204,3.5204,3.5204,3.5204,3.5204,3.5204,3.5204,3.5204,3.5204,3.5204,3.5204,3.5204,3.5204,3.5204,3.5204,3.5217,3.5033,3.4914,3.2898,3.0691,2.8489,2.5135,2.13,1.9627,2.0224,1.917,1.8295,1.786,1.786,1.786,1.786,1.786,1.786,1.786,1.786,1.786,1.786,1.786,1.786,1.786,1.786,1.786,1.786,1.786,1.786,1.786,1.786,1.786,1.786,1.786,1.786,1.786,1.786,1.786,1.786,1.786,1.786,1.786,1.786,1.786,1.786,1.786,1.784,1.7826,1.7833,1.7779,1.7819,1.7819,1.7792,1.7751,1.7758,1.7751,1.7799,3.3414,3.3414,3.3414,3.3601,3.3908,3.4202,3.4496,3.479,3.507,3.5204,3.5204,3.5204,3.5204,3.5204,3.5204,3.5204,3.5204,3.5204,3.5204,3.5204,3.5204,3.5204,3.5204,3.5204,3.5204,3.5204,3.5204,3.5204,3.5204,3.5204,3.5204,3.5204,3.5204,3.5204,3.5204,3.5204,3.5204,3.5204,3.5204,3.5204,3.5204,3.5204,3.5204,3.5204,3.5204,3.5204,3.5204,3.5204,3.5204,3.5204,3.5204,3.5204,3.5204,3.5204,3.5204,3.5204,3.5204,3.5204,3.5244,3.5271,3.3697,3.196,2.9777,2.8479,2.4909,2.2117,2.1562,1.9155,1.8288,1.8081,1.786,1.786,1.786,1.786,1.786,1.786,1.786,1.786,1.786,1.786,1.786,1.786,1.786,1.786,1.786,1.786,1.786,1.786,1.786,1.786,1.786,1.786,1.786,1.786,1.786,1.786,1.786,1.786,1.786,1.786,1.786,1.786,1.786,1.786,1.786,1.7853,1.786,1.786,1.786,1.7846,1.7853,1.7846,1.786,1.786,1.786]}]]